GFSSGP_sfc_temp_000.txt.gz
Temp
81 81 81 79 65 61 55 61 68 65 67 70 75 72 66 68 66 57 70 75 76 74 77 79 82 82 82 82 82 82 83 83 83 83 83 83 83 83 83 84 84 83 84 84 83 83 83 83 83
81 83 77 70 61 52 54 65 64 68 71 74 74 72 68 64 71 68 70 76 77 76 75 77 81 82 83 82 82 83 83 83 83 83 83 83 84 84 84 84 84 83 83 84 84 84 84 83 83
84 83 71 63 58 53 55 65 67 72 75 75 70 74 70 65 71 71 74 77 77 75 76 77 81 82 83 83 83 83 83 83 83 83 83 84 84 84 84 84 84 84 84 84 84 84 84 82 83
80 76 71 63 61 65 65 68 72 72 74 74 72 65 73 77 75 75 78 78 76 76 77 81 83 83 83 83 83 83 83 83 83 83 83 84 84 85 84 84 84 84 84 84 84 84 83 83 83
76 69 61 59 61 68 72 74 74 70 71 72 73 65 67 75 77 77 77 78 76 76 78 80 82 83 83 83 83 83 84 84 83 83 84 84 84 85 84 84 84 84 84 84 84 84 84 84 83
68 66 59 55 60 69 72 74 73 70 70 70 69 68 66 75 75 76 78 76 78 76 77 79 83 83 83 84 83 83 83 84 83 83 84 84 84 84 84 84 84 84 84 84 84 84 84 83 83
67 62 59 59 62 66 70 74 69 68 69 69 73 66 68 72 76 77 77 76 77 77 77 77 79 82 84 84 83 83 83 83 83 83 83 84 84 84 84 84 84 85 85 85 85 85 83 83 83
72 67 62 61 62 63 72 72 74 71 70 78 76 64 65 72 77 77 76 75 76 76 77 77 77 78 77 80 83 84 83 83 83 84 84 84 84 85 85 83 83 84 85 85 84 84 83 83 82
78 63 60 63 65 68 72 70 76 79 73 76 77 72 75 77 77 74 73 73 74 76 75 76 76 76 77 78 80 83 83 84 84 83 84 82 78 79 82 80 83 83 84 83 84 84 83 82 81
71 65 67 72 72 70 73 74 74 72 71 71 71 75 76 76 74 72 71 71 72 73 74 76 76 76 77 79 78 77 78 78 78 78 79 77 77 77 78 81 82 83 84 84 83 83 82 79 78
72 69 74 75 76 78 74 74 76 71 66 70 67 70 73 74 73 72 72 73 72 74 75 75 76 76 76 77 76 76 76 76 76 77 77 76 75 75 76 75 75 76 79 78 78 77 77 77 77
70 78 78 78 79 77 73 75 71 72 71 77 75 74 73 72 72 72 72 73 72 73 75 76 76 76 76 75 76 75 75 75 75 75 76 74 73 73 74 73 75 74 76 76 75 75 75 75 75
74 75 78 79 77 78 78 73 72 73 75 78 76 75 73 73 73 75 75 75 74 73 74 75 75 75 76 75 75 74 74 75 75 75 75 75 73 71 72 74 74 74 74 74 74 73 73 73 74
77 77 76 76 74 74 72 72 73 73 76 75 74 73 74 74 74 74 75 74 74 75 75 76 75 76 75 74 75 74 74 75 75 75 75 75 72 72 72 73 73 73 73 74 73 73 72 72 73
79 71 75 73 73 72 77 68 69 74 76 72 73 73 74 75 76 74 75 74 75 75 76 76 76 76 75 75 73 74 74 74 75 75 76 75 74 72 72 71 72 72 73 73 72 72 72 72 72
70 69 64 72 74 74 73 61 69 75 73 71 73 73 74 74 76 76 77 77 76 76 75 76 80 77 75 75 74 74 74 74 74 75 75 75 75 74 72 71 70 72 72 72 72 70 70 70 70
65 60 61 66 74 73 68 61 70 74 72 70 72 73 74 73 75 77 78 78 77 76 76 76 77 76 75 73 74 74 75 74 74 74 74 75 75 75 73 71 71 72 71 70 70 70 69 69 69
60 61 61 64 72 71 65 62 69 72 72 70 71 72 73 73 74 77 78 79 78 77 77 77 76 75 73 74 73 73 73 74 74 74 73 75 74 75 73 71 71 72 70 70 69 68 69 69 68
69 65 68 68 73 67 63 63 67 71 71 70 71 71 72 74 77 78 78 79 78 77 75 75 74 74 74 73 72 72 72 72 73 73 74 74 74 74 73 72 72 71 70 71 70 69 68 68 68
69 64 65 67 72 69 63 64 68 70 70 71 71 72 72 74 74 75 76 78 76 75 75 74 75 74 75 73 73 73 72 73 74 74 74 75 75 74 73 72 71 71 70 70 70 68 67 68 68
61 65 63 69 68 67 65 59 62 68 71 72 73 74 75 74 74 74 75 76 77 74 74 74 74 75 75 74 72 72 73 73 72 72 73 74 74 74 73 72 72 71 70 69 69 69 68 67 68
58 70 71 68 64 56 65 51 57 66 66 70 72 73 74 75 77 76 75 75 77 75 76 75 75 75 74 73 72 72 71 70 71 71 72 72 73 73 73 72 71 70 69 69 69 70 68 67 66
68 71 69 67 61 57 56 54 58 64 61 67 72 74 76 77 77 76 77 78 78 77 75 75 74 74 73 73 74 73 71 71 69 68 70 70 70 71 72 71 70 70 69 68 68 69 68 67 66
74 68 61 56 54 48 57 58 54 56 66 71 73 76 77 77 77 78 78 78 77 78 76 75 72 73 73 73 73 73 72 69 67 67 67 68 68 68 69 70 70 69 68 68 69 69 68 68 67
66 58 49 47 45 46 53 54 64 66 72 76 74 75 77 79 77 76 75 76 76 74 75 75 74 73 73 73 73 74 73 69 68 67 67 65 66 67 67 68 68 68 68 68 68 68 68 68 67
61 60 50 43 44 50 54 51 63 77 76 76 76 78 78 79 78 77 77 77 76 76 76 76 74 74 73 74 74 74 72 70 68 67 66 66 67 68 68 68 68 68 68 69 69 68 68 68 67
60 56 62 51 44 47 50 58 69 71 71 71 74 74 76 77 78 77 78 77 77 77 76 76 74 74 73 74 73 71 70 67 67 66 66 67 67 68 68 68 68 68 68 69 69 68 68 68 68
69 67 57 49 43 41 49 51 57 63 68 68 69 72 75 77 78 78 78 78 78 79 79 77 77 75 74 74 72 71 69 68 67 66 66 65 66 68 68 68 68 68 68 69 68 68 68 68 68
60 57 54 54 49 46 45 50 61 67 69 70 70 75 76 76 77 77 77 79 79 80 80 78 77 76 74 73 72 71 69 68 67 67 67 67 66 67 67 67 67 68 68 68 67 67 68 67 67
70 63 60 58 48 46 49 53 68 70 69 69 71 75 72 74 76 77 77 78 78 78 80 79 78 77 77 74 72 71 71 69 70 67 68 67 67 66 67 67 67 68 68 68 67 67 69 67 67

GFSSGP_sfc_temp_003.txt.gz
Temp
86 88 87 82 76 77 67 68 76 72 72 77 77 73 67 68 69 65 80 81 83 82 84 84 82 82 82 82 82 82 83 83 83 83 83 84 84 84 84 84 84 84 84 84 84 84 84 84 83
88 87 86 78 74 67 67 73 72 75 75 80 78 76 71 67 75 76 78 82 84 85 85 86 80 82 82 82 82 82 83 83 83 83 83 84 84 84 84 84 84 84 84 84 84 84 84 83 83
89 88 83 77 74 67 67 73 75 77 79 78 74 78 74 71 77 80 85 84 85 84 85 85 80 81 82 82 82 83 83 83 83 83 84 84 84 84 84 84 84 84 84 84 84 84 84 84 83
90 88 84 77 71 73 73 76 78 76 78 79 78 71 77 82 80 83 85 85 85 84 86 84 81 82 82 82 82 83 83 83 83 84 84 84 84 84 84 84 84 84 84 84 84 84 84 84 84
90 86 78 73 72 76 79 80 80 76 76 77 78 71 71 78 84 85 84 86 86 86 86 87 82 82 83 83 83 83 84 84 83 84 84 84 85 85 84 84 84 84 84 84 84 84 84 84 84
84 83 77 71 71 76 80 82 80 76 76 76 75 74 73 82 82 84 86 86 88 87 87 87 83 83 82 83 83 83 84 84 84 84 84 84 84 85 84 84 84 84 85 85 85 85 84 84 84
83 79 72 73 72 74 77 84 79 76 75 75 81 72 74 79 84 85 86 87 87 87 87 86 86 85 83 83 84 84 84 84 84 84 84 84 84 84 84 84 84 85 85 85 85 84 84 84 83
87 85 74 75 73 74 80 81 82 80 75 83 84 72 69 79 84 86 86 86 86 86 86 85 85 85 86 88 84 84 84 84 84 84 84 84 84 85 85 84 84 84 84 84 85 84 84 83 83
87 81 75 75 75 78 82 79 82 85 78 80 82 80 84 83 84 83 82 83 83 83 84 86 87 86 86 86 86 85 84 84 84 85 84 85 90 89 88 83 83 84 84 84 84 84 83 82 82
85 80 79 85 85 82 80 82 80 77 78 78 77 82 83 82 81 80 80 80 82 83 85 86 86 85 87 87 86 86 87 89 88 88 87 89 87 87 86 85 82 84 84 83 82 81 82 85 89
85 80 85 85 86 87 82 80 84 78 75 79 76 77 79 80 80 80 81 82 83 84 86 86 86 85 86 84 84 85 87 87 87 86 86 86 87 87 89 89 89 89 85 91 88 88 89 86 86
82 87 88 87 86 86 82 85 80 80 82 87 83 81 80 79 80 81 81 82 83 83 84 86 86 84 85 83 86 84 86 86 87 87 85 84 86 85 85 88 87 84 89 87 86 87 84 84 84
84 87 88 89 87 87 86 82 81 80 85 87 83 81 80 80 81 83 84 84 84 83 84 86 85 84 84 83 85 86 84 87 88 86 86 86 85 83 84 84 86 86 87 87 86 84 83 83 84
88 87 87 88 85 85 83 80 82 82 83 81 80 80 81 81 82 82 82 82 82 83 84 86 84 84 84 84 83 84 85 86 87 86 87 84 85 84 81 83 81 87 86 87 85 83 83 82 84
86 80 82 82 84 81 84 74 77 84 82 79 79 80 80 81 82 81 83 82 83 84 85 84 84 84 83 83 83 84 86 86 87 87 85 85 84 81 84 80 80 86 85 82 83 82 83 83 84
83 83 76 81 83 81 85 76 81 82 81 78 79 79 79 80 83 83 84 84 85 84 83 84 87 86 84 84 83 85 86 86 87 87 86 84 84 85 83 80 82 83 83 84 84 83 82 83 82
79 75 75 75 84 80 81 78 81 83 82 79 79 80 80 80 82 84 85 85 86 84 83 83 84 84 84 83 83 85 84 85 84 86 86 84 82 82 81 82 82 81 83 80 83 83 80 81 82
74 75 77 77 79 81 78 78 77 80 81 80 80 80 80 80 81 84 85 86 86 85 84 84 84 84 82 81 82 83 82 81 86 86 85 83 82 83 83 82 82 81 80 83 81 78 80 80 80
83 79 78 79 82 80 78 78 77 78 79 79 79 79 80 81 85 86 86 87 86 85 84 83 82 82 84 84 83 83 84 84 85 86 84 83 83 83 81 81 81 81 81 81 79 80 78 81 80
80 78 78 79 82 81 77 77 80 78 78 80 80 80 80 82 83 83 85 86 86 84 83 83 82 83 81 85 83 85 84 85 86 86 84 84 84 83 82 81 81 80 82 79 78 77 79 80 80
79 78 78 78 79 78 78 76 75 77 80 80 82 83 84 82 82 83 83 85 86 84 82 82 82 83 83 84 84 82 83 83 83 84 84 84 84 83 82 82 82 80 81 82 79 78 76 78 78
76 82 82 78 76 70 80 67 74 78 75 77 80 81 82 83 84 85 84 84 85 84 84 83 83 83 84 83 82 81 83 82 85 84 85 84 83 83 82 81 81 80 82 79 80 80 79 77 77
79 82 80 80 77 73 71 69 77 75 73 77 80 82 84 85 85 84 85 85 87 86 85 84 83 82 84 82 83 82 81 85 85 83 80 81 81 82 82 81 80 79 81 78 78 78 77 79 78
82 78 75 74 76 65 74 71 74 72 76 81 84 83 84 85 86 86 87 87 86 87 86 84 82 81 82 82 82 81 81 82 82 81 81 82 82 82 80 81 80 80 80 78 79 78 77 77 77
80 77 65 62 62 63 73 69 75 83 84 86 87 83 85 86 86 86 85 85 84 84 84 84 82 80 81 81 82 81 81 82 81 81 81 80 81 81 79 79 78 80 78 78 78 77 77 77 77
76 78 68 56 60 66 66 65 76 86 90 87 89 89 87 87 89 87 86 86 84 84 83 83 82 81 81 81 81 82 82 84 84 82 83 82 82 82 81 79 80 79 79 78 78 80 80 78 78
75 70 84 73 66 67 71 72 79 84 84 85 86 87 86 87 88 87 87 87 85 84 83 83 82 82 82 82 82 81 82 82 83 81 80 82 80 82 80 80 79 79 78 78 78 80 78 78 77
80 83 70 70 59 57 66 67 73 80 83 86 83 85 87 87 87 89 88 87 87 87 86 85 84 83 84 83 83 83 82 82 82 81 78 79 80 80 79 79 79 79 78 78 77 79 79 77 79
76 74 73 77 71 64 61 68 81 82 85 87 86 87 88 87 86 89 88 88 88 88 88 86 85 84 84 84 83 83 83 82 82 78 78 73 76 78 78 78 78 79 78 78 77 77 78 77 77
84 78 77 70 63 68 69 71 87 84 88 89 90 89 89 87 86 87 87 87 88 87 88 88 87 87 86 85 83 82 82 76 76 78 73 75 73 77 78 78 78 78 79 79 77 77 79 77 77

GFSSGP_sfc_temp_009.txt.gz
Temp
86 92 91 81 66 66 68 76 82 79 79 84 85 80 74 78 72 67 83 87 92 91 91 88 82 83 82 83 83 83 83 83 83 84 84 84 84 84 84 84 84 85 85 85 85 85 84 84 84
98 97 91 92 81 57 67 77 70 83 82 86 89 86 82 74 88 82 84 90 92 95 95 92 81 82 82 83 83 84 84 84 84 84 84 84 85 85 85 85 85 85 85 85 85 85 85 84 84
102 103 81 84 74 71 73 81 86 89 92 88 87 89 82 80 90 88 94 95 94 91 92 88 83 83 83 83 84 84 84 84 84 84 84 85 85 85 85 85 85 85 85 85 85 85 85 85 85
100 99 97 89 82 86 82 88 90 89 92 93 90 83 91 97 90 95 98 95 93 92 93 86 83 84 84 83 83 84 84 84 84 84 85 85 85 85 85 85 85 85 85 85 85 85 85 85 85
103 99 88 84 84 89 91 93 93 87 90 91 92 83 85 94 98 98 98 95 92 95 95 91 83 84 84 84 83 84 84 84 84 84 85 85 85 86 85 85 85 85 85 85 85 85 85 85 84
89 99 84 83 84 89 93 95 94 92 92 91 88 85 85 96 95 97 98 94 94 93 96 92 84 84 84 84 84 84 84 84 84 84 85 85 85 85 85 86 85 85 85 85 86 86 85 85 84
93 85 83 88 85 87 90 97 94 92 90 90 93 84 88 93 97 97 95 94 94 97 95 94 92 87 84 84 84 84 84 84 84 85 85 85 85 85 85 86 86 85 85 86 86 85 85 85 84
101 91 89 86 85 85 94 96 97 94 91 99 99 84 82 92 99 97 94 94 93 96 97 94 93 92 91 90 84 85 85 85 85 85 85 85 85 86 86 86 85 85 85 85 85 85 84 84 84
106 81 86 87 79 90 97 94 97 101 94 95 96 95 95 97 100 96 91 91 90 91 95 98 97 89 92 91 89 85 85 85 85 86 85 86 88 87 91 87 85 85 85 85 85 85 85 85 84
97 68 85 98 89 94 95 96 95 93 91 91 92 98 96 96 96 94 91 91 93 91 91 94 90 94 93 97 89 90 92 93 93 93 90 93 92 92 94 90 85 85 85 85 85 85 85 85 87
99 82 93 98 100 98 97 96 99 94 88 92 90 91 93 94 94 94 93 96 96 97 97 95 89 88 94 88 94 95 95 96 95 94 94 95 95 94 91 81 87 92 87 84 86 85 85 93 94
94 98 99 100 101 99 96 100 95 95 96 99 97 96 94 92 94 95 95 96 97 94 96 95 93 88 90 90 96 97 97 98 97 95 92 90 93 92 93 85 85 87 85 92 89 88 93 92 92
96 98 100 102 102 101 101 96 95 95 100 101 99 96 93 94 94 97 98 99 98 96 97 97 95 92 92 91 96 96 96 98 98 97 94 94 95 88 90 88 93 92 90 85 89 87 91 91 88
101 100 100 101 102 101 97 97 96 97 101 98 96 94 95 95 95 95 96 96 97 96 96 98 95 92 90 92 92 93 95 92 97 97 97 91 93 85 92 86 85 88 92 86 90 86 89 85 85
101 94 98 98 100 97 100 92 91 99 99 96 95 94 95 95 97 95 96 96 96 97 97 96 95 94 91 90 91 92 95 97 96 97 95 93 92 91 89 89 90 93 88 90 86 84 88 81 95
95 95 88 98 99 99 97 84 94 100 97 95 95 94 94 95 97 97 97 97 97 96 94 95 98 96 93 90 91 94 95 91 92 92 86 92 91 89 89 90 87 87 92 86 89 86 79 92 92
92 84 87 89 99 96 94 79 95 99 98 95 95 95 95 94 96 97 98 97 98 96 94 93 95 95 93 90 93 93 93 94 87 92 95 84 88 89 90 91 88 90 86 90 88 89 82 89 90
83 85 90 86 94 95 91 84 95 98 97 96 95 96 94 95 95 97 98 98 98 96 95 93 94 93 93 92 89 94 94 94 94 94 96 93 91 90 90 90 90 88 88 89 78 84 88 87 87
92 90 88 94 97 93 90 91 93 96 97 96 95 95 95 95 98 99 98 99 98 96 93 92 90 90 91 90 83 89 91 92 94 96 88 90 90 90 88 89 87 89 87 83 87 87 86 87 89
91 89 89 94 93 94 91 89 96 95 95 97 96 96 96 97 98 97 97 98 97 95 93 91 90 89 89 90 88 92 88 93 96 95 93 92 86 90 88 88 91 90 90 87 85 83 84 88 88
90 88 89 89 91 94 92 85 90 97 97 97 99 100 99 98 98 96 95 96 97 94 93 91 90 89 89 88 89 90 90 93 92 94 92 93 90 90 89 88 87 88 87 90 85 85 83 83 87
84 94 93 92 83 78 92 76 87 94 94 95 97 99 100 99 100 99 96 95 97 95 95 93 91 90 90 89 90 86 87 88 93 94 96 94 90 91 91 89 89 86 88 86 86 86 83 82 84
87 96 93 92 88 81 86 81 82 93 91 94 97 98 101 101 101 99 98 97 98 97 96 94 91 89 90 88 87 90 86 93 95 96 93 92 90 91 92 90 88 86 87 85 84 84 81 85 83
95 92 92 92 89 76 84 79 83 82 92 96 100 100 100 102 102 101 101 99 97 99 97 95 90 88 89 89 87 86 87 88 93 92 92 92 92 91 90 89 87 86 86 86 85 83 83 81 82
91 86 74 73 74 73 88 82 79 95 98 99 100 102 103 103 103 101 99 98 97 96 96 95 91 87 89 89 88 88 88 89 88 90 91 91 92 93 88 88 85 86 85 86 85 83 82 82 82
86 86 76 63 70 76 86 78 86 99 103 104 104 106 107 104 104 103 100 99 97 96 95 94 91 88 89 89 88 88 88 91 92 90 93 92 93 94 89 87 87 86 86 85 84 84 84 84 83
86 81 92 82 84 78 82 87 95 98 99 101 102 104 104 105 104 103 102 100 98 96 95 93 92 89 90 90 89 88 88 88 91 90 90 93 91 94 91 88 86 86 86 85 83 83 83 82 83
88 94 81 84 67 66 77 80 82 89 92 97 98 101 104 106 104 104 103 101 100 99 97 96 94 91 91 91 91 90 89 89 90 91 90 90 91 90 89 87 86 85 85 84 82 83 83 81 83
84 83 87 86 82 72 70 78 95 92 94 95 99 102 105 105 104 105 104 103 101 101 99 97 95 93 92 92 91 91 90 90 90 90 90 90 90 89 88 85 85 84 82 82 81 81 83 82 80
90 85 86 79 73 80 80 80 98 99 99 99 99 102 105 106 106 106 106 104 102 101 100 98 97 95 94 94 92 91 91 91 90 89 90 89 87 88 86 85 83 84 80 75 81 80 82 81 80

GFSSGP_sfc_temp_012.txt.gz
Temp
83 87 91 77 64 69 61 70 74 71 78 87 82 80 76 75 73 62 83 85 86 86 85 84 82 83 83 82 83 83 83 83 83 84 84 84 84 84 84 84 84 84 84 84 84 84 84 84 84
92 91 82 68 59 57 67 74 71 81 83 87 84 82 81 72 81 79 79 87 90 89 88 86 82 83 83 83 83 83 84 84 84 84 84 84 84 84 84 84 84 84 84 84 84 84 84 84 84
95 95 77 72 69 57 70 75 78 84 88 86 75 82 84 76 82 82 87 91 91 89 88 84 82 83 83 83 83 84 84 84 84 84 84 84 84 85 85 85 85 85 85 85 85 85 85 84 84
90 73 81 68 68 79 80 87 90 85 86 90 86 80 88 92 88 91 92 92 93 91 89 84 83 83 83 83 83 84 84 84 84 84 85 85 85 85 85 85 85 85 85 85 85 85 85 85 84
84 77 72 81 82 82 91 91 88 86 86 86 88 78 80 91 95 94 93 94 91 91 88 86 83 83 83 83 84 84 84 84 84 84 85 85 85 85 85 85 85 85 85 85 85 86 85 84 84
76 80 71 79 82 89 92 94 90 87 86 87 84 79 79 94 92 93 93 91 93 92 90 86 84 83 83 84 84 84 84 84 84 84 85 85 86 86 86 86 86 86 86 86 86 85 85 84 84
66 73 81 83 84 86 91 98 91 90 86 86 88 77 84 90 94 94 93 94 94 94 90 87 86 84 84 84 84 84 84 84 84 85 85 85 85 86 86 86 86 86 86 86 85 85 85 84 84
78 85 77 87 83 83 93 96 97 94 85 97 90 79 78 90 94 95 95 90 92 94 91 88 87 86 85 85 84 84 84 84 85 85 85 85 85 86 86 86 85 85 85 85 85 85 85 84 84
102 83 77 83 85 88 96 92 99 100 94 93 92 91 92 96 94 90 89 89 87 91 91 92 90 87 85 86 86 84 84 85 85 85 85 85 86 87 87 86 85 86 86 85 85 86 85 85 84
92 74 80 82 91 91 96 94 94 92 91 92 91 95 96 96 91 88 87 87 88 88 91 90 89 89 88 91 84 85 87 87 86 87 85 85 76 84 89 87 86 86 85 80 84 84 85 83 87
88 74 88 91 95 94 95 94 97 91 87 91 86 89 93 94 89 86 89 89 90 91 92 91 90 88 90 85 86 87 88 88 88 87 84 87 82 88 76 77 76 77 79 74 82 84 81 84 87
92 94 95 97 99 96 95 98 94 94 92 97 95 93 93 93 92 91 89 92 92 90 91 91 91 86 86 86 88 89 90 90 90 89 88 87 87 84 78 74 77 75 77 75 81 81 86 86 83
95 95 100 102 101 100 98 95 94 95 99 100 97 93 91 93 94 95 96 97 95 92 92 90 89 85 86 86 88 86 89 90 88 87 88 88 87 82 76 84 86 81 78 86 84 83 84 84 84
99 99 99 102 101 101 95 95 96 96 100 97 95 92 92 93 95 95 96 95 94 93 92 91 89 87 84 86 88 88 87 88 89 87 87 88 88 84 86 86 84 82 82 86 83 83 83 83 84
99 93 97 98 99 98 100 90 91 97 99 95 93 92 93 93 95 94 96 95 96 95 94 91 90 89 87 88 88 89 86 92 88 88 85 87 86 87 86 84 83 82 82 85 81 82 81 79 84
92 93 85 96 98 99 96 80 94 98 96 93 93 92 92 93 95 96 97 97 96 94 91 91 96 90 87 87 87 88 88 85 84 90 84 88 88 87 86 83 76 80 80 81 79 81 81 78 81
88 80 84 89 99 96 93 80 87 99 96 93 92 92 93 93 94 95 97 97 96 94 90 90 92 90 87 86 87 87 86 84 83 86 87 83 82 86 83 85 79 83 83 83 82 81 78 79 80
79 82 86 86 93 95 81 72 78 89 93 93 93 93 92 92 94 95 97 97 97 94 91 89 91 90 86 86 84 87 88 84 84 88 83 81 83 85 82 85 85 85 84 79 80 77 79 79 78
88 87 86 91 94 92 79 67 65 81 89 94 93 93 93 93 96 97 97 98 96 93 90 88 87 87 88 86 84 85 84 84 87 86 87 84 87 87 86 84 83 82 81 78 80 81 78 79 79
87 85 86 92 93 92 88 73 75 84 91 95 94 94 94 95 96 95 95 97 96 92 89 87 86 86 86 86 84 85 85 86 85 87 84 86 86 85 84 82 81 81 81 80 79 79 76 77 79
85 84 85 87 92 94 90 85 84 92 96 97 98 98 97 96 95 93 94 94 95 91 88 87 85 85 85 86 84 82 80 85 83 86 85 86 86 84 80 83 83 82 82 79 79 79 79 74 77
80 91 90 89 85 77 89 71 76 84 90 93 96 97 97 97 97 96 95 93 95 92 91 88 86 85 86 85 84 82 83 82 85 83 86 86 86 86 86 84 83 81 80 79 79 80 77 77 73
85 93 90 89 84 82 82 77 82 87 85 90 95 97 99 99 99 97 95 94 95 95 92 89 86 85 85 84 84 83 83 85 86 87 87 82 82 85 85 84 83 80 80 80 80 78 77 77 75
95 90 89 89 86 73 80 77 78 84 83 88 95 98 99 100 100 98 98 96 94 96 93 90 85 84 85 84 83 83 81 82 85 85 84 85 85 85 86 84 81 80 80 79 79 79 80 77 76
90 84 72 70 72 71 85 78 79 90 92 94 80 86 100 101 101 98 97 94 93 92 91 90 86 83 84 85 83 83 83 82 83 85 85 84 84 84 82 82 80 80 80 81 79 77 78 77 76
85 84 75 61 67 73 85 77 84 93 96 94 87 80 102 102 103 101 98 96 92 92 91 90 86 83 85 85 83 83 84 86 86 86 86 86 85 86 82 82 81 81 79 79 78 78 77 77 76
84 79 89 78 81 75 81 85 94 97 92 93 97 102 102 102 102 101 99 98 94 92 91 89 86 85 85 86 84 83 83 84 86 85 85 87 84 88 82 82 81 81 79 79 78 77 75 78 77
88 91 77 79 64 63 75 77 80 88 89 94 94 97 102 104 102 102 101 99 97 96 94 92 89 86 86 86 86 86 85 84 85 84 84 84 85 85 82 82 82 80 79 77 76 75 77 75 76
83 81 82 84 79 70 68 75 93 89 92 91 94 99 102 103 103 103 102 101 98 97 94 93 91 87 86 86 86 86 86 86 85 85 85 84 84 83 82 81 80 80 79 78 76 75 76 75 74
89 83 82 73 69 78 76 78 98 95 97 98 98 100 102 101 102 104 104 102 99 96 95 94 93 91 89 87 86 86 86 86 85 84 85 85 84 84 82 82 80 80 78 78 75 75 77 76 74

GFSSGP_sfc_temp_015.txt.gz
Temp
81 82 84 74 62 61 59 64 72 73 74 78 81 76 71 72 70 59 74 78 79 78 80 81 82 83 83 82 82 83 83 83 83 83 83 83 83 83 83 84 84 84 84 84 84 84 84 84 84
82 83 74 66 60 55 60 70 69 76 79 81 81 77 73 67 76 72 73 81 82 80 80 80 81 82 83 83 83 83 84 83 83 83 83 83 83 84 84 84 84 84 84 84 84 84 84 84 84
86 86 69 62 60 58 61 73 77 80 81 81 78 82 75 69 77 76 82 84 83 81 81 81 82 83 83 83 83 83 83 83 83 83 84 84 84 84 84 84 84 84 84 85 85 85 84 84 84
82 72 71 62 61 70 73 77 80 78 82 84 82 72 79 83 80 82 86 86 83 80 80 82 83 83 83 83 83 83 83 83 83 84 84 84 84 85 85 85 85 85 85 85 85 85 84 84 84
77 70 62 61 70 76 81 80 84 80 81 80 80 73 74 83 86 85 86 86 82 80 81 82 83 83 83 83 83 83 83 83 83 84 84 84 85 85 85 85 85 85 85 85 85 85 84 84 84
68 68 63 66 75 84 84 84 81 81 81 80 78 75 74 85 85 86 88 86 84 81 81 82 83 83 83 84 83 83 83 83 83 84 84 85 85 85 85 85 85 85 85 85 85 85 84 84 84
70 67 67 67 76 80 82 86 81 81 79 78 83 71 76 82 86 89 87 87 84 84 81 80 81 83 84 83 83 83 83 84 84 84 84 84 85 85 85 85 85 85 85 85 85 85 84 84 84
75 76 63 68 71 75 86 86 88 84 79 87 86 72 70 81 87 88 88 88 85 83 81 80 79 79 79 81 84 84 84 84 84 84 84 84 85 85 86 84 84 85 85 85 85 85 85 84 84
89 70 61 68 75 82 85 83 89 91 84 84 87 83 85 88 88 85 82 81 82 83 81 81 80 78 77 78 82 83 84 84 84 84 84 83 79 80 81 79 84 85 85 84 83 84 84 84 84
81 70 72 82 85 83 88 85 85 85 82 81 84 88 87 88 85 81 80 79 81 80 81 82 81 80 80 84 78 77 80 78 77 78 78 78 76 76 82 80 84 85 83 81 82 82 85 84 80
81 72 84 86 89 89 87 87 90 83 77 81 79 82 84 84 83 81 82 83 81 83 85 83 82 82 81 82 78 78 77 77 78 79 78 77 78 76 74 74 75 74 79 72 77 78 79 80 80
76 87 89 88 91 88 87 89 86 87 84 89 87 87 83 82 83 82 82 83 83 83 85 84 83 82 80 80 79 80 80 79 78 79 79 78 74 73 73 73 74 73 73 73 74 74 78 79 80
84 87 91 91 90 89 92 89 87 87 89 91 90 88 83 82 83 85 85 86 85 83 85 84 83 81 81 80 80 81 81 82 82 82 80 80 77 72 73 72 73 72 71 74 75 76 80 78 79
89 90 91 92 87 91 87 86 89 88 90 88 88 86 86 82 83 84 85 85 85 84 84 84 81 81 80 79 79 81 84 85 82 83 82 81 78 77 75 76 76 75 76 80 79 78 76 79 77
89 83 88 91 88 88 88 77 76 90 91 86 85 86 87 86 87 86 86 86 85 85 85 83 82 82 80 79 79 81 79 82 81 80 81 81 81 78 77 76 75 76 78 77 76 79 76 76 80
81 78 70 85 89 91 82 67 83 90 87 83 85 85 86 85 86 88 88 88 88 86 83 83 88 83 80 79 79 80 80 79 79 81 81 81 80 80 78 75 73 77 76 75 75 76 74 74 73
72 66 71 78 92 88 78 67 85 90 86 83 84 85 85 85 85 86 88 88 88 85 83 83 85 83 81 79 79 79 80 79 79 79 79 81 80 80 77 76 75 77 74 75 75 74 74 72 72
64 67 73 75 84 86 75 70 77 86 86 84 84 85 85 85 85 88 89 88 89 85 85 85 83 83 81 79 77 78 78 78 80 80 79 79 79 80 76 76 75 76 75 74 74 75 74 72 71
77 75 75 81 88 76 73 73 76 83 80 80 83 83 84 85 88 89 90 90 87 85 84 83 80 81 81 79 76 74 74 76 77 81 80 78 78 78 77 76 76 79 74 75 77 72 70 70 71
77 74 74 82 88 77 73 74 80 83 83 81 84 84 85 85 87 87 89 90 87 84 84 81 81 79 82 81 79 77 77 78 79 78 79 78 80 79 78 76 75 76 74 72 72 71 68 69 72
75 72 74 75 85 80 74 67 68 79 82 83 86 88 87 86 86 86 87 88 88 84 82 82 82 79 81 80 79 76 76 76 76 78 79 81 81 79 77 77 75 75 73 72 72 71 69 67 70
69 81 81 80 77 66 79 59 63 73 75 78 82 87 87 88 88 88 88 87 88 84 84 83 82 81 80 79 79 75 74 72 75 79 80 80 79 78 78 77 76 75 73 71 71 72 69 68 67
76 83 81 80 76 70 76 65 67 72 67 72 80 88 89 89 89 87 87 89 89 87 85 82 82 82 82 79 80 77 74 78 78 76 79 76 76 79 79 77 76 74 72 71 72 71 69 69 67
86 80 78 78 74 63 70 70 64 65 68 71 83 89 90 90 91 89 90 90 89 88 85 83 81 81 81 81 77 77 77 76 76 75 74 78 79 76 77 77 75 74 72 71 71 71 70 68 68
80 66 61 58 59 56 68 69 71 81 81 85 86 83 88 87 91 90 88 87 88 85 85 82 81 79 80 80 80 77 78 77 75 74 76 77 77 74 75 76 74 73 72 72 72 74 70 69 68
74 72 62 48 54 59 68 66 72 87 88 91 90 85 87 90 93 91 88 89 87 87 85 83 81 80 81 80 79 80 77 81 80 77 76 79 80 80 77 77 76 74 74 74 72 70 70 70 68
71 68 76 59 62 56 64 70 79 87 85 88 88 88 89 91 94 92 91 90 87 87 84 84 81 81 81 81 80 80 80 79 80 77 77 77 79 79 78 77 76 76 74 72 72 70 69 69 69
78 76 64 69 53 53 64 63 66 71 80 80 81 84 87 88 90 93 92 90 88 89 87 86 83 81 82 82 81 80 81 81 82 76 78 77 78 77 78 76 77 75 75 72 71 69 70 68 68
74 71 67 66 66 57 53 63 73 76 81 80 84 88 87 90 90 94 93 92 89 90 88 86 83 82 82 82 82 81 81 81 81 78 77 77 78 76 77 77 76 76 74 73 70 69 69 69 68
81 70 68 61 52 58 62 64 81 84 83 87 88 89 91 87 94 95 94 93 89 88 88 86 84 83 83 83 82 82 81 81 80 81 79 77 79 77 78 78 76 76 76 74 72 70 72 68 68

GFSSGP_sfc_temp_018.txt.gz
Temp
81 82 81 73 62 60 58 65 71 69 71 76 78 73 67 68 67 58 72 75 77 77 78 79 82 83 83 82 82 82 83 83 83 83 83 83 83 83 83 83 83 84 84 84 84 84 84 83 83
81 81 75 66 58 54 58 69 68 73 76 77 78 75 71 66 72 69 70 77 78 78 78 78 81 82 83 82 82 83 83 83 83 83 83 83 83 83 84 84 84 84 84 84 84 84 84 84 83
84 80 65 60 58 55 59 70 72 77 79 79 75 78 73 66 72 72 77 79 79 78 78 80 82 82 83 83 83 83 83 83 83 83 83 83 83 84 84 84 84 84 84 84 84 84 84 84 84
79 71 67 61 60 67 72 74 74 75 80 80 77 68 75 80 76 78 80 80 77 78 79 82 83 83 83 83 83 83 83 83 83 83 83 84 84 84 84 84 84 84 84 84 84 84 84 84 83
76 70 62 60 66 73 75 77 78 75 76 76 77 68 69 79 82 81 80 81 77 76 79 81 83 83 83 83 83 83 83 83 83 83 84 84 84 84 84 84 84 84 84 84 84 84 84 84 84
67 69 62 60 68 77 77 79 80 77 76 74 72 70 69 80 80 82 82 79 79 77 79 81 83 83 83 83 83 83 83 83 83 83 84 84 84 84 84 84 85 85 85 85 84 84 84 84 83
66 64 61 66 69 71 76 83 78 75 74 74 78 67 71 76 82 83 82 80 79 79 78 79 80 82 84 83 83 83 83 83 83 84 84 84 84 84 84 85 84 85 85 85 85 84 84 84 84
73 70 65 66 68 70 80 81 81 78 76 83 80 67 66 77 84 84 80 79 78 78 78 76 76 78 78 80 84 84 83 83 84 84 84 84 84 85 85 84 83 85 85 85 84 84 83 83 83
81 66 60 64 70 74 81 77 83 85 79 80 83 78 79 83 85 81 78 77 76 78 77 77 76 75 76 77 81 83 84 84 84 83 84 82 78 78 81 82 83 85 85 82 83 83 84 84 84
72 62 71 76 76 79 81 81 80 78 77 77 76 81 83 84 81 79 76 74 74 75 76 77 76 76 76 82 77 76 78 77 77 77 76 76 75 75 80 81 84 85 83 82 82 84 84 82 78
76 69 80 87 83 85 82 80 82 76 72 75 73 76 80 81 80 78 78 76 76 77 77 77 77 77 77 78 75 74 75 74 74 75 75 75 75 75 74 73 74 74 79 72 78 77 77 78 79
73 81 83 85 89 84 81 82 79 79 79 83 81 81 80 79 79 78 78 78 78 77 78 78 78 78 77 77 76 76 76 74 73 75 75 74 72 72 73 72 73 72 72 73 74 73 77 76 78
76 81 87 90 88 85 86 82 80 80 85 86 83 82 80 79 80 82 82 82 81 78 80 79 79 78 78 77 77 74 75 76 77 76 76 75 73 71 72 72 73 73 71 73 73 75 76 77 77
81 82 84 87 87 88 83 84 84 83 86 82 81 80 80 80 80 81 81 81 80 81 80 81 80 79 80 78 74 76 77 77 77 81 80 79 74 72 71 71 72 72 72 73 73 74 75 77 75
82 76 82 83 87 84 87 76 77 83 84 79 79 80 80 81 82 80 82 82 81 82 82 80 80 80 79 78 78 79 81 81 82 82 79 78 75 75 73 73 72 73 73 75 73 75 75 74 75
74 69 65 78 83 83 81 67 80 84 82 79 79 80 80 80 82 83 84 84 83 82 81 81 84 81 79 79 78 78 80 76 77 80 77 78 78 77 75 73 73 74 74 74 73 73 72 72 71
64 60 65 72 84 82 74 66 79 84 81 79 80 79 80 79 81 83 85 85 84 83 82 81 82 81 78 76 78 77 78 76 76 76 77 77 78 78 75 74 74 73 74 74 73 73 73 72 70
59 60 65 67 77 77 70 67 79 82 80 79 80 81 82 80 81 85 85 87 85 84 82 81 82 81 79 78 75 76 75 75 75 76 77 77 77 78 74 75 74 73 72 72 72 71 71 69 68
69 66 66 74 80 71 73 72 78 80 79 78 78 79 80 83 85 86 85 86 85 83 81 80 80 80 79 76 73 72 72 74 74 76 77 77 76 77 75 74 73 74 72 71 72 70 68 68 68
71 67 67 74 79 73 69 73 77 79 79 79 79 79 80 82 84 83 84 85 83 82 80 80 80 79 79 80 79 75 73 74 76 75 76 77 77 76 76 74 73 73 71 71 70 69 65 66 67
69 67 69 67 75 71 72 68 72 77 78 81 82 82 83 82 82 83 84 83 84 81 80 80 80 80 80 80 76 73 73 74 73 74 74 76 79 78 76 74 73 72 71 70 70 68 67 66 67
58 75 76 73 65 59 70 54 66 71 71 78 80 81 82 83 85 84 85 84 83 82 82 81 79 80 80 79 78 76 77 73 73 74 75 76 78 77 76 75 74 72 71 70 70 70 67 66 65
68 75 74 74 67 58 66 57 62 69 69 73 77 81 83 84 85 84 85 87 86 85 82 82 79 78 80 79 80 78 76 77 73 73 74 75 75 76 77 75 73 71 70 70 69 68 67 67 66
80 71 70 65 66 53 64 64 59 61 72 77 82 82 84 85 86 86 87 88 86 86 84 82 80 78 78 79 79 78 77 74 72 72 72 73 75 76 76 75 74 72 70 69 68 68 67 67 66
71 59 52 51 52 53 64 59 65 74 78 83 84 80 84 87 86 86 84 85 85 84 83 81 79 79 78 78 78 78 77 76 74 73 74 72 74 72 73 73 72 72 70 69 69 68 67 66 66
64 64 55 45 45 51 61 55 68 77 83 84 87 82 85 87 88 87 86 86 86 85 82 81 79 79 79 78 78 78 78 78 77 74 74 75 78 79 76 75 75 71 71 69 69 68 67 67 66
66 58 69 54 48 49 55 63 71 76 79 82 82 82 85 87 88 89 87 87 86 85 82 81 79 80 80 79 79 78 78 79 78 73 74 75 78 78 75 76 75 73 71 70 69 67 67 67 66
69 70 57 50 48 49 52 57 60 68 72 78 80 82 86 89 91 92 90 88 87 87 84 83 81 81 80 80 80 80 79 79 79 75 74 75 76 77 75 75 75 73 72 70 69 67 67 66 66
66 64 55 60 54 53 45 60 69 70 72 74 82 86 87 89 87 89 90 89 88 88 84 82 81 81 80 80 81 80 79 80 78 77 76 77 76 76 76 75 75 74 72 71 69 67 67 66 66
76 68 62 58 50 53 62 63 74 75 77 77 83 85 88 90 88 88 90 90 88 86 85 83 81 82 82 81 80 80 79 79 79 79 77 76 77 76 76 76 75 74 74 72 71 68 70 67 65

GFSSGP_sfc_temp_024.txt.gz
Temp
80 80 77 71 60 58 55 62 70 66 67 71 74 70 66 65 65 57 71 74 76 75 76 79 81 83 83 82 82 82 83 83 82 83 83 83 83 83 83 83 83 83 83 82 83 83 83 83 83
79 78 73 65 57 51 54 64 64 69 71 74 73 71 67 63 69 67 69 75 77 76 75 77 80 82 83 82 82 83 83 83 83 83 83 83 83 83 83 83 83 83 83 83 82 83 83 82 83
79 80 65 61 57 54 56 65 67 71 75 75 70 73 70 65 69 70 74 76 77 75 75 77 82 82 83 83 83 83 83 83 83 83 83 83 83 83 83 83 83 83 83 83 83 83 83 83 83
76 71 67 60 58 64 65 68 72 70 74 74 71 64 70 75 72 73 77 77 74 75 76 80 83 83 83 83 83 83 83 83 83 83 83 83 83 83 83 83 83 83 83 84 83 83 83 84 84
75 67 61 60 63 68 70 74 74 70 72 72 72 63 64 73 76 76 76 76 74 73 75 80 82 83 83 83 83 83 83 83 83 83 83 83 84 84 84 83 83 84 84 84 84 84 84 84 84
66 65 56 56 64 73 74 75 73 71 70 69 67 65 65 73 73 75 77 75 76 75 76 78 82 83 83 83 83 83 83 83 83 83 83 83 84 84 84 84 84 84 84 84 84 83 84 84 83
65 62 58 59 64 67 71 76 70 69 70 69 74 63 66 70 74 76 75 75 76 76 75 76 79 81 83 83 83 83 83 83 83 83 83 83 83 84 84 84 84 84 85 85 84 84 84 84 83
67 63 61 60 62 64 72 74 74 72 70 78 75 62 63 70 75 75 75 74 74 75 76 74 75 77 77 79 83 83 83 83 83 83 83 83 84 84 84 83 83 84 84 84 84 84 84 84 83
74 58 55 60 64 67 73 70 77 79 73 75 76 72 74 75 76 72 71 71 72 74 73 74 74 74 75 76 79 83 83 83 83 83 83 82 78 78 81 82 83 84 84 83 84 84 84 83 82
65 57 62 71 71 70 74 73 74 72 71 71 72 75 75 75 72 69 69 69 70 71 72 73 73 74 75 79 76 76 78 78 77 78 78 78 77 76 80 81 83 84 83 83 82 83 83 81 80
67 61 70 75 78 77 73 74 76 71 66 70 67 69 73 72 71 70 70 71 71 72 74 74 74 74 75 76 74 74 75 75 76 76 76 76 76 74 76 76 75 76 78 74 78 77 79 79 78
63 72 74 76 79 76 73 76 73 74 72 78 74 74 73 71 70 70 70 71 71 72 73 74 74 74 74 74 74 74 74 74 74 74 74 74 74 74 74 73 74 74 74 74 75 75 77 78 78
67 71 76 82 81 77 78 75 75 73 78 79 77 74 73 72 71 73 74 74 73 72 73 74 74 74 74 73 73 73 73 73 73 73 74 74 74 73 74 73 73 74 74 75 75 75 77 77 78
72 74 76 77 75 78 74 75 76 76 78 76 74 73 73 73 73 73 73 73 73 73 74 74 74 74 74 73 72 73 72 73 73 73 74 75 73 73 73 73 73 73 73 74 74 75 76 77 76
73 69 72 74 75 77 79 68 71 76 77 73 73 73 73 74 75 74 75 74 74 75 75 74 74 75 73 73 72 72 73 74 73 74 75 76 74 74 74 73 73 74 74 75 75 76 76 76 76
65 63 59 70 74 77 76 64 74 76 74 72 73 73 74 74 75 77 77 76 77 76 74 75 78 76 74 73 72 73 73 73 74 74 76 77 76 75 74 73 73 75 74 74 74 74 74 74 73
57 55 59 65 75 73 71 64 74 77 73 71 72 73 74 74 75 77 78 78 78 76 75 74 76 75 74 73 72 73 73 74 75 75 75 76 76 76 73 74 75 74 74 74 75 74 73 73 72
53 55 57 61 69 69 67 64 70 74 73 71 72 73 73 73 74 78 78 79 79 77 76 76 76 75 74 74 73 73 73 74 74 74 75 75 76 76 74 75 74 74 74 74 73 73 72 71 71
62 59 60 65 71 67 67 66 67 73 73 71 72 72 73 74 77 79 79 80 79 77 76 75 75 75 74 73 71 71 73 73 73 74 75 75 75 76 75 74 74 74 73 74 74 72 72 70 69
62 60 59 64 71 66 64 66 67 71 71 73 73 72 73 75 76 77 78 79 79 77 76 75 75 75 75 75 75 74 74 73 75 75 75 76 76 76 76 74 74 74 74 73 72 72 69 69 69
56 58 59 60 65 64 62 59 62 71 72 74 75 76 76 75 75 76 77 78 80 76 76 75 75 76 76 76 75 72 72 72 73 73 74 75 76 76 76 74 74 74 74 73 71 71 70 69 69
50 64 67 65 59 53 62 49 58 64 68 71 73 74 75 76 78 77 78 77 79 78 78 77 76 76 76 76 75 74 74 74 74 74 74 75 76 76 76 75 74 74 73 71 71 71 70 69 69
62 67 65 64 58 52 56 52 56 62 62 67 73 75 76 78 78 78 78 80 80 81 79 78 76 76 76 76 76 75 75 76 73 73 74 73 74 75 76 75 74 74 73 72 71 70 69 69 69
69 63 58 54 52 46 55 56 52 56 65 69 74 76 78 79 80 80 81 81 80 82 80 78 75 75 76 75 76 74 75 73 72 71 73 73 74 74 75 75 75 74 72 72 71 70 69 69 69
62 54 43 42 43 48 55 53 64 64 72 73 74 76 79 80 80 80 80 79 80 78 78 77 75 74 76 75 75 76 75 74 73 73 74 72 73 73 73 74 74 73 72 72 70 69 69 69 69
56 53 42 37 38 47 52 50 57 73 73 79 80 81 81 80 81 82 82 80 80 79 78 77 75 74 76 75 75 76 76 77 77 75 76 75 75 76 75 75 75 74 72 72 70 70 69 69 69
55 55 58 46 40 43 48 55 65 69 71 72 76 79 78 81 81 82 83 82 80 80 78 77 76 75 76 76 76 75 76 76 76 75 75 76 75 77 75 75 75 74 72 72 70 70 69 69 69
62 62 51 43 39 37 45 49 55 60 68 70 70 74 78 81 82 83 83 84 83 83 81 79 78 76 77 77 77 77 77 77 77 76 74 74 75 76 75 75 75 73 72 71 70 69 69 69 69
56 55 49 53 46 42 39 49 60 65 66 71 73 76 79 81 81 83 84 85 84 85 82 80 79 77 77 77 77 77 77 77 77 76 75 75 75 74 75 75 74 73 72 71 70 69 69 69 68
71 62 53 52 46 44 44 53 67 68 74 70 72 75 76 78 80 83 85 85 85 83 84 80 80 79 79 78 77 77 77 77 76 76 76 75 74 75 75 75 74 74 72 72 71 70 71 69 68

GFSSGP_sfc_temp_027.txt.gz
Temp
82 84 81 74 62 63 60 65 74 72 73 78 81 76 74 70 66 62 74 79 82 82 79 81 81 82 83 82 83 83 83 83 83 83 83 83 83 83 83 83 83 83 83 83 83 83 83 83 83
84 81 75 72 62 63 64 71 71 75 76 79 78 75 72 64 70 69 71 81 83 83 84 86 81 82 82 82 83 83 83 83 83 83 83 83 83 83 83 83 83 83 83 83 83 83 83 83 83
82 81 71 67 67 64 66 71 75 76 79 78 74 77 74 67 73 74 81 83 85 84 86 85 82 82 83 83 83 83 83 83 83 83 83 83 83 83 83 83 83 83 84 84 84 84 84 84 83
79 74 72 66 66 71 72 75 77 73 75 78 77 69 74 80 77 81 83 85 85 85 87 83 83 83 83 83 83 83 83 83 83 83 83 83 83 84 84 84 83 83 84 84 84 84 84 84 84
81 75 66 67 70 74 78 79 79 76 75 75 76 66 66 76 81 82 83 85 85 87 86 87 83 83 83 83 83 83 83 83 83 83 83 84 84 84 84 84 84 83 84 84 84 84 84 84 83
73 76 68 68 70 75 78 81 79 77 75 74 72 71 67 79 79 81 84 85 87 86 88 88 83 83 83 84 83 83 83 83 83 83 84 84 84 84 84 84 84 85 85 84 84 84 84 84 83
73 75 70 69 70 73 76 83 78 77 75 73 78 69 67 74 81 83 84 86 86 87 87 87 88 85 83 83 83 83 83 83 83 83 83 83 84 84 84 84 84 85 85 85 85 84 84 84 83
79 76 68 71 72 72 79 81 81 79 74 83 82 69 65 74 81 83 84 85 85 86 87 86 87 88 86 87 83 83 83 83 83 83 84 83 84 84 84 83 83 84 85 85 84 84 84 84 84
79 73 70 72 72 76 81 77 82 84 78 79 80 78 81 80 82 81 80 81 82 83 85 87 87 86 85 86 86 84 83 83 83 84 83 85 91 89 88 83 83 84 84 84 84 84 85 84 83
74 72 73 80 81 80 81 81 79 77 77 77 77 80 80 79 79 78 77 78 79 81 84 86 86 85 85 87 85 86 87 89 88 88 86 89 87 86 86 85 83 84 83 82 82 82 83 86 93
75 73 79 81 85 84 81 80 83 78 74 79 75 76 77 78 78 78 79 81 81 83 84 84 84 83 84 85 86 86 87 87 87 85 86 86 87 86 89 90 89 89 83 90 90 90 92 89 92
71 77 81 83 86 83 80 84 80 80 81 86 82 80 78 77 78 79 79 81 81 81 82 84 84 83 84 85 86 86 86 86 87 87 84 84 86 86 86 88 87 86 89 86 88 91 88 89 88
74 78 81 84 86 87 84 81 82 80 85 87 82 80 78 78 79 81 82 83 82 81 82 83 83 81 82 82 85 85 85 86 87 86 85 86 86 84 86 86 87 86 88 89 87 84 89 83 84
80 80 82 84 85 87 82 83 82 83 84 80 79 79 80 79 80 80 81 81 81 82 82 84 82 82 82 82 81 83 84 86 85 86 86 84 85 84 87 86 86 87 88 88 86 85 86 80 83
82 76 82 84 85 84 86 77 77 85 83 78 78 78 79 80 81 80 82 81 82 83 83 82 82 83 81 81 82 83 85 86 86 86 84 84 84 84 83 86 86 87 86 83 83 84 86 88 86
77 77 73 83 84 85 85 76 84 84 82 78 78 78 78 80 81 82 83 83 84 83 81 82 85 84 82 82 82 83 85 85 86 86 86 84 84 84 83 85 86 88 86 85 87 83 83 87 81
73 70 71 76 85 83 82 79 84 84 83 79 78 79 79 79 81 82 84 84 84 83 81 81 82 83 82 81 83 83 83 84 86 86 86 85 84 85 84 86 87 85 87 87 84 87 85 85 85
66 67 72 73 82 81 80 79 81 82 82 80 79 79 79 79 81 83 84 85 85 84 82 82 82 81 81 82 81 83 84 84 86 86 86 85 85 85 84 87 85 85 86 85 86 83 84 85 85
73 72 72 76 82 80 80 81 80 81 82 80 79 79 79 80 84 85 85 86 85 84 82 81 80 80 81 81 80 81 81 83 84 86 84 84 85 84 83 86 85 84 84 84 83 83 81 84 83
71 70 72 75 80 78 78 78 81 80 79 81 79 80 80 82 83 83 84 85 85 83 82 81 80 80 80 82 82 83 83 85 86 87 85 85 85 84 84 84 85 84 85 81 81 81 83 83 83
70 69 71 72 77 79 76 75 74 79 82 83 83 84 81 83 83 82 83 84 85 83 82 81 81 81 81 82 82 82 83 83 83 84 85 85 85 85 84 84 85 83 84 85 82 81 80 82 81
65 74 73 72 71 66 78 66 72 79 77 79 82 82 83 84 84 84 84 83 84 84 84 83 82 81 81 82 82 80 81 82 85 86 87 87 85 86 85 84 84 83 85 83 82 82 81 80 80
70 75 73 74 72 70 72 67 75 74 75 77 80 83 84 86 86 84 84 85 86 86 84 84 82 81 82 81 82 82 81 85 87 86 84 84 85 85 86 84 84 83 84 83 81 79 79 81 83
78 73 72 70 71 59 69 68 71 74 76 81 83 84 84 85 86 86 87 87 86 87 86 84 81 80 81 81 81 81 81 82 84 83 84 86 87 87 84 85 84 83 84 83 82 80 79 80 81
75 70 60 57 57 58 74 66 70 81 83 87 85 84 85 86 86 86 85 85 85 85 85 84 81 79 81 81 81 81 81 81 81 82 84 84 86 86 84 83 82 84 82 83 82 79 79 79 80
70 71 61 51 57 62 68 63 72 84 87 88 90 90 88 87 88 87 87 87 85 85 84 84 82 79 81 81 80 81 81 84 85 84 86 86 87 87 86 84 84 84 83 83 81 82 82 81 80
68 65 76 65 61 61 68 73 79 82 84 86 87 89 88 88 88 88 89 89 87 86 84 83 82 81 81 82 81 80 81 82 84 84 84 86 85 88 86 85 84 84 83 82 81 83 79 79 79
73 77 62 66 54 53 63 63 70 75 80 83 84 86 89 90 90 90 90 90 89 89 87 86 84 82 82 83 83 83 82 82 83 83 82 84 86 85 86 84 84 84 83 82 80 82 80 78 80
68 67 70 71 66 59 58 66 77 78 80 83 87 89 90 90 90 91 91 91 90 90 89 87 85 83 83 83 83 82 83 83 83 83 83 83 84 84 84 83 84 83 83 81 80 81 81 78 78
76 72 71 63 58 64 66 67 82 83 84 84 88 90 90 91 90 91 92 92 91 90 89 88 87 86 85 84 82 82 83 83 83 82 83 83 83 84 84 84 83 83 83 82 80 80 81 78 78

GFSSGP_sfc_temp_030.txt.gz
Temp
84 89 84 79 62 71 70 70 83 79 80 85 87 83 81 77 69 63 82 86 82 76 83 86 81 82 83 83 83 83 83 83 83 83 83 83 84 83 84 84 84 84 84 84 84 84 84 84 84
90 82 84 80 65 63 71 80 76 82 84 88 85 84 81 67 74 74 77 87 86 88 85 90 81 82 83 83 83 83 84 83 83 83 83 83 84 84 84 84 84 84 84 84 84 84 84 84 84
91 86 78 75 78 69 72 80 82 83 86 85 81 87 82 69 76 77 87 90 90 81 89 88 81 82 83 83 83 83 83 83 83 83 83 84 84 84 84 84 84 84 84 84 84 84 84 84 84
86 84 82 72 77 79 81 84 85 82 83 85 85 77 81 84 81 85 90 91 90 91 92 85 83 83 83 83 83 83 84 83 84 84 84 84 84 84 84 84 84 85 84 84 84 84 85 85 85
91 84 78 78 80 83 86 88 86 83 83 83 85 73 69 78 86 87 88 91 94 93 94 91 83 83 83 83 83 84 84 84 83 84 84 84 84 84 84 84 85 85 85 85 85 85 85 85 85
77 87 78 77 80 84 87 89 87 85 84 82 81 77 70 85 83 86 91 92 95 94 95 92 84 83 83 84 84 83 84 83 83 84 84 84 84 84 84 85 85 85 85 85 85 85 85 84 84
82 85 80 81 80 82 84 91 87 86 83 82 86 76 77 81 85 90 93 94 94 95 96 93 92 88 84 84 84 84 84 84 84 84 84 84 84 85 85 85 85 85 86 85 85 85 85 85 84
88 86 79 82 80 80 87 88 90 87 83 91 90 76 72 80 88 93 94 93 92 94 96 93 93 92 91 90 84 84 84 84 84 84 84 84 85 85 85 84 84 85 85 85 85 85 85 85 85
88 82 81 82 82 83 91 86 90 92 86 88 87 88 88 87 89 90 88 89 87 91 94 95 95 92 91 91 89 85 84 84 84 85 84 85 94 94 93 85 84 85 85 85 85 85 85 85 85
85 82 83 89 90 88 90 89 88 86 85 85 85 89 88 88 85 85 86 85 84 86 93 95 94 93 92 95 90 90 92 95 94 94 91 96 93 93 93 88 84 85 84 83 83 84 85 87 100
86 83 89 90 92 92 90 89 92 87 83 87 83 83 85 85 86 87 88 88 89 90 93 94 93 91 92 92 93 93 94 95 94 90 91 93 94 94 99 95 94 94 86 96 92 92 93 95 98
81 88 90 91 92 91 88 93 89 89 90 94 91 88 86 85 87 88 89 90 90 90 92 94 92 89 91 93 93 95 94 95 95 94 90 91 93 94 94 96 95 93 98 94 95 92 93 95 94
83 88 90 92 93 93 93 89 89 89 94 95 92 88 87 87 88 90 92 92 92 90 91 92 91 88 88 88 93 94 93 94 96 94 92 94 95 92 94 93 96 94 97 96 92 93 92 90 84
90 89 90 92 93 94 90 90 91 92 95 92 90 88 89 88 89 89 90 90 90 90 90 92 90 88 88 88 88 90 92 94 94 95 94 90 93 92 95 94 96 96 97 97 90 91 89 93 92
90 83 89 91 92 91 94 86 87 94 93 89 89 88 89 89 91 89 90 90 91 91 91 91 90 90 87 87 88 89 93 95 94 95 92 90 90 90 89 90 92 96 93 90 90 92 94 91 95
84 86 80 91 93 94 92 82 92 96 91 88 89 88 88 89 91 91 92 92 92 92 89 90 93 91 89 88 89 91 93 94 94 95 94 90 89 89 89 89 93 95 90 93 92 92 92 94 92
83 78 81 85 93 92 90 85 93 97 93 89 88 88 88 88 90 91 93 92 93 91 89 88 90 90 89 88 90 90 90 91 94 95 95 91 90 90 90 93 94 92 95 92 93 92 92 91 92
76 77 83 82 89 91 88 87 93 94 93 91 89 89 88 89 89 92 92 93 93 92 90 88 89 88 87 89 88 91 92 92 94 94 94 92 91 90 90 93 91 91 95 93 92 88 92 92 91
85 82 80 86 91 87 86 87 91 94 92 91 90 88 89 90 93 93 93 94 93 92 89 87 86 86 87 88 87 88 89 90 92 93 92 90 90 90 89 92 90 91 90 86 88 89 86 90 91
80 78 79 86 89 86 87 86 92 93 91 92 91 90 90 92 92 91 92 93 93 90 89 86 86 85 86 88 88 90 90 93 93 94 92 91 91 90 90 88 90 89 93 86 86 85 90 91 91
77 77 79 80 86 88 85 82 86 92 93 93 95 94 94 92 90 91 91 92 93 90 88 87 86 86 86 88 89 88 90 90 90 92 92 92 91 91 89 89 90 88 89 90 86 86 85 89 88
73 83 81 81 79 73 87 72 84 90 88 91 93 94 94 93 94 93 92 91 92 91 91 89 87 86 86 86 88 85 87 87 91 92 94 94 91 91 91 89 89 88 92 89 85 89 88 85 86
76 86 81 80 78 77 79 76 81 90 86 90 93 95 95 96 94 94 93 93 94 93 92 90 87 86 87 86 87 87 86 91 93 94 91 89 90 91 93 90 89 88 90 89 87 86 84 88 89
84 81 80 79 78 68 76 77 78 84 86 91 95 96 95 96 96 95 96 95 94 95 93 91 87 85 86 86 85 86 86 88 91 90 91 92 93 93 90 91 89 89 89 88 88 86 85 85 86
80 76 66 64 65 65 81 76 78 89 94 93 95 97 97 97 96 96 94 94 94 92 92 91 88 85 86 86 86 85 86 86 87 89 90 91 93 94 92 89 88 90 88 89 88 85 86 85 85
76 77 70 58 64 70 79 71 80 93 96 97 98 101 100 98 98 97 95 95 93 93 92 91 89 85 86 86 86 86 86 90 90 90 93 92 94 95 93 90 90 89 90 89 88 89 88 87 86
76 73 84 74 76 71 78 81 88 92 93 95 96 99 100 99 98 97 97 96 94 93 92 91 89 87 87 88 87 86 86 87 90 90 90 94 92 95 93 91 88 90 89 88 87 89 86 87 85
82 84 72 75 60 60 73 74 78 84 86 91 93 97 99 100 98 99 99 98 97 97 95 93 91 88 88 89 88 88 88 88 89 90 89 90 93 91 92 90 90 89 89 88 86 88 87 85 87
77 76 78 80 75 67 67 76 90 86 89 90 94 97 100 100 100 101 100 100 100 99 97 94 92 90 90 90 89 88 89 89 88 89 89 89 90 91 89 90 89 89 89 88 86 87 89 84 84
84 78 78 70 66 73 74 78 92 92 94 94 96 98 101 101 102 103 104 103 101 99 98 97 95 93 92 91 89 89 89 89 90 88 89 89 88 90 90 90 88 89 89 89 86 86 89 85 84

GFSSGP_sfc_temp_033.txt.gz
Temp
84 89 83 73 63 69 66 72 84 81 80 91 90 84 77 80 73 61 76 76 78 77 80 87 82 83 83 83 83 83 83 83 83 83 84 84 84 84 84 84 84 84 84 84 84 84 84 84 84
87 88 81 75 60 60 67 79 75 81 87 90 91 89 85 72 82 78 74 84 82 79 90 92 81 83 83 83 83 83 83 83 83 83 83 84 84 84 84 84 84 84 84 84 84 84 84 84 84
88 92 74 74 71 57 68 82 85 89 91 86 87 87 84 74 82 82 88 89 85 82 89 90 82 83 83 83 83 83 83 83 83 84 84 84 84 84 85 85 85 84 84 84 85 85 85 85 85
84 83 84 63 61 80 79 80 90 87 90 92 87 79 84 85 85 88 90 90 87 89 92 84 83 83 83 83 83 84 84 84 84 84 84 84 84 84 85 85 85 85 85 85 85 85 85 85 85
90 88 69 62 78 83 88 90 91 83 89 89 88 78 75 82 89 90 90 91 87 94 93 90 82 83 83 84 84 84 84 84 84 84 84 84 84 85 85 85 85 85 85 85 85 85 85 85 85
78 88 68 69 81 87 90 94 91 89 90 87 84 77 76 86 87 90 92 91 94 90 96 90 84 83 83 84 84 84 84 84 84 84 84 84 84 85 85 85 85 86 85 85 85 85 85 85 84
83 78 69 81 84 85 87 95 86 92 89 88 90 75 77 81 87 92 91 90 94 96 96 92 92 87 84 84 84 84 84 84 84 84 84 85 85 85 85 85 86 86 86 86 85 85 85 85 84
92 82 81 82 67 84 92 95 96 94 88 96 94 78 72 82 88 91 91 90 93 96 96 93 92 93 90 90 84 84 84 84 84 84 85 85 85 85 85 85 85 86 86 85 86 86 85 85 84
97 77 78 84 80 89 96 92 96 98 91 93 93 89 88 89 89 88 87 87 90 94 96 96 96 93 91 91 88 85 84 84 84 85 85 84 85 90 90 85 85 86 85 85 85 86 86 86 85
90 62 72 94 95 88 94 94 93 92 90 89 92 92 90 91 87 85 83 84 89 92 97 98 96 95 94 96 89 90 92 93 93 89 90 79 90 90 93 89 85 85 85 85 86 86 85 85 93
92 72 75 94 97 97 96 94 98 92 88 90 87 87 89 89 90 86 84 85 91 96 98 98 96 93 94 94 93 94 95 96 96 92 91 83 92 91 76 91 92 89 87 82 82 86 93 96 98
87 93 85 96 97 96 94 98 95 94 95 97 94 92 90 88 91 90 89 89 89 94 96 98 96 93 94 96 96 97 97 98 97 96 91 91 89 94 78 83 91 93 90 90 84 88 92 83 87
89 93 96 97 97 97 97 94 90 93 99 100 96 92 90 90 92 94 95 95 94 94 96 97 95 91 92 92 95 98 97 97 99 96 93 95 85 90 86 89 86 89 87 86 89 91 90 91 88
95 94 95 97 97 98 94 94 95 97 100 97 94 92 92 92 94 94 95 94 95 95 95 97 94 91 91 91 91 93 96 98 98 98 96 92 94 92 86 88 84 86 84 80 92 91 83 84 90
96 87 92 94 96 95 98 91 91 99 99 94 93 92 92 93 95 94 95 95 96 96 96 95 93 92 89 89 90 92 96 98 97 98 94 93 92 91 89 89 86 84 84 91 88 90 85 89 92
88 90 82 93 95 97 96 84 95 101 97 93 93 93 92 93 95 95 96 96 96 96 93 94 96 93 90 90 90 93 96 97 97 98 96 92 92 91 91 92 92 85 90 95 85 92 94 89 94
87 79 82 88 97 95 93 87 96 101 98 94 93 93 93 92 94 95 97 96 97 95 92 91 92 93 90 90 91 92 93 95 97 98 97 92 92 91 91 77 80 92 89 89 94 83 90 91 92
78 81 86 84 93 94 91 90 94 99 98 95 94 94 93 93 94 96 97 97 97 95 93 91 92 92 90 91 90 93 94 94 96 97 97 92 92 92 91 89 91 93 90 83 81 88 92 91 91
87 86 85 91 95 92 90 91 93 98 98 96 94 94 93 94 97 98 97 97 97 95 92 90 89 89 90 90 89 90 91 92 94 96 95 93 93 91 90 92 91 92 87 90 89 89 87 89 90
85 84 85 91 95 92 90 89 95 98 97 97 96 95 95 96 96 96 96 97 96 94 92 89 89 88 89 90 90 92 92 95 94 95 94 93 92 91 91 90 84 91 79 88 87 87 82 91 91
83 83 84 85 91 94 89 85 88 97 99 98 100 99 98 96 96 94 94 95 96 93 91 89 88 88 88 89 91 91 92 92 93 93 94 93 92 92 91 90 91 91 90 83 87 88 87 89 89
79 88 87 86 84 78 90 74 84 92 93 95 98 98 99 98 98 96 95 94 96 95 93 91 89 88 88 88 89 86 88 88 92 92 95 94 93 92 93 91 91 89 92 84 88 90 89 86 86
82 90 86 85 83 82 83 79 85 92 89 93 97 98 100 100 99 98 96 96 97 96 94 93 89 87 88 87 87 89 87 92 94 95 91 90 89 92 94 92 90 89 90 90 86 87 86 89 89
90 85 85 85 82 71 79 80 80 88 91 94 98 100 100 101 101 99 99 98 97 98 96 94 89 86 87 88 86 87 86 88 91 91 93 94 94 93 91 93 90 88 90 91 89 88 87 86 89
85 80 69 67 68 67 82 78 81 93 97 98 98 100 102 103 102 99 98 97 96 96 95 94 89 86 87 88 87 87 88 87 89 90 92 92 94 95 91 90 88 90 89 91 90 87 88 86 87
81 81 72 59 65 71 82 74 82 96 100 102 103 104 104 104 104 102 99 98 96 96 95 94 90 87 87 87 87 86 88 91 90 91 94 94 96 96 96 91 91 90 91 90 90 90 89 88 87
81 77 88 80 82 77 81 84 93 97 97 99 101 102 103 103 103 102 101 100 98 97 95 93 91 88 88 89 87 87 87 88 91 90 91 95 92 98 96 93 90 91 90 90 89 90 88 89 86
87 88 76 79 66 65 77 79 80 87 90 96 97 99 102 105 103 103 103 101 101 100 99 96 94 89 89 90 89 89 89 88 89 91 90 90 94 93 95 93 92 90 90 90 89 90 90 87 89
81 80 81 83 80 71 69 78 94 92 93 93 97 100 102 104 104 105 103 104 103 102 100 98 95 92 91 91 90 90 90 90 89 90 91 90 92 93 91 91 91 90 90 90 88 88 90 87 86
88 82 82 73 70 79 80 80 96 97 97 98 97 100 103 105 105 105 105 105 104 102 101 99 98 96 94 93 90 90 91 90 91 89 90 91 90 91 91 91 90 90 90 90 88 87 90 88 85

GFSSGP_sfc_temp_039.txt.gz
Temp
80 80 79 73 62 60 58 61 69 67 67 81 75 77 70 75 72 60 73 76 78 76 77 82 83 83 83 83 83 83 83 83 83 83 83 83 83 83 83 84 84 84 84 84 84 84 84 83 83
81 81 75 68 59 55 58 68 65 72 78 77 79 79 75 68 72 68 70 77 78 78 78 80 81 82 83 83 83 83 83 83 83 83 83 83 84 84 84 84 84 84 84 84 84 84 84 84 83
84 84 67 63 60 56 59 73 75 79 80 81 79 81 77 66 70 72 76 79 79 79 80 81 82 82 83 83 83 83 83 83 83 83 83 84 84 84 84 84 84 84 84 84 84 84 84 84 84
79 73 70 60 58 66 66 70 84 83 83 81 77 71 77 78 75 77 79 81 81 81 80 82 83 83 83 83 83 83 83 83 83 83 84 84 84 84 85 84 84 84 84 84 84 84 85 84 84
80 71 61 59 61 68 73 76 83 81 81 79 78 69 70 77 79 79 79 82 80 78 79 81 83 83 83 83 83 83 83 83 83 83 84 84 84 84 85 85 85 85 85 84 84 84 84 84 84
66 65 58 57 63 70 74 79 84 79 77 76 72 71 70 78 79 80 81 81 83 79 80 81 83 83 83 83 83 83 83 83 83 84 84 84 84 84 84 85 85 85 85 85 84 84 84 84 84
64 62 58 59 62 68 80 84 81 78 77 73 78 68 72 75 82 83 83 84 84 83 80 79 81 83 84 83 83 83 83 84 84 84 84 84 84 84 85 84 85 85 85 85 85 84 84 84 83
70 63 59 61 63 67 85 84 82 82 77 84 81 67 68 77 83 84 84 81 84 82 81 79 79 78 77 79 84 84 84 84 84 84 84 84 84 85 85 84 84 85 85 85 85 85 84 84 83
80 59 58 61 70 74 83 83 87 89 80 82 83 77 79 83 84 81 80 79 80 81 81 80 79 77 77 78 82 83 84 84 84 83 81 75 74 77 82 83 85 85 85 85 85 84 84 84 84
69 60 62 67 77 76 83 85 86 79 76 75 75 79 83 83 80 78 78 76 79 79 80 81 80 79 79 84 77 77 80 79 78 75 72 72 71 73 81 83 84 85 85 85 83 83 84 82 80
75 66 75 76 83 86 83 85 90 77 70 73 71 75 81 80 80 79 80 81 79 82 83 82 82 81 80 80 76 76 77 77 75 75 71 72 72 72 74 77 77 77 81 77 76 76 79 80 78
77 80 82 84 87 84 79 81 86 81 77 80 79 80 80 80 79 79 79 82 82 82 83 84 83 82 79 79 78 79 79 78 76 73 72 71 71 72 73 75 77 76 75 75 75 73 76 77 80
81 80 86 85 84 84 78 80 83 80 83 82 81 81 79 80 79 82 82 85 84 83 84 84 84 81 80 79 79 78 79 81 80 74 71 73 71 74 75 77 73 75 75 75 76 75 77 78 80
85 86 83 80 84 86 82 84 84 82 83 80 80 78 80 81 80 81 82 85 84 85 85 85 84 81 83 82 77 79 81 82 84 80 77 74 73 76 74 76 76 78 74 73 74 75 76 76 77
85 81 83 85 84 85 88 76 81 83 84 80 79 79 80 81 82 81 83 83 84 84 86 84 84 81 81 80 80 83 80 85 81 84 80 79 79 76 78 74 76 79 75 77 76 76 78 76 78
79 80 72 82 85 89 83 68 78 84 82 78 80 80 80 80 81 83 84 84 84 83 83 84 88 82 79 79 79 79 79 81 84 83 80 81 81 80 74 74 76 76 77 77 77 79 79 74 77
72 67 70 76 89 89 81 72 75 80 83 79 80 81 81 80 82 83 86 86 86 84 83 83 84 81 78 78 78 79 79 79 81 84 80 80 81 82 76 76 76 76 77 77 77 76 76 77 76
63 65 70 73 84 84 78 77 77 81 78 73 77 81 82 81 81 84 86 88 88 85 84 84 82 81 80 78 77 77 77 78 79 80 79 79 79 81 78 75 76 76 76 76 76 75 76 77 77
74 72 71 78 86 80 79 78 79 76 73 73 76 77 81 83 87 88 88 89 88 85 83 83 79 79 80 78 77 74 77 76 77 79 80 79 79 80 77 76 76 76 75 76 77 75 76 74 74
74 71 71 79 85 79 79 78 83 76 78 80 79 76 78 84 86 87 88 90 87 84 83 82 79 79 80 80 80 76 76 76 78 79 78 81 80 79 79 76 75 76 75 76 76 75 72 73 72
72 69 71 72 80 85 81 77 79 78 78 74 72 72 77 84 85 85 87 87 86 82 81 81 80 79 80 80 79 76 76 76 76 77 77 79 80 80 79 78 76 76 74 73 75 75 74 70 72
65 77 78 77 73 65 79 57 70 79 75 74 72 71 77 85 87 86 86 86 86 83 83 82 80 79 80 79 80 79 80 76 74 77 76 78 80 80 80 79 78 77 75 75 74 77 75 73 70
71 80 78 77 71 66 72 66 72 77 76 75 75 76 85 86 87 86 86 88 88 85 83 81 81 80 81 81 81 79 76 75 76 76 77 75 77 79 81 79 78 77 76 75 75 76 75 73 72
82 75 73 74 70 58 66 66 65 74 78 80 83 86 88 89 90 88 88 89 88 86 84 81 80 80 81 80 78 79 76 75 74 74 76 74 79 79 79 80 78 78 76 76 75 76 75 74 74
76 66 54 53 56 55 64 61 64 75 84 84 87 87 89 90 90 87 86 87 86 84 83 81 79 79 80 80 81 77 78 77 76 75 77 75 77 79 79 78 77 77 77 77 77 76 75 74 73
71 69 52 43 49 56 65 61 68 80 83 89 91 92 92 90 90 88 87 87 87 86 83 82 80 79 80 80 79 81 77 79 81 76 77 76 79 81 82 79 81 78 78 77 77 76 76 75 74
70 65 70 55 57 52 57 65 75 83 84 86 85 92 90 91 91 89 88 88 87 87 84 83 80 80 80 80 80 79 79 78 81 81 77 78 78 81 81 82 80 79 79 77 77 78 76 76 74
75 75 61 63 47 47 59 62 66 74 79 84 83 84 91 93 92 90 89 89 88 89 86 85 82 80 80 81 80 80 80 81 80 79 80 77 80 79 79 81 81 80 80 79 77 76 76 75 75
71 68 70 61 57 48 48 59 79 77 81 83 84 84 91 92 92 91 90 90 89 90 87 85 83 80 80 80 81 81 80 80 81 80 80 77 79 79 77 79 80 80 80 79 79 76 76 75 75
77 72 67 62 54 60 58 62 79 78 86 87 87 85 86 93 93 92 91 91 89 89 88 86 85 82 81 82 81 81 81 80 81 81 77 82 77 81 78 80 80 80 80 80 77 77 79 75 74

GFSSGP_sfc_temp_042.txt.gz
Temp
79 80 78 71 62 59 58 61 69 66 68 78 81 76 72 69 66 57 71 75 76 74 78 81 82 83 83 82 82 83 83 83 83 83 83 83 83 83 83 83 83 83 83 83 83 83 83 83 83
79 78 74 68 59 55 57 66 64 67 73 78 78 77 72 63 70 68 69 76 76 76 78 80 81 82 83 82 83 83 83 83 83 83 83 83 83 83 84 84 84 83 84 84 84 84 84 83 83
80 82 67 62 59 56 58 68 69 74 76 77 76 78 73 64 70 71 75 77 77 76 77 80 82 82 83 83 83 83 83 83 83 83 83 83 84 84 84 84 84 84 84 84 84 84 84 84 83
78 72 69 61 58 63 64 71 76 76 80 79 76 68 72 75 73 74 77 78 76 77 79 82 83 83 83 83 83 83 83 83 83 83 83 84 84 84 84 84 84 84 84 84 84 84 84 84 83
78 70 61 60 60 66 70 70 74 75 74 75 76 65 64 73 76 77 77 79 76 76 78 81 82 83 83 83 83 83 83 83 83 83 83 84 84 84 84 84 84 84 84 84 84 84 84 84 84
66 64 57 55 61 67 69 75 74 75 75 73 70 68 64 74 74 77 79 78 78 77 79 80 82 83 83 83 83 83 83 83 83 83 83 84 84 84 84 84 85 85 85 84 84 84 83 83 83
63 61 58 60 61 64 67 74 72 73 74 72 77 64 65 70 76 78 78 78 78 79 78 79 80 82 83 83 83 83 83 83 83 83 83 83 84 84 84 84 85 85 85 85 84 84 82 82 83
67 64 61 63 60 63 75 74 76 76 73 81 78 62 60 71 78 79 79 78 78 78 77 76 76 76 77 79 83 83 83 83 83 83 83 84 84 84 84 83 83 85 85 85 85 84 84 83 82
76 60 59 62 65 71 77 73 81 81 76 79 80 75 75 78 80 78 76 76 75 77 76 76 76 74 75 76 81 83 83 83 83 82 81 77 73 75 80 82 84 85 85 85 84 84 84 83 83
68 59 63 72 73 71 74 74 78 75 75 73 74 77 79 79 78 75 74 73 73 73 75 76 75 74 74 82 76 76 79 78 76 74 73 71 72 74 78 81 84 85 85 85 83 83 84 83 78
68 61 70 76 77 82 82 78 80 74 67 71 69 73 76 77 76 76 76 75 74 76 77 76 76 75 75 77 74 73 75 75 74 73 72 71 73 73 73 74 76 76 81 76 76 75 77 78 77
66 73 76 77 80 79 80 83 76 77 74 78 76 77 77 75 75 76 76 76 76 76 77 77 77 77 74 75 75 74 75 75 73 71 71 70 70 72 72 72 75 75 74 74 74 73 75 75 77
72 76 79 83 83 80 82 82 77 76 78 79 79 78 76 76 77 79 80 79 78 77 78 78 78 77 76 74 73 74 74 75 75 72 71 71 71 72 73 75 73 74 74 74 73 74 76 75 76
78 78 82 85 81 80 77 79 77 75 78 76 77 76 77 77 78 78 79 78 78 79 79 80 79 78 78 76 73 74 76 76 76 73 73 73 71 72 73 73 73 74 73 73 72 74 74 73 74
79 75 80 80 82 78 82 76 71 76 77 74 75 76 77 78 79 78 80 80 80 81 81 80 79 79 78 77 75 75 77 80 79 76 74 73 73 74 74 73 73 75 73 73 74 74 73 74 75
72 72 68 79 82 83 81 69 74 76 74 72 74 75 76 77 78 81 82 82 83 82 81 81 84 80 79 76 77 77 77 77 77 79 76 76 76 75 73 73 73 74 74 73 73 73 74 73 74
63 59 65 73 83 82 80 68 74 76 73 71 73 75 76 76 78 81 83 83 83 81 82 81 82 80 78 76 77 77 77 76 77 77 78 77 78 77 74 74 74 74 74 74 74 76 73 73 77
56 58 64 67 78 80 77 70 73 75 73 72 73 74 76 76 77 81 83 85 84 81 82 82 82 79 78 75 75 75 75 75 76 77 76 77 77 78 75 73 75 74 74 73 74 73 75 76 73
67 65 65 71 79 78 77 71 71 75 74 72 73 73 74 76 80 82 83 85 84 80 81 81 80 78 77 74 72 72 73 73 74 76 78 76 77 78 75 74 76 74 73 74 74 73 74 72 70
68 64 65 72 78 74 72 69 72 75 74 75 74 74 75 77 78 81 82 83 84 79 80 81 80 78 78 79 78 73 73 73 75 75 76 77 77 77 76 74 74 74 74 74 73 73 70 70 70
65 63 65 65 73 75 70 65 69 75 76 76 76 78 79 80 77 79 81 82 84 79 80 79 80 78 79 78 75 72 73 73 73 73 73 76 77 78 76 76 74 74 73 72 73 73 72 68 70
60 72 72 71 65 57 73 57 65 70 69 72 74 76 77 80 83 80 82 82 84 82 81 80 79 79 79 77 77 77 78 75 74 74 73 75 77 77 77 77 76 74 73 73 73 74 72 69 69
67 73 71 71 62 56 66 57 65 68 65 71 73 77 79 80 83 83 84 84 85 86 81 81 78 78 78 77 78 78 77 76 72 73 74 73 76 77 79 76 76 75 73 73 73 73 72 71 69
76 71 68 67 59 52 63 60 60 64 68 71 73 75 77 81 84 86 87 85 84 84 82 81 77 77 78 78 78 78 76 73 73 71 74 72 75 76 76 77 76 75 74 73 73 74 73 72 70
71 59 49 49 48 50 65 56 65 71 75 75 74 74 76 79 83 85 84 85 82 81 81 80 78 76 78 78 78 77 77 75 74 73 72 71 73 72 74 76 75 75 74 74 74 73 73 71 71
65 61 47 42 42 52 58 51 61 75 80 82 80 78 78 80 84 86 85 86 85 81 81 80 78 78 78 78 78 78 77 78 78 75 73 75 77 77 78 78 78 77 76 75 74 73 73 73 71
64 60 64 50 45 47 53 58 67 76 77 77 82 80 79 82 85 86 86 86 86 82 80 80 79 79 79 79 79 77 77 79 79 76 76 73 74 78 78 79 78 78 76 76 74 74 73 74 72
69 68 54 48 42 40 51 53 57 68 73 74 75 81 82 86 86 87 86 86 87 85 83 81 80 80 80 80 80 80 79 78 80 79 74 73 74 77 78 78 79 78 78 76 74 74 74 74 73
62 65 58 59 49 45 43 55 69 68 72 74 75 83 85 87 87 88 87 87 87 87 84 82 80 80 79 80 80 80 79 80 77 77 77 77 75 76 77 78 78 78 78 77 74 74 75 74 74
73 62 62 58 48 48 49 60 74 75 79 81 83 81 87 88 89 89 88 87 87 86 84 82 81 80 80 80 80 79 79 78 78 77 77 78 78 76 77 76 78 78 78 78 77 75 77 75 74

GFSSGP_sfc_temp_045.txt.gz
Temp
80 80 77 71 62 59 57 61 69 64 66 76 78 75 70 68 66 56 71 73 74 74 77 80 82 83 83 82 82 82 83 83 83 83 83 82 83 83 83 83 83 83 83 83 83 83 83 83 83
79 77 73 67 58 54 57 64 64 69 75 76 78 74 69 63 70 67 68 74 75 76 77 79 81 82 82 82 82 83 83 83 82 83 83 83 83 83 83 84 83 83 83 83 83 84 84 83 82
78 80 66 61 58 55 58 64 69 71 75 76 73 75 70 65 70 69 74 75 76 75 76 80 82 82 83 83 83 83 83 83 83 82 83 83 83 84 84 84 84 83 83 82 83 82 84 84 83
75 71 68 59 58 64 63 65 72 74 75 77 73 65 69 75 72 73 76 76 75 76 77 82 82 83 83 83 83 83 83 83 83 83 83 84 84 84 84 84 84 84 84 84 84 83 83 82 83
76 69 61 57 60 66 69 70 70 70 75 74 73 62 63 72 75 75 75 76 74 74 77 80 82 83 83 83 83 83 83 83 83 83 84 84 84 84 84 84 84 84 84 84 83 83 83 82 83
65 64 57 54 61 68 68 69 72 73 71 69 66 64 63 72 73 74 76 75 77 75 77 80 82 83 83 83 83 83 83 83 83 83 84 84 84 84 84 84 84 84 84 83 83 83 83 82 83
63 59 58 61 61 65 69 71 68 71 71 70 73 60 62 68 74 76 75 76 76 77 76 77 78 81 83 83 83 83 83 83 83 83 83 84 84 84 84 84 84 85 85 84 84 84 84 83 82
68 64 59 63 60 63 75 73 72 73 71 77 74 60 58 68 75 75 75 74 74 76 76 74 75 76 76 78 83 83 83 83 83 83 83 84 84 84 83 83 84 85 85 85 84 84 84 84 83
75 59 57 62 63 68 74 70 73 77 74 78 78 70 72 74 76 73 72 72 73 75 73 73 73 74 74 76 80 82 83 83 83 82 82 78 73 75 78 82 84 85 85 85 84 83 84 84 84
65 57 62 72 72 69 73 74 72 73 73 69 69 72 74 74 73 70 70 70 71 74 73 72 73 73 74 80 76 75 78 77 75 74 73 72 72 73 78 80 84 85 84 84 83 83 84 82 77
68 62 68 74 76 70 72 75 78 72 66 70 65 68 72 73 73 71 71 72 71 74 74 73 72 72 73 75 73 73 74 74 73 72 71 71 72 72 73 74 75 75 80 75 75 74 75 77 76
62 70 72 78 81 78 75 77 75 74 73 76 73 73 73 72 72 72 71 71 71 72 74 73 73 72 72 72 72 72 73 73 72 71 71 69 70 71 72 71 73 73 73 73 73 72 75 75 76
67 70 75 76 77 78 80 77 74 74 77 77 76 75 73 73 74 75 75 75 73 72 74 74 73 72 72 71 71 72 73 73 73 70 70 69 70 71 73 73 73 73 73 72 72 71 74 74 74
73 73 74 77 76 75 77 76 74 73 76 74 74 73 74 74 75 75 75 73 73 75 74 75 74 74 72 71 70 71 72 73 73 72 72 71 71 72 72 72 72 72 72 72 71 71 72 73 73
74 69 73 76 77 77 80 71 70 73 75 72 72 73 74 75 76 75 77 75 75 76 76 74 75 75 72 72 71 72 73 75 73 74 73 73 72 73 73 72 72 72 72 73 71 72 71 72 74
67 65 58 73 79 80 77 62 69 73 72 69 71 73 74 74 76 78 79 77 77 77 76 76 80 77 74 72 72 73 74 74 75 74 74 74 74 74 73 72 72 72 73 72 72 71 71 70 71
59 53 60 67 79 80 77 63 69 73 71 69 71 72 73 74 76 78 80 79 78 78 77 76 77 76 74 73 73 74 75 73 74 74 74 74 75 75 73 73 73 73 72 71 74 73 71 75 72
52 55 59 62 71 77 71 69 68 71 70 69 70 72 73 73 75 78 80 81 80 79 78 78 78 76 75 74 72 72 73 73 73 73 74 75 75 76 73 72 73 73 72 71 72 73 71 71 72
62 61 62 67 74 75 72 69 66 69 69 68 69 70 71 73 77 79 80 82 81 79 78 78 77 76 75 71 71 70 71 71 72 73 76 75 75 76 74 72 73 73 71 73 73 71 71 69 68
62 59 59 67 73 70 70 71 70 69 69 70 69 70 71 74 76 78 79 81 79 78 79 78 78 77 76 78 77 72 71 71 73 74 75 75 76 75 75 73 73 73 72 72 72 71 69 68 68
60 58 60 62 69 69 69 66 69 69 71 72 73 73 74 74 75 77 78 79 81 77 78 78 78 78 78 78 72 70 71 71 71 71 72 74 76 76 75 74 73 73 72 71 71 71 70 68 68
51 66 68 66 63 54 67 54 61 66 67 70 71 72 73 75 77 77 78 79 81 78 78 79 79 79 78 76 76 73 75 74 71 70 72 73 75 76 76 75 74 73 71 70 71 72 70 68 68
62 68 66 66 57 53 61 53 56 66 64 67 71 73 75 76 78 77 78 80 82 82 78 78 78 78 79 76 79 76 73 72 69 70 72 72 73 75 76 75 74 73 72 72 72 71 71 68 68
70 64 61 58 54 49 60 56 53 61 65 69 72 74 77 78 79 80 81 82 81 83 80 78 77 77 78 76 77 76 75 69 69 69 69 70 71 74 74 75 73 73 73 72 72 72 71 69 68
66 54 44 42 43 48 58 54 62 69 73 75 72 75 77 79 80 81 79 80 81 81 78 78 76 76 77 76 77 76 75 73 73 70 70 68 70 70 73 73 73 72 73 73 72 72 72 71 69
60 59 43 36 39 49 55 49 57 72 78 79 80 80 80 79 80 81 81 81 81 82 80 78 76 76 77 76 76 77 77 76 76 75 71 72 74 75 77 75 75 74 74 74 72 72 72 71 71
58 56 61 47 42 45 53 54 64 70 74 75 77 80 79 78 79 81 83 83 83 82 81 78 77 78 77 77 77 77 77 77 76 74 75 74 72 75 74 76 76 74 74 74 73 71 72 72 71
66 65 51 46 41 37 46 51 57 64 66 72 74 77 80 81 78 80 84 84 83 83 82 81 79 78 78 78 78 78 77 77 78 75 72 72 74 75 75 75 76 74 74 74 73 72 72 72 72
59 59 55 56 48 49 40 51 62 65 70 71 75 79 79 80 80 81 84 86 86 83 82 80 80 79 78 78 79 78 77 78 78 76 74 74 72 74 73 74 75 75 74 74 73 74 73 72 72
56 60 55 55 47 44 47 56 70 72 73 71 77 80 81 82 81 84 86 86 86 85 81 80 80 80 80 79 79 78 78 77 77 76 75 75 74 72 75 73 74 76 76 75 75 74 76 73 72

GFSSGP_sfc_temp_048.txt.gz
Temp
80 80 75 70 61 58 57 60 68 63 66 73 76 72 68 67 65 55 69 71 73 73 76 80 82 83 82 82 82 82 83 82 82 82 83 83 83 82 83 83 83 83 83 83 83 83 83 84 83
78 77 72 67 58 53 57 64 62 68 73 75 75 73 68 62 70 66 67 73 75 75 75 79 81 82 83 82 83 83 83 83 83 82 82 83 82 83 84 83 83 83 83 84 84 83 84 83 83
78 79 66 62 57 55 57 64 65 71 76 75 71 73 69 64 69 68 72 75 75 74 75 79 82 82 83 82 83 83 82 83 83 83 83 83 83 83 84 84 83 82 83 83 83 84 83 83 83
74 70 67 59 57 64 63 66 70 69 72 78 71 62 69 76 71 72 75 76 74 75 76 81 82 83 83 82 82 83 83 82 82 83 83 83 84 84 84 84 83 84 84 84 83 83 83 83 82
75 69 60 58 61 66 66 69 72 71 72 70 71 61 64 71 74 75 76 76 74 73 76 80 82 83 83 82 83 83 83 82 83 82 84 84 84 84 84 84 84 84 84 83 84 83 83 83 83
65 64 56 54 61 68 69 70 70 73 69 67 64 64 64 71 72 75 76 74 76 75 76 78 82 83 83 83 83 83 83 83 83 83 84 84 84 84 84 84 84 84 84 84 84 84 83 83 83
64 58 58 61 61 65 67 70 67 70 68 67 70 60 63 68 73 75 74 74 75 76 76 76 77 81 83 83 83 83 83 83 83 83 84 84 84 84 84 84 84 84 84 84 85 84 84 83 83
65 62 59 61 60 63 67 70 75 72 70 75 73 59 61 69 73 73 74 73 73 74 75 74 75 76 77 78 83 84 83 83 83 83 84 84 84 84 84 81 83 84 84 85 85 84 84 83 83
75 58 56 62 61 66 71 70 74 76 71 76 74 68 71 73 73 71 71 73 73 73 73 73 73 74 75 76 80 83 84 83 83 83 81 78 75 77 80 82 84 84 84 85 84 84 84 84 84
64 55 60 70 72 66 71 74 71 70 70 67 67 70 72 72 71 70 71 71 73 73 73 72 73 73 74 79 76 76 79 77 76 75 74 73 74 76 79 81 84 84 83 84 84 84 84 82 78
66 59 67 74 75 75 73 74 75 70 66 67 63 65 69 70 70 71 72 73 73 76 76 72 72 73 73 75 74 74 75 75 74 74 73 73 73 74 75 76 76 76 79 77 76 76 79 79 79
61 68 70 74 79 75 73 75 73 73 72 74 70 69 70 69 69 71 72 72 71 75 76 72 73 72 73 73 73 74 74 74 74 72 72 71 72 73 74 74 75 75 75 75 75 75 77 77 78
64 70 72 76 75 74 76 73 72 72 74 74 72 71 69 69 70 73 74 73 72 73 73 72 72 72 72 72 73 73 73 74 74 72 72 72 72 73 75 74 73 75 75 73 74 75 77 76 77
71 72 72 74 73 73 72 73 73 71 73 70 70 69 70 71 71 71 71 71 71 72 72 73 73 72 71 71 72 72 73 74 74 73 73 72 72 73 74 73 74 73 75 75 74 75 75 75 76
70 64 70 72 72 72 76 67 68 71 72 68 69 70 71 71 73 72 73 72 72 73 73 72 72 72 71 71 71 72 73 75 74 75 74 74 73 73 75 74 74 74 75 75 75 75 75 75 76
63 62 56 69 73 76 73 60 68 71 69 67 68 70 71 71 73 75 75 74 74 74 72 73 78 74 71 70 71 72 73 74 74 75 74 74 75 73 75 75 75 75 75 74 74 74 75 74 75
56 51 57 64 75 75 71 60 67 71 69 66 68 69 71 71 73 75 77 76 75 75 73 72 74 72 71 71 71 72 73 73 74 75 75 75 75 76 75 75 75 76 75 74 74 74 75 75 75
51 51 56 61 68 72 67 64 66 69 68 67 68 69 70 71 72 76 77 77 77 75 74 73 73 72 71 71 71 72 73 73 73 74 75 75 75 76 75 74 75 75 75 75 75 74 73 74 73
59 57 59 65 71 67 66 64 64 67 67 66 67 68 69 71 75 77 78 78 77 76 74 73 73 71 71 69 70 70 71 72 73 74 75 75 76 76 74 74 74 75 74 76 76 74 73 72 72
59 55 56 64 70 67 65 66 66 66 66 68 68 68 69 72 73 75 76 77 77 75 74 73 73 71 73 74 72 72 71 72 74 74 75 76 76 76 75 74 74 75 74 73 75 75 73 71 72
56 53 55 58 66 70 66 61 62 67 68 70 71 71 72 72 73 74 75 77 78 75 74 73 73 73 74 73 71 71 72 72 73 73 74 75 76 77 76 75 75 74 73 72 74 74 74 71 72
44 62 64 62 58 51 65 49 58 61 64 67 68 69 71 72 75 75 76 76 78 76 76 75 74 73 75 74 73 72 72 72 71 72 73 74 76 76 76 76 75 75 73 73 74 75 74 71 71
57 63 62 62 56 52 60 55 56 62 58 63 67 70 72 73 75 75 76 78 79 78 77 76 74 74 75 74 74 74 73 72 71 72 73 73 74 76 77 76 75 75 75 74 74 74 73 72 71
66 59 57 54 51 45 55 59 54 56 62 64 69 71 73 74 75 77 78 79 79 81 77 76 73 73 74 74 74 73 73 70 70 70 71 72 73 74 76 76 75 75 75 75 74 75 74 72 71
62 54 40 39 40 46 55 58 57 65 67 70 70 72 74 76 76 76 76 77 78 78 76 76 74 73 74 74 74 74 74 71 72 71 71 70 72 73 74 75 75 75 75 76 75 74 75 74 73
58 53 40 33 35 48 51 47 56 74 72 75 76 76 77 76 77 78 78 78 78 78 78 76 74 74 74 74 74 74 75 75 75 73 72 73 73 74 75 75 76 76 76 76 75 75 75 75 75
55 51 56 44 39 41 54 52 65 66 71 71 74 76 75 77 77 78 80 80 79 79 78 76 75 75 74 75 75 74 75 74 74 73 73 73 73 76 75 76 76 76 76 76 75 75 75 75 74
58 62 48 43 37 35 44 48 56 60 65 67 69 73 76 78 79 80 81 81 81 82 81 78 77 75 76 76 76 76 75 75 75 73 73 72 73 75 75 75 76 76 76 76 75 75 75 75 75
54 56 51 54 47 40 38 46 61 62 69 71 71 73 76 78 79 80 81 83 82 83 82 79 78 76 77 76 76 76 76 76 76 74 74 74 74 74 74 75 75 76 76 76 75 75 76 75 75
50 47 51 52 44 43 44 51 66 68 69 70 76 74 76 79 80 80 82 82 83 82 82 81 79 78 78 77 76 76 76 76 76 75 74 74 73 74 75 75 75 76 76 76 75 75 77 75 75

GFSSGP_sfc_temp_051.txt.gz
Temp
82 80 81 73 63 63 60 63 68 67 71 79 81 77 74 72 70 65 81 83 84 84 87 85 82 83 83 83 83 83 83 83 83 83 83 83 83 83 83 83 83 83 84 83 83 83 84 83 83
84 78 73 67 60 59 60 66 63 72 77 80 79 77 74 67 73 71 76 83 85 87 89 87 81 82 83 83 83 83 83 83 83 83 83 83 83 83 83 83 84 83 83 84 84 84 84 84 84
81 80 66 61 60 60 59 66 64 73 79 79 74 77 73 67 73 76 82 84 87 86 88 86 82 82 83 83 83 83 83 83 83 83 83 83 83 83 83 83 84 84 83 84 84 83 83 83 83
79 73 69 61 58 64 63 67 73 72 78 81 77 69 74 78 76 80 83 85 87 86 89 84 83 83 83 83 83 83 83 83 83 83 83 83 83 84 84 83 84 84 84 83 84 84 83 83 83
79 70 64 61 61 66 67 68 73 72 74 75 76 66 65 73 79 81 82 86 86 87 88 88 83 83 82 83 83 83 83 83 83 83 83 84 84 85 84 84 84 84 84 84 84 84 83 83 84
68 67 62 58 62 68 73 74 70 75 69 70 70 68 65 77 77 80 85 85 88 87 89 88 83 83 82 83 83 83 83 83 83 83 84 84 84 84 84 84 84 84 84 84 84 84 84 84 83
68 67 60 64 63 67 71 71 68 72 70 70 75 67 68 73 78 80 84 86 87 88 87 87 88 85 83 83 83 83 83 83 83 83 83 84 84 84 84 84 84 84 84 85 85 84 84 83 84
75 70 63 67 64 65 72 73 76 74 68 79 78 67 63 74 77 82 84 85 85 87 87 85 85 88 87 87 83 83 83 83 83 84 84 84 84 84 84 83 83 85 85 85 85 84 84 84 83
77 65 63 66 67 67 72 73 78 79 72 78 78 76 78 78 78 79 80 81 82 84 85 87 87 86 85 86 85 84 84 84 84 84 82 83 88 88 88 84 84 84 84 85 85 84 84 84 84
69 64 67 73 73 69 76 76 76 73 74 72 73 78 78 77 77 76 77 78 80 82 84 86 85 85 85 88 86 86 88 89 88 87 84 86 86 86 87 85 85 84 84 84 84 85 84 87 91
72 67 74 77 78 78 72 76 79 75 72 75 70 72 73 75 77 76 79 78 81 83 83 84 84 83 85 85 86 87 87 86 85 83 83 83 85 86 88 89 88 88 84 90 88 88 92 89 91
67 74 76 76 81 79 77 81 77 78 79 82 78 76 75 75 77 78 79 78 81 81 82 83 84 82 84 85 86 86 86 86 86 85 82 83 86 86 85 88 87 86 89 86 87 90 87 87 88
71 73 77 77 80 81 82 79 78 78 80 81 78 76 75 77 78 80 81 81 82 81 81 83 83 81 82 82 84 85 85 86 87 85 83 85 85 85 87 86 87 87 88 88 87 87 88 86 87
76 73 76 78 80 81 78 80 80 77 80 76 75 75 77 77 79 79 79 79 80 81 81 83 82 82 82 82 81 83 85 86 86 86 86 82 85 84 86 85 86 86 88 88 88 87 87 88 89
77 70 74 78 81 79 82 74 75 77 78 74 74 75 76 78 80 79 80 80 81 82 82 82 82 83 81 81 82 83 85 87 86 87 83 83 84 83 84 86 86 87 85 85 86 85 86 88 89
72 72 68 78 81 81 81 71 76 77 76 73 74 74 75 77 79 81 82 82 82 82 80 82 85 83 82 82 82 84 85 86 87 87 87 84 84 83 84 85 87 86 86 87 87 88 87 88 86
69 67 67 71 81 81 79 73 75 77 76 73 73 74 75 76 78 80 82 82 83 82 81 81 82 82 82 81 83 84 84 85 86 87 87 85 84 84 85 84 85 85 87 86 88 87 88 87 88
65 66 68 70 79 80 77 75 73 75 76 73 73 74 75 76 78 81 82 83 84 83 82 81 82 81 80 81 81 84 85 85 86 86 87 85 85 85 85 83 85 86 85 85 87 84 79 87 87
68 67 70 74 80 77 77 77 73 74 75 73 74 74 75 76 81 83 83 84 83 83 81 80 80 80 80 80 81 82 83 84 85 86 85 84 85 85 84 87 86 86 83 84 85 84 82 83 84
67 64 68 75 77 77 75 76 77 74 74 75 74 75 76 78 80 81 82 84 83 82 81 79 79 79 79 82 82 84 84 85 87 86 85 86 85 85 85 83 85 83 84 83 84 83 84 84 84
65 64 66 68 72 78 76 73 74 75 76 77 78 78 79 79 79 79 81 82 83 82 80 80 79 80 80 81 82 81 82 83 84 84 85 86 85 86 85 84 85 83 83 86 84 84 83 84 84
61 70 68 67 66 64 76 63 73 76 72 74 76 77 79 79 81 81 81 82 83 83 82 81 80 80 81 80 81 80 83 82 85 86 87 86 85 86 86 85 84 83 85 82 85 85 85 83 84
65 71 68 68 65 65 68 65 73 75 72 73 76 78 80 81 81 81 81 83 85 84 83 82 80 79 81 80 81 82 81 85 85 86 83 84 84 85 86 85 84 83 85 81 82 82 82 85 86
72 68 68 69 66 55 65 65 68 71 74 77 78 79 80 81 82 83 84 84 84 85 84 83 79 79 80 80 80 80 81 82 82 83 84 86 87 87 85 85 84 84 85 83 84 83 83 82 83
68 64 55 51 52 53 69 63 67 78 81 83 80 79 81 82 82 82 81 82 83 84 83 83 80 78 80 80 81 81 81 81 81 81 84 85 86 86 84 83 83 85 84 85 84 83 83 82 83
65 65 56 47 52 57 68 59 67 81 85 85 87 86 84 83 84 83 83 83 83 83 83 82 80 79 80 80 80 81 81 84 84 83 86 85 87 87 87 85 85 85 85 85 84 85 86 84 84
65 59 71 62 59 58 65 68 76 80 82 85 85 85 83 83 84 83 84 85 84 84 83 82 81 80 80 81 81 80 81 81 83 83 83 85 84 87 86 86 85 85 85 85 84 86 84 84 84
68 72 58 61 49 48 59 62 65 73 78 81 82 85 85 85 85 85 85 86 86 86 86 84 83 81 81 82 82 82 82 82 83 83 82 83 85 83 85 85 85 85 85 85 83 85 85 83 86
62 61 65 66 61 54 53 61 77 76 79 82 83 85 87 86 86 86 86 87 87 88 87 86 84 82 82 82 82 82 83 83 82 82 82 83 84 83 83 84 85 85 84 84 83 83 85 83 83
58 60 66 56 54 60 61 63 80 81 84 86 88 89 88 88 87 87 88 88 88 87 88 87 86 85 84 83 82 82 83 83 82 82 83 83 83 83 83 84 84 84 85 85 83 83 86 83 83

GFSSGP_sfc_temp_054.txt.gz
Temp
85 87 92 83 63 73 70 69 76 75 78 86 87 81 81 83 77 66 89 85 92 93 92 88 82 83 83 83 83 83 83 83 83 83 83 83 83 83 84 84 83 84 84 83 84 84 83 83 84
85 79 75 73 63 63 68 74 73 79 84 89 86 85 82 74 82 82 85 91 94 96 96 93 81 82 83 83 83 83 83 83 83 83 83 83 84 84 84 84 83 84 84 84 84 84 84 84 84
89 87 73 64 65 67 66 74 75 82 86 84 78 88 82 75 82 85 92 93 96 96 97 90 82 83 83 83 83 83 83 83 83 83 83 83 84 84 84 84 84 84 84 84 84 84 84 83 84
87 79 69 65 63 72 68 75 77 82 84 83 85 77 81 84 86 91 93 95 96 97 97 85 83 83 83 83 83 83 84 83 83 83 83 84 84 84 84 84 84 84 84 84 84 84 84 84 84
88 77 67 68 66 69 75 76 76 80 79 80 85 75 67 82 88 92 93 96 96 97 95 92 83 83 83 83 83 84 84 83 83 84 84 84 84 84 84 84 84 84 84 84 84 84 84 85 84
74 77 69 68 65 75 71 73 73 77 76 78 79 76 70 82 86 91 95 96 98 97 96 92 83 83 83 84 83 83 84 84 83 84 84 84 84 84 84 85 85 85 85 84 84 84 84 84 83
76 75 71 72 67 74 79 83 76 80 74 76 86 78 74 79 87 93 95 97 97 98 96 94 92 86 84 84 83 84 84 84 84 84 83 84 85 84 85 85 85 85 85 85 85 84 84 84 83
78 80 72 76 66 73 76 73 77 80 76 86 87 76 69 79 86 94 95 96 96 97 96 94 93 93 92 91 83 84 83 84 84 84 85 85 85 85 85 84 85 86 85 85 85 84 84 84 83
85 74 75 76 71 74 80 75 82 83 76 81 85 86 87 84 86 91 91 92 93 94 95 96 96 93 91 91 87 85 83 84 84 85 84 85 95 93 92 85 85 85 86 85 85 85 84 84 84
80 72 77 80 81 74 78 82 85 81 81 81 82 87 84 83 81 87 88 88 90 91 94 96 94 93 92 95 88 90 91 94 94 94 90 94 93 93 93 88 85 85 85 85 85 85 85 86 96
78 73 83 78 79 84 82 83 88 83 80 84 80 81 79 83 84 88 89 90 91 92 94 94 92 91 92 92 93 93 95 94 93 90 90 91 93 92 96 93 94 93 87 95 91 90 94 95 95
78 83 85 83 86 86 82 84 85 85 86 91 87 85 82 84 86 88 89 90 91 90 92 93 92 90 92 93 94 95 94 94 93 92 89 89 93 92 92 96 93 93 96 92 94 96 93 94 95
81 84 83 83 85 88 88 85 85 86 89 91 88 85 84 86 87 90 91 92 92 90 91 92 90 88 89 89 93 94 93 95 95 92 90 94 95 92 93 92 96 95 96 95 94 94 94 92 94
85 85 84 83 84 86 85 86 87 88 90 87 85 84 86 87 88 88 89 89 90 90 90 92 90 88 89 89 88 90 93 94 94 94 92 89 94 91 93 91 94 95 97 96 96 94 94 95 95
86 79 82 80 83 82 88 83 83 88 88 85 84 84 86 87 89 87 89 89 90 91 91 90 90 90 88 88 88 90 93 95 94 94 90 89 90 89 91 92 89 94 92 91 92 92 94 95 96
81 82 74 85 80 84 84 78 86 88 87 83 84 84 84 86 89 89 90 91 91 91 88 90 93 91 88 88 89 92 93 94 95 94 93 90 89 89 88 91 94 93 93 95 94 95 94 94 95
81 75 77 82 87 83 85 82 86 89 89 84 83 84 84 85 87 88 91 91 91 90 88 88 90 90 88 88 89 91 91 93 95 95 95 90 90 88 90 93 91 90 94 95 95 95 94 92 94
75 75 81 79 85 87 84 85 85 87 88 84 83 84 84 85 86 89 90 92 92 90 89 88 90 88 87 88 88 91 92 93 94 94 95 90 92 89 90 92 88 91 94 93 95 91 94 94 95
78 80 78 83 85 85 84 85 84 85 87 83 83 83 84 85 89 90 90 91 92 90 88 87 86 86 87 87 87 89 90 91 92 94 92 91 91 90 89 91 89 91 92 92 90 90 86 92 92
76 73 76 83 82 85 85 84 89 86 85 86 84 84 85 87 88 88 89 91 91 89 88 86 86 85 85 88 88 91 91 93 94 94 92 92 92 90 91 89 89 89 91 88 88 88 91 92 92
74 73 75 77 79 82 83 80 84 87 87 88 88 87 88 87 87 87 87 89 90 88 87 86 85 85 85 88 89 88 90 91 90 91 92 92 92 91 90 89 88 89 91 90 88 88 88 89 90
70 80 77 76 73 70 83 70 80 86 83 85 87 87 88 88 89 88 88 88 90 89 89 87 86 85 86 86 87 85 88 88 92 93 95 94 92 92 92 90 89 88 93 88 89 91 91 89 88
72 81 78 75 73 74 76 73 76 87 82 84 87 89 90 90 90 89 89 90 92 91 90 89 86 85 86 85 86 87 86 92 94 94 91 90 90 91 92 90 90 88 88 88 88 87 87 91 92
79 75 75 75 74 63 72 74 76 82 85 88 90 91 91 92 91 91 92 92 91 92 91 90 86 83 85 85 84 85 86 89 91 90 91 92 94 93 90 91 90 89 90 88 88 88 87 88 89
75 71 62 60 61 61 76 72 76 87 91 92 92 91 93 93 92 91 90 90 90 90 90 89 86 83 85 85 85 85 86 86 87 88 90 91 93 94 91 89 88 91 88 90 87 87 88 87 88
72 72 64 54 60 65 75 68 76 89 92 96 97 97 95 94 95 93 91 91 90 90 89 89 87 84 85 85 85 85 86 90 90 89 93 93 94 94 93 90 91 90 90 90 89 91 90 90 89
72 67 78 71 74 69 74 77 85 89 89 91 92 95 94 94 94 93 93 92 91 90 90 88 87 85 86 87 86 85 86 87 90 90 89 93 92 95 93 92 90 91 90 90 89 91 89 89 88
72 80 66 68 55 56 68 70 73 79 83 88 90 93 95 97 95 96 94 93 93 93 92 90 89 86 87 88 88 88 87 87 88 90 88 89 92 90 92 90 90 90 90 90 88 91 90 88 91
69 67 70 73 69 60 60 69 85 83 85 86 91 94 97 97 96 96 96 96 95 95 93 92 90 88 88 89 88 88 89 89 88 88 88 88 89 90 88 89 89 90 90 90 88 88 90 88 88
69 69 71 61 60 67 67 71 90 88 90 91 93 95 98 99 98 97 98 97 96 94 94 93 92 91 90 90 88 88 89 89 89 87 88 88 87 89 88 89 88 89 90 90 88 88 91 88 88

GFSSGP_sfc_temp_057.txt.gz
Temp
85 91 93 90 64 74 63 70 79 77 79 86 89 86 76 79 76 68 88 90 92 95 92 88 82 84 84 83 83 83 83 83 83 84 84 84 83 84 84 83 84 84 83 84 84 83 84 84 84
95 85 90 73 61 62 65 79 73 79 88 91 91 88 84 79 88 84 86 91 97 97 97 93 82 83 83 83 83 83 84 83 83 84 84 84 84 84 84 84 83 84 84 84 84 84 84 84 83
93 89 73 70 72 64 61 77 79 84 91 86 85 88 84 78 87 89 94 98 100 98 97 88 82 83 83 83 83 83 84 84 83 84 84 84 84 84 84 84 84 84 84 84 84 84 84 84 84
91 83 72 64 67 75 71 78 83 84 88 87 88 81 86 91 89 91 97 100 101 100 97 85 83 84 83 83 84 83 83 84 84 84 84 84 84 84 84 84 84 84 84 84 84 84 84 84 84
90 79 65 68 70 72 80 79 76 81 80 84 85 78 79 86 93 97 98 100 101 100 95 91 83 83 84 84 84 84 84 84 83 84 84 84 84 84 84 85 85 84 84 84 84 84 85 84 84
71 80 69 64 74 75 81 76 75 80 81 83 82 78 77 90 90 96 100 101 102 99 97 91 84 83 83 84 84 84 84 84 84 84 84 84 84 84 85 85 85 85 85 84 84 84 84 83 83
77 69 69 73 74 68 74 77 72 80 82 81 89 77 79 86 91 97 100 101 100 101 96 93 91 87 84 83 84 84 84 84 84 84 84 84 84 85 85 85 85 85 85 85 85 84 84 84 83
80 73 73 74 73 67 81 81 80 82 76 92 92 77 73 86 91 97 99 100 99 99 98 95 93 93 91 90 84 84 84 84 84 84 84 85 85 85 85 84 85 86 85 85 84 84 84 84 83
87 72 68 66 72 77 84 77 81 83 83 87 90 88 88 91 93 93 94 97 97 96 98 99 98 94 91 90 86 85 84 84 84 85 85 85 94 91 91 85 86 86 86 85 85 84 84 84 83
77 77 64 85 82 82 86 83 81 80 85 87 88 91 90 92 90 88 93 93 95 95 98 99 97 96 95 96 89 90 91 93 94 93 90 82 88 90 93 88 85 85 86 85 85 85 85 85 93
86 81 85 86 87 84 81 72 83 83 83 88 85 83 84 90 91 93 94 94 95 97 99 99 96 94 96 91 95 95 89 86 95 92 91 93 94 93 93 92 91 91 86 93 90 89 88 83 91
84 90 85 82 90 84 81 86 85 86 76 93 91 86 86 89 91 93 94 94 95 95 97 98 96 93 95 95 91 89 82 94 96 94 93 91 87 87 86 81 91 84 90 93 82 76 86 89 78
87 87 88 89 89 86 87 85 70 84 94 96 92 86 86 89 92 95 96 96 95 95 95 96 94 91 93 88 85 93 96 98 98 93 93 94 84 84 86 92 79 82 85 97 83 92 91 94 94
92 91 83 84 91 91 86 86 92 90 95 91 89 86 89 90 93 93 95 94 94 94 94 95 93 92 93 88 90 90 95 93 97 97 94 93 86 86 84 94 83 88 85 87 88 89 90 91 93
92 85 89 84 87 88 93 84 88 91 94 89 88 88 90 91 94 92 94 94 94 95 95 93 92 93 91 90 92 90 85 97 88 97 92 93 91 92 84 92 82 84 91 93 93 94 96 96 93
85 87 79 89 85 90 90 76 92 95 93 88 88 89 89 91 94 94 95 95 95 95 92 92 96 93 91 91 90 92 87 93 86 96 94 92 91 91 90 88 85 95 93 88 79 92 89 95 91
84 78 80 81 85 88 86 73 78 95 93 89 89 89 89 90 91 93 96 95 96 94 91 91 93 91 90 90 92 93 93 88 88 87 88 91 92 91 92 92 90 89 93 84 93 89 89 93 91
78 79 84 80 85 87 85 80 69 94 94 90 89 89 89 90 91 93 95 96 96 94 92 91 93 91 89 90 90 94 93 90 87 86 85 91 88 91 91 85 92 92 89 94 85 92 86 88 84
87 85 82 89 88 83 79 78 68 93 94 89 89 88 89 90 93 94 95 96 95 94 91 90 89 89 89 89 89 91 91 91 88 93 93 92 92 91 90 83 90 91 87 75 91 92 89 93 92
83 81 82 89 89 82 76 78 85 91 92 91 89 89 89 91 92 92 93 94 95 92 90 88 88 88 88 90 90 93 93 95 96 97 93 93 93 91 91 83 91 90 91 90 90 90 80 91 90
80 79 81 82 86 89 81 76 85 87 93 93 93 92 93 91 91 90 91 93 94 91 90 88 87 87 87 89 90 91 93 94 93 91 93 93 93 93 93 90 86 90 88 91 88 89 88 82 92
75 84 83 82 80 74 86 66 75 70 88 90 92 92 93 92 93 92 92 92 93 92 92 90 88 87 87 88 88 86 89 89 93 94 95 94 93 93 93 91 90 89 84 87 89 89 85 84 89
77 86 84 82 79 79 78 74 81 88 79 88 91 92 94 94 94 93 92 92 95 94 93 91 88 86 87 86 87 89 87 92 95 96 91 93 91 93 94 91 90 89 90 89 84 88 88 92 85
85 81 80 81 79 67 76 76 78 75 84 89 93 95 95 95 95 95 95 94 94 95 94 92 87 85 86 86 85 87 85 88 93 92 92 93 94 93 92 93 88 90 90 89 90 89 88 86 91
80 76 64 63 64 64 80 76 80 88 90 87 93 95 97 97 96 95 93 93 92 93 93 93 88 85 86 86 86 86 87 87 89 90 92 92 95 96 91 91 90 91 89 90 90 88 87 88 89
76 76 67 56 63 68 79 72 80 94 93 88 82 97 99 99 99 97 95 94 93 93 93 93 89 85 86 87 85 85 87 91 91 91 94 94 96 97 93 91 92 91 91 91 89 90 90 90 89
76 71 82 73 77 73 78 81 89 93 94 91 91 98 95 99 99 98 97 96 95 94 93 91 90 87 87 87 86 85 86 87 90 90 91 95 93 98 95 93 91 92 91 91 90 91 89 90 89
78 84 70 72 58 58 72 76 77 83 88 93 94 96 92 94 100 100 99 98 97 97 95 94 93 89 88 89 89 88 87 87 89 90 90 90 94 93 94 93 92 91 91 91 90 91 91 90 91
73 71 73 76 72 62 63 73 90 88 89 90 94 97 99 99 100 101 101 100 99 99 97 95 93 91 89 90 89 89 89 89 88 91 90 91 92 92 91 91 91 90 90 91 89 89 92 88 89
77 74 74 65 63 72 71 74 95 94 95 94 95 97 100 101 102 102 103 102 100 98 97 97 95 93 92 91 89 89 90 90 90 88 90 91 89 91 91 90 90 90 91 91 89 88 91 90 89

GFSSGP_sfc_temp_060.txt.gz
Temp
83 87 87 79 64 67 63 62 68 76 80 88 87 80 74 81 69 62 82 89 91 89 86 85 82 82 83 83 83 83 83 83 83 83 83 83 84 83 83 84 83 83 84 84 83 84 84 84 84
92 91 84 74 60 59 62 66 68 79 87 90 87 78 80 75 83 81 83 91 93 91 89 86 82 83 83 83 83 83 83 83 83 83 83 84 84 84 84 83 84 83 84 84 84 84 84 84 84
91 90 70 68 66 60 54 71 74 85 89 85 81 86 83 77 83 85 92 94 95 92 91 85 82 83 83 83 83 83 83 83 83 83 84 83 84 84 84 84 84 84 84 84 84 84 84 84 83
89 82 74 62 62 70 68 73 83 82 86 88 85 78 85 89 86 91 94 97 95 93 89 83 83 83 83 83 83 83 83 83 83 83 84 84 84 84 84 84 84 84 84 84 84 84 84 84 83
86 77 64 66 70 74 80 73 82 78 82 72 83 75 78 85 92 95 97 99 96 91 88 86 83 83 83 83 83 83 83 83 83 84 84 84 84 84 84 84 84 84 84 84 84 84 84 84 83
73 77 65 65 67 77 79 78 76 72 75 69 80 77 78 88 91 95 99 95 95 91 90 86 83 83 83 83 83 83 84 83 83 84 84 84 84 84 84 84 85 85 84 85 84 84 84 84 83
78 68 68 67 68 69 75 81 76 81 77 72 85 74 81 85 91 97 99 95 94 94 90 87 86 84 84 83 84 84 84 84 84 84 84 84 84 85 85 85 85 85 84 85 85 84 83 83 83
79 71 69 71 65 62 76 78 74 75 80 88 89 74 74 84 93 97 98 96 94 93 92 89 87 87 85 86 84 84 84 84 84 84 84 84 85 85 85 84 85 85 85 85 85 84 83 83 83
87 67 63 66 72 65 80 76 74 73 82 87 89 83 87 91 96 93 94 92 92 92 93 92 91 87 85 85 85 84 84 84 84 84 85 83 86 86 87 85 85 85 85 85 85 85 84 83 84
79 66 63 72 79 77 84 84 82 79 83 85 86 90 90 91 92 90 91 88 86 91 94 95 91 89 88 91 84 84 86 86 87 87 81 84 84 87 88 85 85 85 85 85 85 85 84 83 82
85 74 72 79 84 87 81 77 78 81 80 84 81 83 87 89 90 91 92 88 90 94 94 94 90 88 91 85 87 87 87 87 87 85 81 82 86 84 77 84 85 83 85 85 85 84 81 79 80
80 85 84 82 89 89 83 70 69 67 76 91 88 88 88 86 88 91 92 91 89 93 91 94 92 89 87 89 88 79 82 87 89 87 83 87 84 79 73 78 82 76 83 80 78 78 79 74 76
86 87 87 87 87 89 85 70 66 71 74 82 89 88 87 87 89 93 95 95 92 93 92 92 90 84 82 83 85 84 82 86 89 88 89 78 82 76 76 76 76 78 82 80 78 80 82 77 84
92 92 91 89 85 86 80 79 83 74 79 88 86 85 88 87 91 93 93 92 92 92 92 91 90 87 84 83 82 79 88 87 90 89 86 76 79 78 81 79 78 73 78 82 83 82 83 82 84
92 86 89 87 85 78 84 69 73 76 78 85 84 85 89 90 93 92 94 92 93 93 92 89 89 90 88 85 88 87 91 93 91 88 87 90 81 81 81 77 83 84 79 84 83 86 85 82 85
84 85 77 88 86 90 87 71 78 76 82 83 84 86 87 89 93 94 95 94 93 92 88 88 94 91 88 83 89 83 89 87 87 89 87 89 89 84 77 76 74 82 84 82 80 82 83 82 81
82 74 78 82 86 89 87 70 76 76 85 85 85 86 87 87 92 92 95 94 93 91 87 87 89 88 87 84 87 80 85 86 85 88 88 88 88 89 76 74 75 84 78 83 82 83 83 81 82
74 76 80 80 85 87 84 77 76 72 79 86 87 87 87 87 90 92 94 95 93 91 88 87 89 86 85 86 86 83 86 84 87 86 84 88 88 89 84 82 86 86 79 81 85 81 84 81 80
82 82 81 87 91 85 80 68 75 76 79 79 87 87 88 88 92 93 94 95 93 90 87 86 86 83 84 84 84 80 85 79 84 83 80 86 87 88 85 83 85 82 76 80 82 84 82 81 83
81 79 80 88 91 87 76 66 75 81 78 78 89 87 88 90 90 90 92 93 93 89 86 85 85 83 83 85 83 86 81 80 76 85 83 88 86 87 87 85 86 80 77 81 81 74 77 82 82
80 78 80 81 89 89 84 66 66 72 70 73 92 91 91 90 89 89 90 91 92 87 85 84 84 82 83 85 84 85 86 84 82 85 86 88 89 86 86 85 86 84 82 82 82 78 80 78 79
74 85 83 82 80 73 85 63 70 65 66 66 84 90 90 91 92 90 90 90 91 88 87 84 84 83 83 84 83 83 83 82 85 82 84 87 88 88 87 87 87 85 77 83 83 84 81 77 78
77 86 83 82 78 77 79 74 77 72 67 63 72 86 91 92 93 90 90 91 92 90 88 86 83 83 83 82 83 84 83 86 85 87 83 84 85 88 89 86 86 83 82 82 83 83 83 80 78
86 81 80 80 78 66 74 74 76 69 69 66 72 72 92 93 93 92 92 92 92 92 89 87 82 81 82 82 82 82 81 83 85 84 85 85 86 87 87 86 85 85 83 83 83 84 84 82 81
81 74 62 60 62 62 78 73 76 87 81 75 70 68 92 94 94 92 90 90 90 89 88 87 82 80 82 82 82 82 82 82 82 85 83 85 85 87 85 85 83 84 85 85 83 83 84 84 83
76 74 64 54 59 65 77 68 77 91 94 85 82 83 87 95 96 94 92 91 89 90 88 87 82 80 82 83 80 81 83 85 85 86 87 86 87 86 85 86 85 85 85 84 84 84 84 83 83
74 70 79 69 73 67 73 79 86 92 93 94 85 86 76 74 80 94 94 92 90 90 88 87 83 82 82 83 82 80 82 83 84 84 86 87 86 89 86 86 86 86 85 85 82 82 81 82 83
78 81 68 71 55 55 67 72 76 82 87 92 83 80 76 76 73 79 96 94 93 93 92 90 87 83 83 83 84 83 82 83 83 83 84 84 87 87 84 85 85 86 86 86 84 83 83 81 81
73 70 72 73 71 60 59 68 87 86 87 90 90 82 76 79 74 70 76 97 95 94 93 92 89 85 84 85 84 83 83 83 83 84 83 84 85 87 87 87 86 85 85 86 84 83 84 83 82
77 72 73 65 61 67 68 70 92 92 94 94 95 97 87 83 77 72 70 80 96 94 94 93 91 90 87 85 84 84 84 83 84 82 85 85 85 86 86 85 86 85 85 85 84 83 85 83 83

GFSSGP_sfc_temp_063.txt.gz
Temp
79 81 81 75 60 59 58 59 70 68 77 84 85 79 74 77 72 59 77 81 83 80 80 82 82 82 82 82 82 82 83 83 83 83 83 83 83 83 83 83 83 84 84 84 84 84 84 84 84
81 82 78 68 57 54 56 65 64 76 80 81 82 81 77 69 78 74 76 84 84 80 80 81 81 82 83 82 83 83 83 83 83 83 83 83 83 83 84 84 83 84 84 84 84 84 84 84 84
86 87 68 62 59 56 55 61 65 81 84 81 75 83 78 71 77 77 84 86 84 82 81 81 82 82 83 83 83 83 83 83 83 83 83 83 84 84 84 84 84 84 84 84 84 84 84 84 83
79 77 69 60 60 62 61 64 67 80 81 81 78 72 79 84 81 84 88 86 83 80 80 82 83 83 83 83 83 83 83 83 83 83 83 84 84 84 84 84 84 84 84 84 84 84 84 84 83
80 71 61 59 62 66 69 69 68 73 72 76 78 71 72 82 87 88 88 87 80 78 80 81 83 83 83 83 83 83 83 83 83 83 84 84 84 83 84 84 84 84 84 84 84 84 84 84 84
67 69 60 57 66 68 73 76 75 72 71 74 75 73 74 85 85 88 89 83 82 80 80 81 83 83 83 83 83 83 83 83 83 84 84 84 84 84 84 84 84 84 85 84 84 84 84 84 83
68 65 62 65 66 67 68 77 71 74 72 76 81 70 75 82 86 90 86 84 84 82 80 79 80 82 83 83 83 83 83 83 83 84 84 84 84 84 84 84 84 84 85 84 84 84 83 83 83
74 68 63 66 64 65 72 74 77 77 71 80 84 70 71 82 85 90 87 85 82 81 80 79 78 78 78 80 84 84 84 84 84 84 84 84 85 85 85 83 84 85 85 85 84 83 83 83 83
84 62 60 64 66 67 75 71 75 76 72 81 81 80 83 87 89 88 84 82 82 82 81 80 80 78 77 78 82 83 84 84 84 83 84 81 78 79 82 83 84 85 84 84 84 84 83 83 83
71 62 64 72 71 71 78 76 75 72 74 73 76 84 86 86 86 84 81 79 80 80 80 82 80 80 80 84 78 77 80 78 77 78 78 76 77 77 81 82 85 85 85 84 84 84 82 81 76
78 68 72 73 77 76 69 71 76 72 75 73 73 79 82 84 84 83 83 82 82 83 84 82 82 81 80 80 77 77 77 77 77 77 78 76 78 75 75 76 78 77 82 80 82 79 74 75 74
75 81 76 77 82 75 69 71 70 69 68 75 81 82 83 83 84 83 82 84 85 84 84 84 82 83 80 80 79 76 77 77 77 77 76 74 74 73 71 73 76 74 76 75 73 75 75 77 74
80 82 82 84 83 76 75 72 71 69 73 77 83 84 82 83 85 84 86 85 84 86 85 83 81 79 81 78 77 77 76 78 79 77 76 73 73 71 73 74 73 74 75 75 74 74 75 72 76
84 87 86 82 80 77 73 71 73 71 71 74 83 81 83 83 84 86 84 83 87 86 84 80 79 78 78 76 77 77 78 79 81 77 78 76 73 72 73 74 75 72 73 76 73 75 77 76 78
84 78 84 81 79 76 76 67 70 73 75 74 80 82 83 83 85 87 85 85 85 85 85 80 78 82 77 79 78 76 82 85 77 79 76 75 75 74 75 74 73 73 75 79 76 80 77 77 79
75 73 64 80 81 81 76 62 69 72 70 71 81 82 82 82 85 88 88 86 84 84 82 84 87 81 79 79 78 77 79 79 82 80 79 80 78 76 74 73 74 76 76 79 78 79 78 78 76
67 58 66 73 81 82 74 64 68 72 70 73 78 82 82 82 86 87 88 86 84 83 82 80 81 79 79 78 78 77 80 78 77 79 79 80 81 77 73 72 73 76 73 75 80 76 80 74 74
59 61 67 70 78 81 73 66 69 71 68 71 77 81 82 84 86 85 89 88 83 83 82 78 82 78 78 77 78 78 81 78 78 78 79 80 80 79 75 73 73 75 75 78 77 76 77 77 78
71 70 69 76 81 77 70 64 66 66 66 63 69 79 81 82 87 86 89 87 84 82 81 77 78 78 77 75 75 75 74 75 76 78 79 80 80 80 76 76 77 75 75 73 76 75 75 77 78
71 68 68 75 82 77 68 66 68 65 67 68 67 79 81 84 85 86 86 86 83 81 81 77 79 78 77 76 76 76 76 76 75 77 77 80 81 80 79 76 76 78 74 75 75 74 72 74 76
69 64 68 69 78 76 66 60 66 71 73 71 68 75 80 84 82 84 84 84 83 80 79 78 79 78 78 77 76 75 76 75 74 75 77 78 80 80 79 78 76 75 75 74 75 78 75 71 73
58 75 77 75 67 58 76 51 61 65 65 68 69 68 72 83 85 84 84 84 82 81 82 79 79 78 77 78 75 75 77 74 76 78 78 79 80 80 81 80 78 75 73 75 76 77 75 73 71
68 77 73 72 64 59 67 59 64 68 60 64 68 67 76 80 85 83 85 86 84 83 82 80 78 79 80 78 77 75 75 79 76 81 81 77 77 80 81 80 79 77 75 75 76 76 77 74 73
80 73 69 66 59 51 60 59 56 60 64 64 71 74 78 80 86 85 87 87 85 83 82 81 77 78 78 77 75 75 75 75 80 80 76 80 76 78 79 80 78 77 76 76 76 77 77 75 75
71 56 46 44 47 48 60 57 61 67 71 71 71 74 76 79 87 84 84 85 84 81 81 80 78 76 78 77 77 75 76 75 75 75 80 81 79 76 77 78 77 77 77 77 76 76 76 75 75
63 59 48 41 43 49 62 51 62 75 77 75 76 76 77 74 77 86 84 86 85 82 81 80 79 78 78 78 77 76 75 78 75 77 77 82 82 83 79 79 78 78 78 78 77 76 76 76 75
63 55 65 53 57 49 56 63 74 78 75 75 76 73 74 75 72 78 86 86 86 84 82 81 79 79 78 78 78 77 75 77 76 77 78 79 80 82 80 80 80 78 78 77 77 76 75 76 75
66 67 52 53 42 41 52 56 58 68 74 75 70 71 72 71 72 71 73 82 84 87 84 83 80 79 79 80 79 79 78 76 75 77 77 78 79 80 79 81 81 79 78 78 76 75 76 75 75
60 55 55 55 51 46 45 53 70 72 72 72 73 75 74 71 70 70 71 73 75 80 87 84 81 79 79 80 80 79 79 78 77 75 77 77 78 78 80 79 78 79 79 78 77 76 77 75 75
65 58 56 47 47 50 50 55 77 76 80 76 80 81 77 73 74 71 72 71 71 71 87 86 84 80 80 81 81 80 79 79 79 76 75 79 77 77 80 81 81 78 78 78 77 76 79 77 75

GFSSGP_sfc_temp_066.txt.gz
Temp
79 80 79 72 58 58 56 59 64 64 71 80 80 78 73 72 68 58 73 76 77 77 79 81 82 83 82 82 82 82 83 83 82 83 83 83 83 83 83 83 83 83 84 84 84 84 84 84 84
78 79 74 67 56 55 57 66 64 69 75 81 81 80 75 68 74 71 71 78 80 78 79 80 81 82 82 82 82 83 83 83 83 83 83 83 83 84 83 83 84 83 83 83 84 84 84 84 84
80 82 68 62 58 56 56 63 63 75 82 80 75 80 75 67 74 73 79 79 79 78 79 80 82 82 83 82 83 83 83 83 83 83 83 83 83 84 84 84 84 83 83 84 84 84 84 83 83
79 74 69 58 58 61 61 63 64 69 75 76 76 69 77 80 76 80 80 80 78 78 78 82 83 83 83 83 83 83 83 83 83 83 83 83 84 84 84 84 84 84 84 84 84 84 83 84 84
75 68 60 58 62 62 67 69 68 71 71 73 76 68 70 78 83 81 81 80 76 76 79 81 82 83 83 83 83 83 83 83 83 83 84 84 84 84 84 84 84 84 84 84 84 84 84 84 82
66 67 58 57 63 66 69 70 73 71 73 74 72 71 69 82 80 80 80 77 78 77 78 80 82 83 83 83 83 83 83 83 83 83 84 83 83 84 84 84 84 84 84 84 84 84 84 83 83
64 62 59 63 63 63 66 71 71 71 72 73 79 68 72 78 82 80 78 78 78 79 78 77 80 82 83 83 83 83 83 83 83 83 83 84 84 84 84 84 84 84 84 84 84 83 83 83 83
69 66 63 64 63 64 70 73 77 76 73 83 82 69 67 78 80 80 79 77 77 77 77 75 76 76 76 80 83 84 83 83 83 84 84 84 84 84 84 83 84 84 84 84 84 83 83 83 83
80 60 60 64 65 66 73 72 74 76 73 79 79 79 81 82 81 78 76 75 75 77 75 75 75 74 75 77 82 83 84 84 83 83 84 81 76 78 80 82 84 84 84 84 84 83 83 82 84
70 61 67 73 71 71 72 73 74 71 71 76 76 84 84 81 79 75 73 72 73 73 75 76 75 74 76 83 76 75 79 76 75 76 76 74 74 75 79 82 84 84 84 84 84 83 82 79 75
73 66 75 75 76 75 73 72 76 73 67 70 69 78 80 79 78 77 75 75 75 76 77 77 76 76 76 77 74 74 75 75 75 75 74 74 75 74 74 75 76 75 81 78 79 78 75 75 74
67 77 79 77 79 75 71 71 70 71 68 73 76 82 81 80 77 77 76 76 76 76 78 78 78 76 75 76 75 74 74 74 74 74 74 73 72 71 72 72 73 73 74 74 73 73 75 75 75
72 76 80 82 78 76 74 70 71 69 71 76 79 83 80 80 80 80 80 80 79 78 78 78 78 77 75 75 74 74 73 75 75 74 74 74 71 70 72 72 72 73 74 73 73 72 74 73 76
78 79 82 78 75 74 71 72 73 72 74 75 79 80 81 81 81 80 80 79 80 80 79 79 78 77 75 73 73 73 75 76 76 73 75 73 72 71 72 72 73 72 72 72 72 73 74 73 74
78 71 81 76 73 73 76 67 70 71 75 75 75 80 81 80 82 80 82 80 82 81 78 78 77 77 76 73 75 75 76 78 75 75 75 74 73 73 73 71 71 72 72 74 72 74 74 73 76
69 65 60 75 75 73 74 61 66 73 71 71 78 80 80 79 81 83 85 83 83 80 77 80 84 78 76 76 75 78 78 77 75 75 75 75 74 73 73 72 72 73 74 73 73 75 73 73 74
61 55 61 67 77 71 71 61 68 72 72 70 77 79 80 78 79 85 84 83 82 80 78 77 78 77 76 76 75 78 77 76 77 75 76 76 75 75 71 71 71 74 72 73 76 74 76 72 72
54 55 60 64 73 70 68 65 65 70 71 72 76 79 78 79 80 84 84 84 82 81 80 79 78 76 76 75 74 74 74 75 76 76 76 77 76 76 73 71 73 73 73 74 74 73 74 73 73
63 62 62 69 75 67 67 62 64 66 68 68 68 76 79 79 84 85 84 83 81 81 78 78 76 74 75 73 72 71 73 73 74 75 77 76 77 76 74 74 74 73 72 72 75 73 75 75 74
64 61 61 69 73 69 65 61 64 66 67 69 70 73 76 81 82 84 82 82 82 79 77 77 78 74 75 74 73 74 73 73 74 76 76 78 78 77 76 74 74 75 72 73 73 72 71 72 73
62 58 63 63 68 68 62 58 62 65 69 70 73 75 76 80 78 83 80 80 81 79 76 77 77 76 75 75 74 73 73 73 73 73 74 76 78 78 76 76 74 73 72 72 73 73 72 70 71
52 67 70 69 62 57 67 51 58 60 62 66 69 70 69 77 83 82 81 78 79 80 78 78 77 76 75 75 73 73 72 70 72 73 75 75 78 78 78 77 75 73 72 73 73 76 72 71 69
63 72 67 66 57 55 59 53 59 62 58 62 66 71 72 74 82 82 81 80 80 81 79 77 77 76 77 76 76 75 72 73 73 74 75 74 75 77 78 77 76 73 73 73 74 74 73 72 71
75 66 62 57 53 46 53 55 51 59 64 64 66 69 73 77 80 84 83 82 80 81 80 77 76 76 77 75 73 74 73 73 72 73 73 73 74 75 76 77 76 74 73 74 74 74 74 72 72
66 53 44 44 43 44 51 53 57 65 71 68 69 71 78 81 79 82 82 79 79 79 79 77 76 75 77 76 73 73 75 73 73 74 77 76 75 74 75 75 74 74 74 75 74 74 74 73 73
56 54 45 38 39 44 55 48 61 71 74 75 75 75 76 76 79 82 83 81 79 79 79 78 76 76 77 76 75 72 74 74 74 74 78 80 80 79 76 77 76 76 75 75 74 73 74 74 73
58 51 57 48 41 45 49 57 67 69 70 72 73 73 74 76 75 83 84 83 79 80 79 79 76 77 77 77 77 76 73 73 73 74 75 78 80 79 76 77 76 76 76 75 74 73 73 74 73
56 62 51 46 38 36 46 49 53 63 66 69 70 70 72 73 72 81 81 82 81 81 81 80 79 78 77 78 78 78 77 75 73 74 74 75 76 77 76 77 77 76 75 75 73 73 74 73 73
52 49 49 48 46 40 39 47 59 61 65 67 69 73 73 72 72 75 75 75 79 82 81 80 79 78 77 78 78 78 79 77 72 74 76 76 75 77 77 78 77 77 76 75 73 73 73 73 73
56 48 45 40 42 43 44 48 66 66 66 68 71 73 76 74 75 75 76 75 75 79 81 80 80 79 79 79 78 78 78 78 76 73 75 76 75 75 77 78 78 78 77 75 74 73 76 73 73

GFSSGP_sfc_temp_069.txt.gz
Temp
78 78 77 71 58 57 55 61 65 65 69 75 77 74 69 70 67 56 70 73 76 76 78 80 82 83 83 82 82 82 82 82 82 82 82 83 82 83 83 83 83 83 83 83 83 84 83 84 84
77 77 73 66 56 54 56 65 61 67 73 77 79 76 72 65 71 68 69 76 78 77 76 79 81 82 83 82 82 83 83 82 83 83 82 83 83 83 83 83 83 83 83 83 83 84 84 83 84
78 80 66 62 58 55 55 63 66 72 79 78 72 76 71 65 70 71 74 77 78 76 76 79 82 82 82 83 83 83 83 83 83 83 83 83 83 83 83 83 83 83 83 83 83 83 83 83 83
76 73 67 58 58 61 62 64 66 68 74 73 73 66 73 76 74 75 78 78 76 76 77 82 82 83 82 83 83 83 83 83 83 83 83 83 83 83 83 83 83 83 84 83 83 83 83 84 83
74 67 60 58 61 62 67 68 66 66 70 71 73 64 65 74 77 77 77 77 74 74 77 80 82 83 83 83 83 83 83 82 82 83 83 83 83 83 84 84 84 84 83 83 83 83 83 84 84
65 66 57 57 62 65 66 71 69 68 71 71 69 68 67 76 75 76 78 76 77 76 76 78 82 83 83 83 83 83 83 83 82 83 83 83 84 83 83 84 84 84 84 84 83 83 82 83 84
62 61 58 62 59 60 65 68 68 69 71 71 75 65 68 72 77 77 76 77 77 77 76 76 78 81 83 83 83 83 83 83 83 83 82 82 83 83 84 84 84 84 84 84 83 83 83 83 83
67 65 61 62 61 62 69 70 74 73 72 81 80 64 63 72 76 76 76 75 74 75 75 74 75 76 76 78 83 83 83 83 83 83 83 83 84 84 84 83 84 84 84 84 83 83 83 83 83
77 61 57 64 64 64 71 69 71 76 75 79 78 74 75 76 76 73 73 74 74 74 73 73 74 74 75 76 80 83 83 83 83 83 83 80 73 77 79 82 84 84 84 84 83 83 83 83 84
68 60 64 71 72 67 72 71 70 70 73 74 75 78 76 75 73 70 70 70 71 72 72 73 73 73 74 81 76 75 78 75 75 75 74 73 73 74 78 81 84 84 84 84 83 84 83 80 74
67 62 72 73 76 75 73 72 71 70 65 70 71 72 73 73 73 72 71 71 71 72 74 72 73 73 74 74 73 73 74 74 74 74 73 73 73 73 74 74 74 74 80 74 78 77 73 74 73
65 74 74 77 78 74 72 72 70 72 70 74 75 76 74 73 72 73 72 72 71 72 74 74 73 73 73 73 73 72 73 73 73 73 73 71 71 71 71 71 72 73 73 73 72 71 73 74 74
68 73 76 78 79 75 73 70 70 68 71 74 77 77 75 74 74 76 76 75 73 72 74 74 74 72 72 73 72 72 72 73 74 72 73 72 70 70 71 71 72 72 73 72 75 71 73 72 75
74 74 75 76 73 73 71 70 73 70 72 73 74 76 76 76 76 77 76 74 74 75 74 74 74 73 72 72 72 72 72 73 74 73 73 73 70 70 71 71 71 71 71 72 72 71 73 72 73
74 68 72 70 70 71 74 66 69 72 73 69 75 78 79 77 79 77 76 75 76 76 76 74 73 74 73 73 73 73 73 75 73 73 73 73 72 72 72 71 70 71 71 73 72 72 73 73 74
66 62 57 67 71 73 72 61 69 71 70 70 75 79 78 78 79 79 79 78 78 77 75 75 80 75 74 72 73 73 73 74 73 73 73 74 73 73 72 70 70 72 72 72 71 71 71 71 72
58 52 57 61 69 71 67 60 68 71 72 70 73 78 78 78 80 79 80 80 79 77 75 75 76 74 74 73 73 76 74 74 74 73 72 73 74 74 72 71 71 72 71 71 72 71 71 70 71
52 53 55 59 66 67 63 62 66 69 70 71 73 76 78 77 78 80 80 81 80 77 77 77 77 75 74 72 72 74 75 72 73 74 72 74 74 75 71 71 72 72 71 72 72 71 71 71 71
60 57 57 64 70 64 63 60 63 66 68 69 71 74 77 77 81 82 81 81 79 78 77 77 76 73 74 71 70 70 71 71 72 73 74 73 74 74 72 71 72 71 70 71 73 71 72 71 71
60 56 56 64 68 65 62 59 63 65 68 70 71 74 76 77 77 80 80 80 78 77 77 76 76 73 74 73 71 72 71 71 72 74 73 73 76 75 74 73 72 72 71 71 71 71 69 69 70
56 52 56 59 65 64 62 57 60 64 67 68 70 72 76 78 77 78 77 78 78 77 75 76 76 74 73 73 72 70 71 72 71 72 73 75 75 75 76 74 73 72 70 70 71 71 71 69 69
49 63 65 64 57 51 60 46 59 63 63 64 67 70 71 76 80 79 77 77 78 77 77 77 76 74 73 73 72 71 71 69 71 72 71 74 76 76 74 75 74 72 71 71 72 73 70 70 69
60 67 64 64 55 51 55 49 56 60 59 62 66 69 72 74 80 78 78 78 80 79 77 77 75 74 75 74 75 72 70 71 72 72 72 72 74 75 77 75 74 73 71 71 72 72 71 70 69
71 62 57 52 50 44 50 51 53 56 61 64 67 68 73 77 78 80 80 80 79 80 78 77 75 74 74 74 72 72 72 71 71 70 71 71 72 73 74 76 74 73 72 72 72 72 72 71 71
60 51 42 42 42 43 47 51 55 67 69 69 68 69 73 77 76 78 78 78 78 78 77 76 75 74 74 74 73 72 74 72 71 71 71 71 71 72 73 73 73 72 73 73 72 72 72 72 71
54 52 43 37 38 44 49 47 57 67 70 72 73 73 74 75 76 79 80 78 78 78 77 76 75 75 75 75 73 72 73 74 73 72 72 74 76 76 75 74 74 73 73 73 73 72 72 72 72
53 47 51 43 39 44 46 54 63 67 67 67 70 71 71 74 76 80 80 80 78 78 77 76 75 76 76 76 75 72 73 73 73 72 72 75 76 77 75 75 74 74 74 73 73 72 72 72 71
54 55 46 44 37 36 43 46 49 57 61 65 66 68 71 73 73 76 80 79 80 80 79 79 77 76 77 77 77 75 74 73 72 72 72 73 74 75 74 74 73 74 74 74 72 72 72 72 71
48 44 42 43 41 37 37 44 58 58 60 62 64 69 69 73 73 72 77 81 80 81 80 79 78 77 77 77 78 78 75 72 71 72 73 73 74 74 74 74 74 74 74 73 72 72 72 72 71
51 44 39 36 37 38 40 42 61 60 63 64 63 65 69 74 73 72 73 74 75 76 78 77 79 78 77 78 78 77 77 74 72 72 72 73 73 73 74 74 74 74 75 73 73 72 74 71 71

GFSSGP_sfc_temp_072.txt.gz
Temp
78 77 76 70 58 57 54 59 63 66 67 73 74 71 67 68 65 55 68 72 75 75 76 80 82 83 83 82 82 82 82 83 82 82 83 83 82 82 83 83 83 83 83 83 83 83 84 84 84
76 76 71 65 55 53 56 65 62 67 72 75 75 73 69 63 69 68 69 75 77 76 76 78 81 82 83 82 82 83 82 83 82 82 83 83 83 83 83 83 83 83 83 84 84 84 84 84 83
77 79 66 62 57 54 55 63 64 69 76 75 70 73 69 64 70 69 73 77 77 75 76 78 82 82 83 83 83 83 83 83 82 83 83 83 83 83 83 83 83 83 83 83 83 83 84 84 83
74 70 65 58 57 63 62 64 66 68 74 73 72 65 70 75 72 73 76 77 74 75 76 81 82 83 83 83 83 83 83 83 82 83 83 83 83 83 84 83 83 83 82 83 83 84 82 83 84
72 66 59 58 61 61 67 68 67 66 69 68 72 64 64 72 74 75 76 76 74 73 76 80 82 83 83 83 83 83 83 83 82 83 83 83 83 84 83 84 83 82 83 84 83 83 83 84 84
64 65 58 56 60 63 67 70 68 67 67 67 67 65 65 73 73 74 76 74 76 75 76 78 82 83 83 83 83 82 82 82 82 82 83 83 83 83 83 84 84 84 84 84 83 83 83 84 84
61 61 57 60 60 60 64 69 67 68 68 67 72 65 67 70 74 75 74 75 76 76 76 76 78 81 83 83 82 83 83 82 82 83 82 82 83 83 84 83 84 84 84 84 83 83 83 83 83
66 65 61 64 61 60 67 69 71 72 70 78 76 63 64 71 74 74 74 73 73 74 75 75 76 76 77 78 83 83 83 83 82 82 83 83 83 83 83 82 84 84 84 84 83 83 83 83 83
76 61 58 64 62 63 71 66 68 72 74 78 77 73 73 74 74 73 73 73 75 74 73 74 74 74 75 77 80 82 83 83 83 82 83 76 75 78 79 83 84 84 84 83 83 83 83 84 84
67 58 61 72 69 66 69 70 70 71 73 69 69 72 73 74 73 72 72 72 73 73 72 73 73 74 75 80 76 76 79 76 76 76 75 74 75 76 79 82 84 84 84 84 84 84 83 79 78
69 60 68 72 74 74 70 70 74 70 66 69 65 68 71 71 72 72 70 71 73 75 75 72 73 74 75 74 74 74 75 75 75 74 74 74 75 75 76 76 76 76 79 77 79 77 76 77 76
64 70 72 74 74 72 70 70 69 72 70 73 72 72 71 69 69 69 69 70 71 74 74 72 73 73 73 74 74 74 74 74 74 74 74 73 73 73 73 74 74 74 75 75 75 74 76 76 76
67 70 72 75 74 75 74 72 67 68 72 77 74 73 71 70 71 73 72 72 70 73 72 72 73 72 73 73 72 73 74 74 75 74 74 73 72 72 73 74 74 74 75 75 74 74 76 75 77
72 71 72 71 69 71 69 69 72 70 72 72 73 71 73 73 72 73 72 70 70 71 71 72 72 72 72 72 72 72 74 75 75 73 74 74 72 72 73 74 74 74 74 74 75 74 75 75 76
71 65 69 67 67 68 73 65 67 71 71 70 71 72 73 75 76 73 75 72 72 72 72 72 72 72 72 72 72 73 74 76 75 74 74 74 73 73 73 73 73 74 74 75 75 74 76 76 77
63 61 56 64 68 70 69 62 68 71 70 68 71 72 73 75 76 76 76 76 74 73 72 72 78 73 72 72 73 73 74 74 74 74 74 75 74 74 74 73 73 74 75 75 75 74 75 75 76
57 51 55 60 70 68 64 60 67 71 70 67 71 72 74 74 76 77 77 76 75 74 73 72 74 72 72 72 73 73 74 74 74 74 73 74 75 75 73 72 74 75 74 74 75 74 74 74 75
51 52 53 56 64 65 61 59 64 68 69 69 72 73 73 74 76 77 77 77 77 75 74 74 75 72 72 72 72 73 73 73 73 74 73 74 75 75 73 73 74 75 74 74 75 74 74 75 75
59 57 55 61 66 62 60 59 62 66 69 68 71 73 73 75 79 78 78 78 77 74 73 73 73 71 72 71 70 71 71 72 73 74 75 75 75 75 73 73 74 74 74 74 75 75 75 74 74
58 55 54 62 65 61 58 56 61 66 67 69 70 71 73 75 76 76 77 77 77 74 74 72 73 71 73 74 72 73 72 73 73 73 75 75 75 74 74 73 74 74 74 74 74 74 73 73 74
52 51 54 59 61 61 60 59 58 63 68 68 69 72 74 76 74 76 75 77 77 74 74 73 73 72 73 72 72 71 72 72 73 73 74 75 76 76 75 75 74 73 73 73 74 74 74 73 72
43 61 64 64 55 49 58 47 55 59 60 64 65 68 70 75 76 76 76 75 75 75 76 75 74 72 73 72 72 72 71 71 72 73 73 76 76 76 76 75 74 74 73 74 74 76 74 74 73
58 63 62 61 53 49 52 49 52 58 57 61 65 68 70 72 77 75 76 76 77 77 76 76 74 72 73 73 73 73 71 72 72 73 73 74 75 77 76 76 75 74 74 74 75 75 74 74 73
67 59 54 52 48 43 47 50 50 53 58 63 68 70 72 74 75 77 78 77 77 78 77 76 73 72 73 73 72 72 72 71 71 72 73 73 74 75 76 77 76 75 74 74 75 76 76 75 74
58 50 40 40 41 42 45 49 52 61 70 68 70 71 73 75 75 76 76 76 76 75 76 75 73 72 72 72 72 72 73 72 72 72 73 72 73 74 75 76 75 73 75 75 75 75 75 75 75
52 50 42 36 36 43 47 45 53 64 67 69 71 71 74 74 76 77 77 76 76 76 76 75 74 73 72 73 72 72 72 74 73 73 73 74 74 76 76 76 76 76 75 76 75 75 76 76 76
51 45 48 41 36 42 45 50 60 65 65 65 66 68 68 71 74 76 76 77 76 76 75 75 74 74 74 74 73 71 72 72 73 73 74 74 75 78 77 76 76 76 75 75 75 75 75 75 75
53 51 45 43 37 35 42 43 45 53 56 60 60 61 65 69 70 74 76 77 77 78 77 77 76 75 75 75 75 74 73 73 73 74 73 74 75 76 76 76 76 76 75 76 75 75 75 75 76
46 43 41 42 39 37 36 41 54 52 56 57 59 61 63 67 70 72 75 78 78 79 78 77 77 76 75 76 75 75 73 73 72 74 74 74 75 75 75 76 77 76 75 75 73 74 75 75 75
47 41 38 40 38 36 38 41 54 56 58 59 60 62 63 65 69 70 71 71 72 72 76 74 77 77 77 76 75 74 73 73 73 73 74 74 75 75 75 76 76 76 76 76 76 75 77 75 75

GFSSGP_sfc_temp_075.txt.gz
Temp
82 83 82 76 64 64 61 62 65 65 69 77 79 75 73 75 70 66 80 83 85 85 87 85 82 83 83 82 82 82 83 83 83 83 83 83 82 83 83 83 83 83 83 84 84 84 84 84 84
82 80 79 71 63 57 57 68 64 69 76 79 80 78 73 68 74 72 78 84 86 87 88 87 81 82 83 83 83 83 83 83 83 83 83 83 83 83 83 83 83 83 84 84 83 84 84 83 83
82 80 70 66 62 55 56 63 65 73 78 78 74 78 73 67 73 78 84 86 87 86 88 86 82 82 83 83 83 83 83 83 83 82 82 83 82 82 84 83 83 83 84 84 84 84 84 83 83
80 77 74 62 60 61 62 63 70 73 77 77 77 69 74 78 77 81 85 87 87 86 89 84 83 83 83 83 83 83 83 83 83 83 82 83 83 84 83 83 83 83 83 83 84 84 83 84 83
82 75 65 61 62 62 67 69 71 74 70 72 76 67 67 76 80 83 84 87 86 87 88 88 83 83 83 83 83 83 83 83 82 82 83 83 83 83 84 83 83 83 83 83 84 84 84 84 83
72 72 62 61 61 63 68 71 72 68 68 70 71 71 68 78 79 82 86 86 88 87 88 88 83 83 83 83 83 83 83 82 82 83 83 82 83 82 84 84 84 84 84 84 84 84 84 84 83
71 67 63 63 62 61 66 73 67 68 68 66 75 69 68 74 81 83 85 86 87 88 87 87 88 85 83 83 83 83 83 82 83 82 83 83 83 83 83 84 85 84 84 84 83 84 83 83 83
75 68 62 65 62 62 69 69 70 72 68 77 80 68 65 73 81 83 84 85 85 86 87 86 86 87 87 86 83 83 83 83 82 83 83 83 83 83 83 82 84 84 84 84 84 83 84 83 83
79 63 61 67 67 65 72 66 68 72 75 79 79 76 77 79 81 81 78 80 82 83 86 87 87 85 84 85 85 84 83 83 83 84 81 83 87 87 88 84 84 84 84 84 83 84 84 84 83
73 67 67 75 74 70 69 67 69 71 74 71 74 78 77 77 79 76 75 75 78 79 84 86 85 85 86 88 86 85 87 86 85 85 84 86 86 86 88 86 84 84 84 84 84 83 82 86 91
71 68 75 77 77 77 69 68 73 72 69 72 68 70 74 74 77 76 78 79 80 80 83 85 84 84 86 85 86 87 87 86 85 83 84 84 85 86 88 87 88 87 84 89 89 88 89 86 88
67 75 76 77 79 76 72 75 70 73 70 77 75 75 74 73 77 78 79 80 80 78 81 84 84 83 84 85 86 86 85 86 86 85 83 83 85 84 84 86 86 85 88 85 86 88 86 86 85
71 75 79 81 79 78 77 74 71 68 73 77 76 74 73 74 78 80 81 82 81 77 81 83 83 82 82 82 84 85 85 87 86 85 84 85 85 83 85 84 86 86 87 88 86 86 87 85 87
76 78 79 79 80 78 76 74 73 70 76 73 75 76 76 77 79 79 78 79 79 80 81 83 82 82 83 83 81 83 85 86 87 86 86 82 85 83 85 85 85 87 88 87 87 85 87 87 88
78 74 77 75 76 74 78 68 72 74 75 72 76 76 78 79 80 79 80 80 81 81 82 81 82 83 82 81 83 84 85 87 87 88 84 84 83 83 83 86 86 87 86 85 86 86 87 88 88
74 74 71 72 76 74 73 63 72 72 72 70 72 76 77 79 80 82 83 82 82 83 80 82 85 83 83 82 83 84 86 87 87 87 87 84 84 83 83 86 87 87 87 88 88 88 88 87 88
71 68 69 68 75 73 70 69 69 73 71 69 71 75 78 78 79 81 83 83 83 83 81 81 82 82 82 82 84 84 84 86 87 88 87 83 84 83 83 86 87 85 88 88 89 87 87 87 88
65 67 69 68 72 74 70 70 69 72 72 72 74 76 78 78 80 83 85 84 84 83 82 82 83 81 81 83 82 84 85 85 86 86 87 83 86 83 84 86 85 86 88 88 88 85 86 87 87
70 69 68 71 74 73 72 71 71 73 70 72 74 76 78 78 81 84 85 85 84 83 81 81 80 80 81 81 82 83 83 84 85 86 84 84 84 83 82 84 85 85 86 85 84 85 84 87 87
70 68 68 71 74 73 70 66 70 72 70 74 75 76 78 80 79 81 84 85 84 82 81 80 80 80 80 83 83 84 84 85 86 85 84 84 84 83 83 82 84 84 86 84 83 84 86 87 87
68 68 67 69 71 70 69 64 65 70 73 74 76 80 81 81 81 77 82 83 84 82 81 80 80 80 81 82 82 81 82 83 83 84 85 85 85 84 83 83 84 84 85 86 83 84 83 85 85
65 72 71 69 69 66 69 62 64 68 69 72 74 77 80 82 83 80 82 83 84 83 83 82 81 80 81 81 81 80 83 83 86 85 86 86 85 85 84 84 84 83 86 83 85 86 86 84 85
68 72 71 70 68 67 65 67 65 67 66 69 71 75 80 83 84 83 82 84 86 85 84 83 81 80 81 80 81 82 82 86 87 86 83 84 83 85 86 83 83 83 85 84 84 83 83 87 87
74 70 68 67 69 61 66 68 63 67 68 71 74 73 78 82 84 85 86 86 85 86 85 83 80 79 80 80 81 80 81 83 84 84 84 85 86 87 85 85 84 83 84 83 85 84 83 84 85
72 68 59 58 58 60 63 66 62 68 70 70 70 75 78 82 83 84 83 84 84 84 83 83 80 79 80 80 81 81 81 82 82 83 85 84 85 86 85 84 82 81 83 84 84 83 83 84 85
68 70 61 51 54 60 62 61 62 70 71 70 72 76 82 83 85 85 84 84 83 83 83 82 81 79 80 80 80 81 81 85 86 84 87 86 87 87 86 85 85 84 84 84 83 85 86 85 85
64 63 68 61 58 62 63 65 70 69 67 66 67 68 71 80 84 85 85 85 84 83 83 82 81 80 81 82 81 80 81 81 84 84 84 87 85 88 86 86 85 85 84 84 84 86 81 82 84
66 66 62 63 52 53 55 56 59 58 57 60 62 62 66 72 78 84 86 85 85 86 85 84 83 81 82 83 83 83 82 82 83 83 83 84 86 85 86 85 86 85 85 84 83 84 84 83 86
64 62 59 64 59 57 53 55 61 54 56 57 60 62 63 72 77 81 85 87 86 86 86 85 84 82 82 82 83 83 83 83 82 83 83 84 85 85 84 84 85 85 85 84 83 83 85 83 83
60 55 56 61 54 55 61 54 62 61 59 59 60 61 64 66 70 76 79 83 85 83 85 85 85 84 83 82 82 79 82 83 83 81 83 84 83 85 85 85 84 85 85 85 83 83 85 82 83

GFSSGP_sfc_temp_078.txt.gz
Temp
85 91 91 86 74 73 62 61 69 70 77 83 87 82 81 82 77 71 92 95 93 94 93 89 83 83 83 83 83 83 83 83 83 83 83 83 83 83 83 83 84 84 84 84 84 84 83 84 83
92 89 86 81 71 60 60 71 66 75 83 86 86 85 81 74 83 84 88 93 94 96 97 93 82 83 83 83 83 83 83 83 83 83 83 83 83 84 83 84 84 84 84 84 84 84 84 84 84
90 88 78 70 69 57 62 68 71 79 85 85 82 87 82 75 84 89 94 94 96 96 97 90 83 83 83 83 83 83 83 83 83 83 83 83 83 84 84 84 83 84 84 84 84 84 84 84 84
88 86 82 67 64 60 64 69 76 80 82 84 84 77 80 84 88 92 95 96 96 96 98 85 83 83 83 83 83 83 83 83 83 83 83 83 84 83 84 84 84 83 84 84 84 84 84 84 84
90 85 68 68 60 62 73 75 80 78 80 82 85 75 73 85 90 93 94 97 96 98 96 93 83 83 83 83 83 83 83 83 83 83 84 83 84 84 84 84 84 84 84 84 84 85 85 84 84
76 84 68 62 60 67 75 76 78 78 79 79 81 78 74 86 89 93 96 97 98 97 98 92 84 83 83 83 83 83 83 83 83 83 83 83 84 84 84 84 84 84 84 84 84 84 84 83 83
75 73 68 68 62 64 70 79 72 76 77 77 84 73 77 85 90 94 96 97 98 99 97 94 94 86 84 83 83 83 83 83 83 83 83 83 84 84 84 85 84 84 84 84 84 84 84 83 83
82 77 68 72 70 61 71 70 74 76 72 80 87 76 74 85 91 94 95 96 96 96 96 95 95 92 93 91 82 83 83 83 83 83 84 84 84 84 84 83 84 85 84 84 84 83 83 83 83
86 72 67 70 69 68 71 68 70 72 73 78 85 86 87 89 91 91 91 92 93 93 95 95 97 93 90 90 87 84 83 83 83 83 82 86 94 93 90 84 84 84 84 84 84 83 84 83 83
77 70 71 79 79 73 70 69 70 69 72 79 82 88 88 88 88 88 88 88 90 91 95 96 94 92 93 95 90 90 91 89 92 90 91 94 93 92 92 87 84 84 84 84 84 84 84 90 96
79 74 81 84 83 80 74 70 78 74 75 80 77 81 85 85 87 86 88 90 91 93 94 95 90 91 93 89 94 94 94 93 91 89 92 91 93 93 95 92 93 92 88 94 92 92 97 93 96
73 82 84 85 86 79 74 78 76 80 78 87 83 85 85 85 87 87 89 90 91 90 92 94 92 90 92 93 95 94 93 94 93 91 89 89 92 91 91 93 92 93 95 92 94 94 92 92 92
77 83 85 86 79 81 82 77 75 69 79 84 83 85 85 87 88 89 92 92 91 89 92 92 91 89 89 89 93 93 92 95 93 92 90 92 92 89 92 90 93 93 96 94 93 93 93 92 94
84 84 85 87 85 86 81 79 78 76 81 78 79 84 86 87 89 89 90 89 89 89 90 92 90 89 90 89 88 90 93 93 94 94 91 89 93 90 91 91 92 93 95 94 94 92 93 94 95
85 81 85 84 87 83 86 75 76 78 82 76 81 83 85 88 90 88 89 89 90 90 90 90 90 91 88 88 89 92 93 95 94 93 90 90 91 89 90 92 94 93 91 91 93 94 95 95 95
81 83 79 83 85 83 83 70 78 77 78 76 83 84 85 87 89 90 91 91 91 91 88 89 93 91 89 89 89 92 94 95 95 95 93 90 89 88 89 93 95 93 94 95 95 96 94 95 95
80 77 78 77 84 82 81 72 72 79 77 80 83 85 85 86 88 90 92 92 91 90 88 88 90 90 89 88 90 92 90 94 95 95 95 90 90 89 92 94 93 91 95 95 97 94 93 93 94
74 77 78 77 80 83 79 77 78 72 71 74 76 79 86 87 88 90 92 92 92 91 89 88 90 88 88 89 89 92 93 93 94 95 94 90 92 90 91 92 92 92 95 94 94 91 93 94 94
82 80 78 79 84 82 81 81 76 76 75 68 71 76 84 87 90 92 92 92 92 91 89 87 87 86 87 88 89 90 90 92 93 94 90 90 91 89 88 93 91 92 93 90 91 92 89 93 94
79 78 78 79 82 82 81 79 81 73 79 79 78 78 83 89 88 90 91 92 92 90 88 86 86 85 86 89 89 92 92 93 94 94 91 91 91 89 90 89 91 90 93 89 90 89 93 95 95
79 78 77 77 80 82 80 73 75 80 74 82 83 85 88 88 88 88 90 91 92 90 88 87 86 86 86 89 89 88 89 90 90 91 92 91 90 90 89 88 92 89 90 92 89 90 88 92 93
74 81 78 78 77 73 82 63 73 77 73 72 78 85 88 89 90 90 90 90 92 91 91 88 86 86 87 87 88 86 88 89 93 92 93 92 91 90 89 90 89 88 93 90 90 93 91 88 90
77 82 79 78 77 76 76 74 72 78 75 70 74 77 82 90 91 91 90 91 93 93 92 90 87 86 87 86 87 88 86 92 93 94 89 89 89 90 91 89 89 88 92 89 90 89 88 93 92
83 78 77 79 79 67 77 76 71 74 73 78 77 84 84 83 92 92 92 93 93 94 93 91 86 84 86 86 85 85 86 87 91 90 90 92 93 92 90 90 89 88 90 89 90 89 88 89 90
79 76 65 63 65 67 79 75 70 73 75 76 74 79 86 88 88 91 91 91 92 92 92 91 87 84 85 86 86 86 86 86 86 86 90 91 93 93 89 89 87 90 88 88 89 86 88 88 90
75 77 69 57 62 68 75 68 67 76 77 77 77 82 86 90 93 92 92 92 92 92 91 91 88 84 85 86 85 86 86 90 90 90 93 93 94 94 93 90 90 90 90 90 89 90 91 90 90
75 72 83 73 77 72 73 69 75 76 73 72 68 71 75 87 91 92 93 93 93 92 91 90 88 86 86 88 87 86 86 86 90 90 90 93 92 95 92 92 90 90 90 89 88 91 88 88 88
77 82 70 73 60 60 67 66 67 65 63 64 62 63 69 83 84 92 93 93 94 94 94 92 91 88 88 88 89 89 88 87 88 89 87 89 92 91 92 90 91 90 90 90 88 90 89 87 90
72 72 74 79 74 66 61 65 67 61 60 60 60 62 65 67 75 79 89 92 94 95 95 94 92 90 89 89 88 88 90 89 88 88 88 88 90 90 90 90 89 89 90 90 88 88 90 88 88
71 70 74 68 65 72 72 61 71 69 63 63 61 61 64 66 65 66 70 83 93 93 94 94 94 92 92 89 86 87 87 89 90 88 89 89 88 90 90 90 87 90 90 90 88 88 91 88 88

GFSSGP_sfc_temp_081.txt.gz
Temp
85 90 95 90 70 72 62 61 78 78 79 91 94 90 85 85 76 70 95 98 93 93 92 89 83 83 83 83 83 82 83 83 83 83 83 84 83 84 84 84 84 84 84 85 84 84 84 84 83
98 93 91 77 71 55 61 66 72 78 87 93 91 89 84 79 90 90 93 97 99 98 97 92 82 83 83 83 83 84 84 83 83 83 83 84 84 84 84 84 84 84 84 84 84 84 84 83 83
93 95 74 68 65 58 63 69 75 84 90 90 88 91 84 81 91 93 97 99 100 97 96 89 83 83 83 83 83 83 84 83 83 83 84 84 84 84 84 84 84 84 84 84 84 84 84 84 84
91 84 79 67 60 61 68 76 81 84 90 92 89 79 86 95 94 97 99 101 99 98 97 85 83 83 84 83 84 83 84 84 83 83 84 84 84 84 84 84 84 84 84 85 84 83 84 84 84
91 78 66 59 59 62 74 78 84 81 86 88 88 80 82 93 99 99 100 99 98 94 95 92 83 84 84 83 84 83 84 84 84 83 84 84 84 84 84 84 84 84 84 85 85 84 84 84 83
70 76 63 67 64 70 77 82 80 79 84 85 83 80 79 94 95 98 101 98 97 99 94 92 83 83 84 83 84 83 83 83 83 83 84 84 84 84 84 84 85 85 84 85 85 84 84 83 83
70 72 69 70 66 68 73 78 76 81 84 81 90 80 84 91 97 100 99 97 98 96 98 95 93 86 84 83 83 83 83 83 83 84 84 84 84 85 85 84 84 84 85 85 85 84 84 83 83
83 76 72 74 71 66 77 74 80 83 78 91 93 79 80 91 98 101 99 95 92 98 99 93 94 93 91 90 83 84 83 84 84 84 84 84 84 85 85 83 84 85 85 85 85 84 84 83 83
91 72 70 72 75 67 77 71 75 81 83 88 90 91 92 95 99 99 95 90 90 97 99 98 89 86 86 89 87 84 84 84 84 84 84 83 87 91 88 84 84 85 84 85 85 84 84 83 83
86 73 75 80 85 76 74 75 73 75 78 82 88 94 94 95 95 94 93 90 95 96 99 96 91 92 87 95 90 90 90 80 88 89 87 86 87 91 92 87 84 85 85 85 85 85 85 83 92
82 72 81 82 86 82 77 72 78 72 74 82 83 88 90 92 93 94 95 96 97 98 95 89 88 87 94 92 89 85 94 89 85 85 94 93 90 92 94 90 91 91 86 92 87 85 84 95 97
80 83 85 83 86 82 76 80 75 77 78 87 89 91 91 91 93 95 95 97 96 96 97 89 91 93 91 96 91 96 95 94 94 93 92 92 95 94 89 93 94 84 89 93 84 95 94 94 96
83 84 89 90 83 85 86 80 79 79 86 87 91 91 90 92 93 95 97 98 96 95 96 96 94 92 92 90 97 96 95 97 94 94 93 87 90 84 86 85 82 92 91 95 90 88 90 87 96
87 87 89 92 82 84 82 80 82 82 85 86 87 89 91 93 93 94 95 95 94 94 95 95 93 91 92 89 92 91 94 96 97 95 93 93 92 84 88 85 85 85 88 86 88 82 88 86 91
91 84 90 91 90 86 85 76 74 82 83 79 86 89 91 93 95 93 95 94 94 95 95 93 93 93 90 91 92 94 92 91 97 94 92 92 92 91 91 91 79 86 93 92 93 92 93 91 96
86 88 79 89 91 90 80 68 79 85 82 80 85 87 90 92 94 94 96 96 95 95 92 93 97 94 92 91 88 91 85 82 86 94 94 92 91 92 89 86 84 94 90 85 89 90 87 94 88
84 80 80 82 90 88 83 70 72 86 84 83 83 88 90 91 93 94 96 96 95 94 92 91 94 93 92 90 93 87 90 84 87 86 86 92 92 91 87 85 90 92 93 90 84 89 91 89 88
78 81 82 79 87 83 72 75 81 78 78 81 81 86 89 90 92 93 95 97 95 94 92 91 93 91 91 91 92 93 95 87 89 87 86 92 88 92 90 91 92 82 88 86 87 86 83 82 91
88 85 73 82 89 82 82 76 79 74 73 72 80 83 88 90 91 93 93 96 95 93 91 90 90 88 90 90 91 93 93 93 85 85 92 92 93 92 90 90 92 90 83 81 92 90 90 90 95
85 84 82 86 89 81 69 76 78 77 72 69 71 82 85 88 88 89 91 94 95 92 90 89 89 87 88 91 91 94 92 96 89 84 92 93 93 91 92 91 88 90 81 90 90 83 88 94 90
84 84 82 81 84 89 86 78 77 80 75 71 71 79 85 85 86 85 86 90 95 91 90 88 88 86 88 91 91 91 91 93 93 88 93 93 93 92 91 90 86 91 86 89 90 91 81 81 93
79 89 86 84 81 75 87 61 78 77 79 69 73 76 86 84 86 88 88 88 95 92 92 90 88 87 88 89 90 85 88 90 93 91 85 88 93 93 91 91 91 90 86 84 91 94 90 88 83
82 90 84 84 82 82 80 70 58 78 76 68 68 75 81 85 86 87 90 89 97 95 93 91 88 87 88 88 86 90 83 84 93 82 89 82 90 92 92 92 91 89 88 91 90 90 89 84 89
91 86 84 84 82 72 80 77 56 70 74 76 71 82 82 79 89 86 90 90 97 96 95 93 88 86 87 87 87 87 88 87 84 88 90 86 89 93 91 91 90 90 90 90 91 90 90 88 89
85 80 68 66 68 69 84 76 64 79 82 80 77 82 74 82 85 88 84 87 95 94 94 93 88 85 87 87 87 87 87 88 88 89 92 81 79 86 89 90 89 90 89 90 91 88 88 89 89
80 80 71 59 65 72 84 70 71 81 82 79 82 81 88 89 86 83 92 92 89 95 94 93 89 86 87 87 87 88 88 90 91 91 87 86 83 84 90 91 91 90 91 90 90 90 91 91 90
79 74 87 79 81 76 76 72 77 80 76 71 70 78 84 92 88 88 91 88 91 93 94 93 91 88 88 89 88 87 88 88 91 92 92 94 90 85 93 93 91 91 91 91 89 90 90 89 88
80 87 75 78 64 64 71 68 70 71 68 65 63 65 72 88 75 70 82 92 90 91 96 95 94 90 90 90 90 90 89 89 89 91 90 92 93 93 79 92 90 91 91 91 89 89 90 88 91
77 76 80 83 79 70 63 65 76 69 65 61 61 63 64 68 70 70 77 79 81 95 97 97 95 93 91 91 91 90 91 91 90 90 90 90 91 91 92 91 91 90 90 91 88 89 85 88 88
81 79 80 72 69 77 73 61 77 72 69 64 61 63 66 68 68 66 70 72 73 72 81 94 97 96 95 93 91 91 90 91 91 89 90 90 89 90 90 91 89 90 90 91 89 89 92 90 88

GFSSGP_sfc_temp_084.txt.gz
Temp
83 87 88 82 65 61 61 63 74 78 82 91 93 87 81 82 79 65 90 92 91 88 86 85 83 83 83 83 83 83 83 83 83 83 83 83 84 84 84 84 84 83 84 84 84 84 84 84 84
91 91 89 76 62 53 60 66 70 77 89 92 90 86 83 77 86 85 86 92 93 91 90 86 82 82 83 83 82 83 83 83 83 83 84 84 83 83 84 84 84 84 84 84 84 84 84 84 84
87 94 72 65 62 57 58 68 73 85 91 90 82 87 86 81 89 89 92 94 94 92 90 84 82 83 83 83 83 83 83 83 83 83 83 84 84 84 84 84 84 84 84 84 84 84 84 84 84
90 81 78 61 57 63 64 72 83 86 89 87 86 81 89 95 91 95 97 94 89 90 89 84 83 83 83 83 83 83 83 83 83 83 84 84 84 84 84 84 84 84 84 84 84 84 84 84 84
88 75 62 59 59 62 66 82 83 82 82 84 86 80 83 91 97 98 96 93 92 90 88 86 83 83 83 84 83 83 84 83 83 83 84 84 84 84 84 84 84 85 84 84 84 84 84 84 83
70 71 62 60 62 64 76 80 81 79 83 83 84 82 83 94 95 95 96 91 92 91 90 87 83 83 83 83 83 83 83 83 83 83 84 84 84 84 84 84 84 85 85 84 84 84 83 83 83
71 67 65 69 66 66 72 79 80 81 81 81 87 77 85 91 96 95 96 89 95 94 90 88 87 84 84 83 83 83 84 84 84 84 84 84 84 84 84 84 85 85 86 85 84 84 83 83 83
77 71 67 71 68 63 77 76 77 79 78 89 91 77 79 90 97 94 91 81 88 95 93 90 87 87 85 86 84 84 83 84 84 84 84 84 85 85 84 84 84 85 86 85 84 84 83 83 83
83 67 67 67 72 69 79 72 74 84 85 86 90 89 91 96 96 90 92 87 80 93 91 91 89 80 84 85 84 84 84 83 84 84 83 82 85 86 86 84 84 85 86 85 84 84 83 83 84
68 70 71 81 79 74 78 77 73 78 83 83 87 92 94 96 89 87 86 88 91 87 84 77 88 87 88 91 84 84 83 85 85 84 82 78 85 86 87 85 84 85 85 85 84 85 79 84 86
75 74 80 81 84 80 76 74 76 79 78 83 83 86 91 94 93 90 90 90 92 86 89 91 86 86 90 87 86 78 81 84 87 86 82 84 85 84 86 84 84 84 84 85 84 84 84 83 82
67 85 86 84 86 80 76 76 75 75 76 90 90 91 91 91 93 91 88 90 86 85 90 92 85 78 86 89 88 83 82 88 87 88 81 80 85 81 82 80 79 78 80 74 75 85 87 88 88
75 83 88 86 86 83 84 79 73 71 72 89 91 91 90 92 94 96 96 94 90 88 89 91 84 78 87 84 83 86 85 90 89 84 85 84 82 83 82 74 79 76 84 75 77 75 83 81 87
84 86 87 88 83 86 82 76 79 73 72 84 87 88 91 92 94 94 95 93 93 89 87 92 89 89 88 89 86 86 84 90 90 88 83 84 85 81 74 76 77 79 86 81 77 79 84 82 86
87 78 84 86 86 83 84 74 74 83 81 82 87 88 91 92 94 93 94 92 93 93 90 90 89 90 88 89 85 88 83 85 89 88 90 86 85 80 76 73 76 80 86 87 76 83 84 84 87
82 82 76 85 87 85 81 65 76 81 83 83 85 87 90 91 93 94 95 94 93 93 88 90 94 90 89 88 87 80 74 78 88 89 88 89 89 89 83 78 79 84 78 81 73 84 83 83 84
84 75 76 81 88 84 81 63 69 82 82 82 82 86 89 90 91 93 95 94 93 90 88 88 88 89 85 85 88 79 80 78 84 87 84 86 88 90 86 82 82 83 76 82 82 82 82 82 81
75 77 77 79 85 83 77 71 72 78 79 80 81 84 88 89 90 93 94 95 93 91 89 88 89 87 85 86 83 85 81 78 83 83 84 88 86 89 84 84 84 75 84 83 80 82 81 82 81
85 84 71 75 76 82 78 71 75 79 81 77 80 81 87 89 92 93 94 95 93 90 88 88 84 85 85 86 84 82 84 82 81 86 88 81 82 88 86 83 84 79 81 80 85 83 82 84 84
83 81 79 78 80 68 74 71 74 79 79 76 80 81 85 89 89 90 92 93 92 88 87 86 84 83 85 85 84 86 82 86 84 82 87 86 84 88 87 81 81 78 78 84 83 78 81 83 83
82 81 77 75 72 65 63 65 61 75 77 72 70 73 84 88 86 87 87 91 91 87 86 85 83 83 84 86 86 88 86 83 83 81 86 89 87 88 82 86 82 81 82 80 83 85 82 79 82
78 88 79 80 74 61 66 59 65 72 72 71 71 72 72 86 87 87 86 90 90 88 88 85 85 83 84 85 85 86 84 83 85 83 83 86 88 88 89 88 84 79 77 77 81 85 81 82 80
81 90 82 85 81 80 80 72 65 68 65 67 65 70 72 76 87 85 87 90 89 90 89 86 84 82 84 85 85 84 83 76 78 81 80 82 87 89 89 87 88 82 80 77 81 86 84 80 80
90 86 85 84 81 69 77 75 62 64 61 69 72 70 66 70 84 84 89 87 87 91 90 87 83 82 84 84 84 83 84 76 72 77 78 79 84 86 86 88 86 84 78 78 84 86 86 83 83
85 79 68 65 66 66 82 77 64 64 68 68 75 70 67 67 72 81 87 88 87 88 88 86 83 82 83 83 84 84 84 83 83 79 76 79 75 76 81 85 84 84 83 81 84 85 84 85 82
80 79 70 58 62 68 80 70 64 68 70 80 85 77 74 77 72 72 89 86 87 88 88 87 83 82 83 84 83 84 84 85 86 86 87 80 75 77 83 84 85 86 84 85 84 84 84 84 84
79 74 85 76 78 71 71 69 75 75 72 74 75 77 77 76 79 78 84 87 90 88 88 87 83 83 84 85 84 84 84 84 84 85 86 88 82 77 83 77 85 86 87 84 83 81 83 84 83
80 86 72 75 60 61 66 64 66 70 66 67 67 67 67 67 70 70 71 70 91 90 91 90 86 84 85 86 86 86 85 85 85 86 87 88 84 79 74 76 77 85 85 85 83 82 82 82 83
76 74 78 79 76 66 60 58 76 70 68 64 63 65 65 65 66 68 68 67 73 84 85 92 89 86 87 87 86 86 86 86 86 86 87 87 89 81 76 72 75 84 85 84 82 82 83 82 81
83 78 78 69 66 74 59 57 75 72 67 66 63 64 67 67 65 66 67 66 66 69 75 76 79 91 90 88 86 86 86 86 86 85 86 86 85 87 86 82 84 84 84 83 82 83 85 81 81

GFSSGP_sfc_temp_087.txt.gz
Temp
79 81 81 77 62 59 57 59 67 74 77 83 85 78 75 80 72 59 78 83 82 80 81 82 82 83 83 82 82 83 83 83 83 83 83 83 84 83 84 84 83 84 84 84 84 84 84 84 84
81 83 79 69 58 52 57 64 65 73 81 84 81 78 74 70 78 77 78 84 83 81 80 80 82 82 82 82 82 83 83 83 83 83 83 83 83 84 84 84 83 84 84 84 84 84 84 84 84
83 86 70 62 59 55 58 67 68 79 84 83 80 83 77 72 81 81 84 84 84 81 79 80 82 82 83 83 83 83 83 83 83 83 83 84 84 84 84 84 84 84 84 84 84 84 84 84 84
80 75 71 60 56 62 65 68 73 77 82 83 81 74 81 86 82 85 87 87 81 79 78 82 82 83 83 83 83 83 83 83 83 83 84 84 84 84 84 84 84 84 84 84 84 84 84 84 84
81 70 60 59 59 62 67 72 80 77 79 80 81 75 76 84 88 89 87 85 80 79 80 81 82 83 83 83 83 83 83 83 83 83 84 84 84 84 84 84 84 84 84 84 84 84 84 84 83
69 68 59 57 59 63 67 75 78 78 79 79 78 77 77 87 86 86 88 83 82 80 80 81 82 83 83 83 83 83 83 83 83 83 84 84 84 84 84 84 85 85 84 84 84 84 83 83 83
68 64 62 62 61 62 70 75 74 78 78 77 82 73 77 83 85 88 86 83 84 82 80 80 80 82 83 83 83 83 83 83 83 84 84 84 84 84 84 84 85 85 85 84 84 83 83 83 83
73 68 61 65 62 62 74 74 76 80 77 88 86 72 73 81 85 84 82 83 83 81 81 80 79 79 78 79 83 83 83 83 83 84 84 84 84 84 84 83 84 85 85 84 84 83 83 83 83
78 63 60 66 66 65 76 72 75 82 82 84 86 83 84 86 85 84 79 79 83 83 82 79 80 76 76 77 82 82 84 83 83 83 84 82 77 79 81 83 85 85 85 85 84 83 83 83 84
67 62 62 72 75 71 74 74 72 75 75 79 82 87 88 87 83 78 78 80 79 79 81 79 81 79 79 84 77 76 79 77 76 76 77 75 76 77 81 82 84 85 85 84 84 84 84 84 79
68 66 76 73 79 80 75 72 77 76 75 79 78 82 83 83 83 81 80 82 79 80 82 81 80 80 80 80 76 73 74 77 78 77 76 76 77 77 77 76 78 77 78 74 78 80 79 76 77
66 76 77 79 80 77 74 77 74 74 73 84 86 86 82 81 82 83 81 80 78 78 79 82 79 76 79 80 78 75 75 77 76 77 77 75 75 76 75 75 74 72 73 72 73 75 78 79 82
71 72 79 82 78 78 77 75 72 68 75 84 88 87 80 83 83 86 85 83 82 81 80 80 79 76 79 81 77 76 77 78 81 79 79 78 74 73 71 73 75 73 72 72 72 73 76 74 83
77 79 80 80 76 80 75 74 75 70 74 76 85 82 83 84 86 86 83 82 81 83 80 78 78 78 80 80 80 82 78 79 79 78 78 80 75 74 73 73 74 72 74 73 70 72 75 78 79
77 74 81 80 76 77 72 65 70 73 75 76 84 84 84 87 88 87 84 83 83 83 82 80 79 82 80 80 79 78 82 80 78 79 80 77 75 73 73 70 71 72 74 74 74 73 79 79 83
79 73 65 77 78 76 75 59 72 75 74 77 83 84 84 86 86 87 87 83 84 84 81 82 88 82 80 78 78 77 75 75 78 79 79 81 78 76 73 73 74 75 72 76 72 74 75 77 77
74 62 68 74 82 78 73 60 68 72 78 77 81 84 84 85 83 87 87 85 85 85 81 79 80 80 79 80 79 78 78 75 78 79 79 80 82 78 76 74 74 77 73 76 76 75 78 76 78
63 65 68 69 77 76 66 64 68 74 72 78 79 82 84 84 82 88 87 86 85 81 80 83 81 78 79 78 76 75 75 75 81 80 79 79 79 82 77 76 74 75 76 78 76 76 76 79 77
74 72 67 72 69 72 64 65 67 72 75 74 78 80 83 82 86 85 87 86 84 81 80 82 79 77 76 76 75 73 73 75 76 80 80 80 77 81 78 76 76 75 75 74 77 75 76 76 77
74 72 70 71 68 65 57 62 69 73 73 75 77 78 82 82 83 83 84 84 83 79 78 78 78 77 77 76 76 77 77 76 78 80 79 80 80 79 79 77 75 78 75 75 76 75 74 74 75
72 71 69 70 67 64 58 57 63 71 73 70 71 77 77 82 83 80 83 82 82 80 78 77 76 77 77 77 79 78 80 76 75 77 78 79 81 80 80 77 76 74 74 74 75 77 75 72 75
63 78 80 67 66 56 66 51 58 64 68 69 70 72 72 76 84 82 80 82 82 81 81 78 76 76 77 77 77 76 75 73 75 73 77 79 82 82 81 79 77 77 73 72 74 79 75 74 72
72 79 75 76 67 64 61 54 57 62 63 65 66 70 69 73 73 83 81 84 83 83 81 79 77 76 76 77 76 76 76 72 72 74 74 77 78 82 82 80 77 76 76 75 75 76 76 75 73
83 78 73 72 64 50 66 57 55 59 63 67 67 70 71 71 71 72 83 83 82 83 82 79 77 75 75 76 77 76 74 73 72 72 74 74 75 77 80 80 77 75 75 75 74 76 77 76 75
75 63 55 52 55 54 64 58 54 63 70 69 68 70 69 69 70 70 70 81 82 81 81 80 76 75 75 75 76 76 76 75 75 75 73 72 72 73 74 77 77 76 75 75 75 76 76 77 75
67 63 53 49 50 54 64 50 54 69 70 71 70 71 70 68 70 69 71 77 79 82 80 80 76 76 75 75 75 75 75 75 76 77 74 77 72 73 75 77 77 77 77 78 77 76 76 76 76
66 62 69 58 63 54 53 57 63 67 67 70 68 68 68 68 68 69 72 74 77 80 81 80 78 77 77 77 75 76 75 76 77 78 75 78 74 76 77 75 77 79 78 77 77 75 75 76 76
71 70 60 56 47 46 51 51 53 60 58 62 62 64 65 68 71 71 72 71 70 73 83 82 80 78 78 78 77 77 75 77 77 77 77 77 75 77 76 75 75 76 78 77 77 75 76 75 75
64 59 58 61 58 50 46 51 61 59 61 59 61 63 64 64 67 69 69 68 68 69 75 77 78 79 79 80 78 77 78 78 76 77 78 77 75 74 73 73 73 75 77 77 76 75 77 77 75
70 65 61 51 52 55 53 49 63 60 62 62 62 64 64 64 64 66 67 67 68 67 68 69 70 71 73 82 81 80 78 79 78 77 78 78 76 74 73 72 71 74 75 77 76 77 79 76 75

GFSSGP_sfc_temp_090.txt.gz
Temp
79 79 78 73 61 59 56 59 66 67 74 80 80 75 71 73 67 58 73 77 79 78 80 81 82 82 82 82 82 82 82 82 82 83 83 83 83 83 83 83 84 84 84 84 84 84 84 84 84
78 80 75 67 58 52 55 64 67 72 77 79 81 77 74 67 75 72 72 79 80 79 78 79 81 82 82 82 82 82 83 83 83 83 83 83 83 83 83 84 84 84 84 84 84 84 84 84 84
80 84 66 62 58 54 57 66 66 77 81 80 75 79 74 68 74 74 78 80 80 77 76 79 82 82 82 82 83 83 83 83 83 83 83 83 83 84 84 84 84 84 84 84 84 84 84 84 84
78 73 70 59 56 62 63 68 74 76 79 80 77 68 77 82 78 79 80 80 77 75 75 81 82 83 83 83 83 83 83 83 83 83 83 84 84 84 84 84 84 84 84 84 84 84 84 83 85
76 68 59 58 58 62 69 71 78 74 75 76 76 69 71 80 82 81 80 79 75 74 77 80 82 83 83 83 83 83 83 83 83 83 84 84 84 84 84 84 84 84 84 84 84 84 84 83 84
67 67 57 56 59 64 69 74 75 74 75 75 73 71 69 80 79 81 80 77 77 76 78 80 83 83 83 83 83 83 83 83 83 83 84 84 84 84 84 84 84 84 84 84 84 84 83 83 84
66 61 61 60 61 61 68 76 74 74 74 74 78 68 71 77 81 81 79 78 78 78 77 77 79 81 83 83 83 83 83 83 83 83 84 84 84 84 84 84 84 84 85 84 84 83 83 83 84
71 65 62 65 61 63 73 75 79 76 74 82 80 67 67 77 81 79 78 77 77 77 77 75 75 76 76 78 83 83 83 83 84 83 84 84 84 84 84 83 84 85 84 84 84 83 83 83 83
78 62 59 63 62 62 73 73 76 83 79 81 82 77 79 82 80 77 75 74 75 77 75 74 75 74 74 76 81 82 83 83 83 83 84 80 76 77 79 83 85 85 84 84 84 83 83 83 83
68 61 61 71 71 69 74 74 74 76 77 77 76 80 80 80 79 75 74 72 74 73 74 75 74 73 74 82 76 75 78 76 75 75 75 73 74 75 79 82 85 85 83 83 84 84 83 82 77
68 62 68 71 78 78 73 72 76 74 70 75 71 74 78 79 79 77 76 77 75 76 75 76 75 74 74 76 73 72 74 74 74 75 74 74 75 75 75 75 75 75 79 74 77 77 76 77 75
67 70 72 72 79 76 74 76 71 74 75 81 79 79 79 77 78 77 77 77 75 75 76 77 76 74 75 74 73 73 73 74 74 73 74 73 73 72 73 73 73 72 72 72 72 73 75 76 77
70 71 76 75 77 77 79 74 71 73 80 83 83 81 79 79 78 80 80 79 77 76 77 77 76 75 77 75 73 73 73 74 74 75 75 75 71 72 72 71 72 71 70 71 70 71 74 73 78
73 76 77 75 72 72 74 72 74 72 79 80 80 80 80 80 79 78 78 77 78 77 77 76 77 76 79 75 74 74 74 75 75 75 75 76 73 72 71 71 73 72 72 71 70 71 73 74 77
80 68 70 74 75 74 75 68 69 77 75 80 79 79 80 80 82 77 80 79 79 78 78 76 76 81 79 78 77 76 76 77 76 76 76 75 73 72 72 71 71 72 73 73 72 73 75 76 77
71 70 60 69 72 73 71 59 70 75 74 74 81 81 80 83 82 81 81 82 80 79 77 77 84 79 76 76 76 74 74 75 76 76 76 76 74 74 72 71 71 73 72 73 71 74 73 74 75
70 58 62 64 77 71 69 59 66 73 71 75 79 81 80 82 79 82 83 82 81 79 77 77 78 77 76 75 75 75 75 75 75 75 73 75 77 76 73 72 73 73 72 73 74 73 73 74 74
56 58 62 64 69 69 63 62 66 69 71 74 79 80 79 81 80 81 81 82 81 80 78 77 77 76 76 74 75 72 75 74 76 75 77 76 76 78 75 74 74 73 74 74 72 74 76 75 74
65 64 67 66 69 62 61 64 64 69 68 68 74 79 77 80 81 82 82 83 82 79 78 76 75 74 74 73 71 71 73 76 76 77 78 78 77 77 75 74 73 74 73 72 75 74 75 73 73
66 67 64 65 64 62 58 60 65 68 68 72 76 78 78 80 81 80 81 81 80 78 78 75 75 73 74 74 73 73 73 74 74 76 77 77 77 77 77 74 73 74 73 73 74 73 72 72 73
62 65 64 66 61 61 58 55 60 69 67 68 73 75 81 80 78 77 78 80 79 77 76 76 75 75 74 75 76 74 74 74 73 74 76 77 80 78 78 76 74 73 72 72 73 73 73 71 73
52 74 73 63 60 52 58 48 58 63 67 68 72 70 72 81 80 79 77 78 79 79 79 77 75 75 75 75 78 76 74 70 71 72 73 75 80 78 78 78 75 74 71 71 72 77 73 71 71
65 77 74 68 61 55 57 53 56 61 61 64 68 70 72 74 76 79 78 79 81 80 78 78 76 74 74 75 75 74 72 71 72 73 74 73 74 79 79 77 75 73 73 72 73 74 74 72 72
77 73 68 66 56 49 55 53 52 57 62 66 66 70 71 73 73 73 77 81 80 81 79 78 75 73 73 74 74 73 72 71 71 71 71 71 72 73 76 77 75 74 73 73 73 74 75 73 73
67 59 48 45 45 47 61 55 58 65 69 69 68 71 70 72 70 71 71 75 79 78 77 77 75 72 72 74 73 74 73 72 72 71 72 72 71 72 74 75 74 74 73 73 73 74 74 74 73
61 62 48 42 44 54 58 49 56 68 71 73 73 73 72 72 71 71 70 70 75 79 77 77 75 73 71 73 73 73 73 73 73 74 72 73 71 71 74 75 75 75 75 75 75 73 74 74 73
62 54 62 53 58 50 52 55 62 64 64 66 65 69 69 71 71 71 69 71 71 75 77 77 75 75 72 73 73 73 73 74 75 75 72 75 72 72 75 75 75 76 76 75 74 73 74 73 73
66 68 53 51 48 44 48 49 50 56 59 62 62 61 63 68 68 69 69 71 70 71 71 78 78 76 75 73 73 74 73 74 74 73 74 74 73 74 74 74 75 75 75 75 74 73 73 74 73
59 56 54 56 50 48 45 48 59 56 59 59 61 62 63 64 66 69 69 68 69 70 70 71 73 75 73 73 73 74 73 74 74 74 74 75 74 73 73 73 75 74 75 75 74 73 74 74 73
63 60 57 50 50 48 50 49 61 59 60 61 61 62 63 63 65 68 68 68 68 68 69 69 70 70 70 71 72 75 74 74 74 75 75 75 74 73 73 73 71 72 73 74 74 74 76 74 74

GFSSGP_sfc_temp_093.txt.gz
Temp
78 78 77 71 59 58 55 58 65 66 68 74 75 75 70 70 66 56 70 74 77 77 78 80 81 82 82 82 82 82 82 83 83 83 83 83 83 83 83 83 83 84 84 84 84 84 84 84 84
77 78 73 65 57 52 55 65 64 69 75 76 76 75 70 64 72 68 70 77 78 77 76 78 81 82 82 82 82 82 82 82 83 83 83 83 83 83 84 84 83 84 84 84 84 84 84 84 84
78 81 64 61 57 53 56 64 68 74 78 76 73 77 71 65 71 71 75 78 78 75 75 77 82 82 82 82 82 83 83 82 83 83 83 83 83 83 84 84 84 84 84 84 84 84 84 84 84
76 71 68 59 56 62 64 68 74 75 79 79 73 65 74 77 74 75 78 78 75 73 75 80 82 82 82 83 83 82 83 83 83 83 83 83 83 84 84 84 84 84 84 84 84 84 84 85 85
75 68 59 57 58 62 68 72 74 73 73 74 75 67 67 75 78 77 77 76 73 73 75 79 82 82 83 83 83 83 83 83 83 83 83 84 84 84 84 84 84 84 84 84 84 84 84 85 84
65 65 55 55 59 65 67 70 69 70 72 72 70 68 66 75 75 76 76 74 75 74 76 78 82 83 83 83 83 83 83 83 83 83 84 83 84 84 84 84 84 84 84 84 83 84 84 84 84
65 61 59 60 61 63 67 73 69 70 71 70 75 64 66 71 76 76 74 73 75 76 75 76 77 81 83 82 83 83 83 83 83 83 83 83 84 84 84 84 84 85 84 84 84 83 83 83 84
70 64 61 63 59 61 72 74 75 73 70 79 79 64 62 72 77 75 74 73 73 74 75 74 75 76 76 77 83 83 83 83 83 83 84 84 84 84 84 83 84 84 84 84 84 82 82 83 83
75 60 58 62 60 64 74 71 77 79 74 77 78 75 75 77 76 73 71 71 71 74 72 73 73 73 73 76 80 82 83 83 83 82 83 78 74 76 79 82 84 84 84 84 83 83 83 83 83
66 60 61 69 67 66 72 73 73 71 72 70 73 76 77 75 74 71 70 69 70 70 72 73 72 72 73 80 74 73 77 74 74 74 73 72 73 75 79 81 84 84 84 83 84 84 84 80 77
67 62 68 70 72 74 73 70 78 71 66 70 69 71 73 74 73 72 71 71 71 71 73 72 72 72 73 74 72 72 72 72 73 73 73 73 74 73 73 72 73 73 78 73 76 76 74 76 74
66 67 67 73 73 74 72 74 74 74 72 77 76 75 74 73 73 72 72 73 72 72 73 73 73 72 72 72 72 71 72 72 72 73 73 72 71 72 72 72 72 71 71 71 71 72 73 74 76
67 71 74 72 74 75 76 73 72 71 76 77 77 76 74 74 74 75 76 76 74 73 73 73 73 72 73 72 72 71 71 72 73 73 73 72 71 71 71 71 71 70 70 71 70 70 72 72 75
74 71 71 71 70 72 72 69 72 72 77 76 76 74 75 76 76 76 75 74 74 74 74 74 74 74 74 72 71 72 72 73 73 73 73 74 72 71 70 71 71 71 71 71 70 70 72 73 74
77 68 69 68 68 72 73 66 65 75 77 74 75 76 76 77 78 76 76 75 75 75 76 74 74 75 74 73 73 73 73 75 73 72 74 74 73 71 70 71 71 71 72 72 71 71 73 73 76
71 68 61 70 73 72 69 58 70 73 75 74 76 77 76 76 77 77 78 77 77 75 74 75 81 77 75 74 74 73 73 73 73 74 74 75 74 73 71 70 71 73 72 72 70 71 73 72 73
67 59 60 64 70 71 67 59 67 72 73 74 76 77 76 77 78 78 80 79 77 76 74 74 76 74 74 73 73 72 73 73 74 73 72 74 74 74 71 71 72 71 71 71 72 72 72 73 73
55 59 62 63 68 69 62 61 66 70 70 73 76 77 76 77 75 79 81 79 78 76 75 74 74 73 73 72 71 71 72 73 73 73 73 74 73 75 74 73 72 71 72 72 71 73 73 72 72
63 66 65 64 65 62 60 61 65 68 68 69 74 75 76 76 79 79 80 80 78 76 74 74 72 72 73 71 70 70 71 72 73 74 75 75 74 76 74 73 71 72 71 71 73 73 71 72 71
62 65 58 61 64 62 59 59 64 66 67 67 73 75 77 76 76 77 77 78 78 76 74 72 73 71 73 73 71 73 71 74 73 74 75 75 76 76 75 73 72 72 72 71 73 72 70 70 71
57 63 62 57 60 63 59 55 58 66 68 68 70 73 79 75 73 75 76 77 77 75 74 73 72 72 73 74 73 72 72 72 72 73 73 74 77 77 76 75 73 72 71 71 71 72 71 70 71
48 69 71 61 55 51 61 48 57 62 64 66 68 70 77 76 76 77 76 76 77 77 77 75 73 72 73 73 74 73 71 70 70 71 72 73 76 76 75 75 74 72 70 71 71 75 71 70 70
61 71 71 63 54 51 54 50 56 61 61 62 64 70 72 78 78 76 77 78 78 79 77 76 72 71 72 72 73 73 70 70 70 71 73 72 73 76 76 75 73 72 71 71 73 73 72 71 70
70 70 63 57 52 45 52 52 53 56 62 64 67 70 70 74 76 77 79 80 79 79 78 76 72 70 71 72 72 72 71 70 70 71 71 71 71 72 75 75 73 73 72 72 72 73 73 72 71
62 53 49 42 43 45 56 52 58 63 68 68 68 69 70 70 72 73 74 76 76 76 75 75 72 70 71 72 72 73 72 71 71 71 72 70 70 71 72 74 73 73 73 72 71 72 72 72 71
56 55 46 41 40 46 54 48 57 63 70 72 72 70 69 67 70 69 69 72 73 76 75 76 72 71 70 71 72 72 72 71 70 71 71 72 71 72 73 74 74 73 74 73 72 72 72 72 72
56 52 60 53 44 46 48 52 59 64 63 65 66 69 68 69 70 71 70 71 71 73 73 76 74 75 71 71 71 71 72 72 72 72 72 73 73 72 73 73 73 72 73 73 73 72 72 72 72
63 63 52 47 41 40 45 46 50 55 58 60 60 61 63 66 68 68 69 70 70 70 73 74 73 75 72 70 70 72 72 73 72 72 73 72 73 73 73 73 73 74 74 74 72 72 72 71 71
56 53 50 51 47 43 43 46 56 57 61 59 60 62 62 64 65 67 68 69 69 70 70 72 72 72 72 71 70 71 71 73 73 72 73 73 73 72 72 73 73 73 73 73 72 72 73 72 72
60 58 54 48 45 45 49 46 61 59 59 60 61 62 63 64 66 66 67 68 68 68 69 69 70 70 69 69 71 71 72 73 72 71 73 74 73 71 71 72 72 72 72 73 73 72 74 72 72

GFSSGP_sfc_temp_096.txt.gz
Temp
77 76 76 72 59 57 53 57 64 63 64 70 73 70 66 67 64 55 67 72 75 75 77 79 82 82 82 82 82 82 83 83 83 83 83 83 82 83 83 83 84 84 84 84 84 84 84 84 84
75 77 72 65 57 51 53 63 62 67 71 73 74 72 68 62 69 65 67 75 77 76 76 78 81 82 82 82 82 82 83 83 83 83 83 83 83 83 82 83 84 84 84 84 84 84 84 84 84
77 79 64 59 57 54 54 65 66 71 74 72 71 74 69 65 68 69 73 76 77 74 75 78 82 82 82 82 82 83 82 83 83 81 83 83 83 83 83 84 84 84 83 84 83 84 84 83 84
74 70 66 59 55 62 63 67 71 71 74 74 72 65 71 75 72 73 76 76 74 73 74 80 82 82 83 82 83 83 83 82 83 83 83 83 83 84 84 84 83 84 84 84 84 84 85 85 84
75 67 59 57 57 63 69 72 72 70 73 72 73 64 65 72 75 75 75 75 73 72 75 79 82 82 82 82 83 83 83 83 83 83 82 83 84 84 83 84 84 84 84 84 84 84 85 84 84
65 65 55 55 59 64 69 69 69 69 70 70 68 65 64 73 73 74 75 73 74 73 75 78 81 83 83 83 82 82 82 83 82 83 83 84 83 83 84 84 84 84 84 84 84 84 84 84 84
63 61 58 60 60 61 67 72 68 69 68 68 73 62 67 69 73 73 72 72 74 75 75 76 77 80 83 82 82 83 83 83 83 83 83 83 83 84 84 84 84 84 84 84 84 84 83 83 84
70 64 61 62 61 60 70 72 73 71 67 77 75 61 63 69 72 72 72 72 72 74 75 74 75 76 75 77 82 83 83 83 82 83 83 83 84 84 84 83 84 84 84 83 83 83 83 83 83
73 60 58 60 61 65 72 68 74 76 72 75 76 71 71 72 73 70 69 70 71 74 72 73 73 74 74 77 79 81 83 82 82 81 81 77 75 77 79 83 84 84 84 84 83 83 83 83 84
66 59 62 66 67 68 71 71 70 69 69 68 67 71 72 73 71 68 67 68 69 70 71 72 72 73 74 79 74 74 76 75 74 74 74 73 74 77 79 82 84 84 83 84 84 84 84 81 79
67 62 67 66 68 71 72 70 75 68 64 68 64 67 70 70 70 69 68 69 69 70 72 72 72 72 74 73 72 72 73 73 74 74 74 74 75 75 74 74 75 75 79 75 76 77 76 77 77
63 68 69 68 72 74 71 74 71 72 69 73 72 71 71 70 69 69 69 69 69 70 72 72 72 72 72 73 73 72 73 73 74 74 74 74 74 74 74 73 73 74 73 72 73 74 75 76 77
66 69 70 72 73 73 75 73 71 70 73 74 74 72 71 71 71 72 72 72 71 70 72 72 72 72 72 72 72 72 73 74 74 74 75 74 73 73 74 73 74 73 73 73 73 73 75 75 77
73 72 68 68 70 73 70 68 72 71 74 72 72 71 72 72 72 72 72 71 71 72 72 73 72 73 72 72 72 72 73 74 74 74 74 74 73 73 73 73 74 73 74 74 73 73 75 76 77
74 66 67 67 69 68 70 62 67 69 73 70 71 71 72 73 74 73 74 73 73 73 73 72 73 74 72 73 73 72 74 75 74 74 75 75 75 74 74 73 73 73 74 74 73 74 76 76 78
66 66 59 65 65 66 65 57 65 67 72 70 71 72 72 73 74 75 76 74 74 73 72 73 79 75 73 73 72 73 74 73 74 73 74 76 75 75 74 73 73 74 74 75 74 75 75 75 76
60 55 60 62 72 66 64 58 66 70 72 70 70 72 72 72 74 75 77 75 74 73 72 72 75 74 74 74 73 73 74 74 74 74 73 75 75 75 74 74 75 75 74 74 75 75 75 76 76
54 59 61 61 66 68 64 60 65 68 71 71 72 72 72 72 75 77 79 77 75 74 73 73 74 74 73 72 72 72 73 73 74 74 74 76 75 77 75 75 75 74 75 75 75 75 76 75 75
59 64 62 60 63 62 61 60 63 67 67 67 69 72 72 72 76 76 79 79 75 74 72 73 72 71 71 71 70 71 72 73 74 74 76 76 76 77 76 74 74 74 73 74 76 75 75 75 74
60 59 57 61 64 61 59 58 65 67 67 68 68 71 72 73 72 75 76 76 75 73 73 72 72 71 72 72 71 73 72 73 74 73 75 76 76 77 76 74 74 75 75 75 75 74 74 74 74
55 57 57 57 60 63 58 55 58 66 67 69 70 70 71 73 72 75 73 75 75 73 72 72 71 71 72 72 73 72 73 73 73 74 75 76 76 77 75 74 74 74 74 74 74 75 74 74 74
49 66 68 59 54 49 57 46 57 61 63 66 68 69 70 73 75 74 74 74 75 75 75 72 71 71 73 72 73 73 72 70 72 72 74 75 77 78 78 77 75 74 74 74 75 77 74 75 73
58 70 67 60 52 50 52 50 56 60 58 62 65 69 71 74 74 73 75 76 77 77 75 73 71 71 72 73 73 73 71 72 72 72 73 74 74 76 77 77 75 75 75 75 76 76 75 75 75
68 68 60 56 49 44 52 52 51 55 60 63 66 69 71 72 74 75 78 79 78 79 75 73 71 70 72 72 72 72 72 71 71 72 72 73 74 75 77 77 75 75 75 75 75 76 76 76 75
60 60 47 44 43 43 48 50 55 61 66 67 66 68 70 71 72 74 74 75 77 76 75 73 71 70 71 72 72 73 73 72 70 73 73 73 73 74 75 76 74 74 75 75 75 75 76 76 76
55 55 46 38 39 44 51 47 55 63 67 72 71 71 71 70 72 73 71 70 71 74 76 74 72 71 71 72 72 72 72 72 71 72 74 74 73 74 76 76 76 75 75 75 75 75 76 76 76
53 50 56 47 43 44 46 52 60 63 63 67 67 67 67 70 71 72 71 70 71 73 75 75 73 73 71 72 72 72 73 72 73 74 74 74 74 75 76 76 76 75 75 76 75 75 76 76 75
59 61 50 45 38 38 44 47 50 56 58 61 64 65 66 68 69 70 70 71 71 72 74 77 75 72 72 72 72 73 73 74 74 74 74 73 73 75 75 75 75 76 75 76 75 75 75 75 76
54 50 48 48 45 41 40 45 55 56 60 60 61 63 63 66 67 68 68 70 71 71 72 73 72 71 72 72 71 72 73 74 74 74 74 75 75 74 73 74 74 74 75 76 75 75 75 75 75
55 50 51 46 44 43 46 46 61 62 62 62 61 62 64 64 65 67 68 68 69 69 70 71 70 70 72 72 72 71 72 73 73 72 74 75 75 74 72 74 74 75 75 75 75 75 76 73 75

GFSSGP_sfc_temp_099.txt.gz
Temp
82 83 83 75 66 68 61 63 70 68 70 78 78 75 73 72 70 66 81 82 85 86 86 85 82 82 82 82 82 82 82 81 83 83 83 83 83 83 84 84 84 84 84 84 84 84 84 84 83
84 80 80 69 64 61 62 68 67 72 77 80 78 78 73 68 74 74 78 82 86 87 88 87 81 82 82 82 82 82 83 83 83 83 83 83 83 83 83 84 84 84 84 84 84 84 84 84 83
82 81 72 63 60 60 62 70 73 77 79 78 75 79 74 68 75 77 83 84 86 86 87 86 82 82 82 82 82 82 82 83 82 83 83 83 83 83 84 84 84 84 83 83 84 83 83 83 83
80 77 70 60 58 65 68 72 75 75 78 79 78 70 75 80 78 79 84 86 86 86 88 84 82 82 82 82 83 82 82 83 82 83 83 83 83 84 84 84 84 84 84 84 84 85 85 84 84
80 69 62 56 60 67 73 76 77 75 77 76 77 67 70 76 82 83 84 86 85 86 88 88 82 82 83 82 82 83 83 83 83 82 83 83 84 83 84 84 84 84 84 84 84 85 84 84 84
67 68 56 55 62 67 73 76 78 77 75 73 73 72 70 77 80 81 85 85 87 86 88 87 83 83 83 82 81 83 82 83 83 83 83 82 83 84 84 85 84 84 84 84 84 84 84 84 83
65 61 58 60 63 65 70 77 76 75 74 73 78 71 68 73 78 82 84 85 86 87 87 87 87 85 83 83 82 82 83 83 83 83 82 84 83 84 84 84 85 85 85 84 84 84 84 84 83
71 68 63 65 62 63 73 76 78 77 72 81 82 68 65 73 79 82 83 84 85 86 87 85 86 87 85 86 83 83 83 83 83 83 84 83 84 84 83 83 84 84 84 84 84 83 83 83 83
71 63 62 65 61 68 76 73 77 81 77 78 79 79 79 77 80 80 79 79 82 82 83 84 86 84 83 84 84 84 83 83 82 82 81 83 86 88 89 84 84 84 84 84 83 84 84 82 83
69 65 63 68 68 72 76 75 75 75 74 71 72 76 78 78 79 78 77 74 80 80 82 84 85 85 86 86 83 83 85 86 85 84 84 86 86 86 87 85 84 83 83 84 83 84 83 85 90
70 66 68 70 72 77 75 74 78 75 71 73 70 73 76 77 79 79 80 79 81 82 82 84 82 83 85 82 84 85 86 86 85 83 85 85 86 86 87 86 88 87 83 88 88 89 90 87 89
67 71 71 68 72 75 74 78 74 76 75 80 78 78 77 77 80 80 80 80 80 81 82 83 83 81 83 82 85 85 85 86 86 85 84 84 86 85 84 86 86 85 87 84 86 89 86 86 86
69 72 72 70 73 73 78 75 74 74 77 79 79 78 78 80 80 82 82 82 82 81 82 83 82 81 81 82 84 84 84 86 86 86 85 86 86 84 85 84 86 85 87 87 86 86 87 86 89
75 73 70 71 72 68 72 72 78 74 79 77 77 78 79 80 81 81 81 80 81 82 82 83 82 81 82 82 81 83 85 86 86 86 86 84 86 84 86 85 86 85 88 87 86 86 87 89 90
77 67 71 69 71 66 68 64 66 75 79 76 77 78 79 81 82 81 82 81 82 83 83 82 82 83 82 82 83 84 86 87 87 86 84 84 85 83 82 85 85 86 86 85 87 88 89 91 92
72 72 63 67 70 67 66 58 66 72 76 75 77 77 78 79 82 83 84 84 84 84 81 82 86 84 83 83 83 85 86 87 86 86 86 85 84 84 84 86 86 86 87 88 88 89 89 90 90
69 61 65 61 67 64 63 57 65 69 75 75 76 77 78 79 81 83 84 84 85 84 82 82 84 83 83 82 84 85 83 86 87 87 87 84 84 84 86 87 86 85 87 88 89 88 87 89 90
63 62 66 61 63 64 59 60 64 67 69 73 72 77 78 79 81 84 84 85 86 84 83 83 84 82 82 83 82 84 86 86 86 86 87 84 85 85 85 86 85 86 89 88 88 85 88 88 87
71 67 65 65 66 62 61 64 64 70 69 67 73 76 77 79 82 85 85 85 85 84 82 82 82 81 82 82 82 83 84 84 85 86 84 84 85 85 84 87 86 87 86 85 85 88 85 89 87
71 68 62 64 64 65 60 60 69 70 71 68 70 75 76 77 82 82 84 84 85 83 82 81 82 81 81 84 82 85 83 85 87 85 85 85 85 84 86 84 86 85 87 84 84 84 88 87 86
70 68 66 63 63 65 62 56 58 70 70 71 70 75 79 76 82 82 82 84 85 83 82 81 81 81 81 82 82 82 83 84 84 85 85 83 85 86 84 84 86 85 86 87 85 85 84 86 86
64 73 69 64 65 58 66 56 60 64 67 67 67 70 79 81 83 84 83 83 84 84 84 83 82 81 81 81 83 80 83 80 85 84 83 83 86 86 87 85 84 84 87 84 86 88 85 86 85
67 72 67 68 61 62 60 58 61 67 63 65 68 72 78 82 83 83 84 84 86 85 84 84 82 81 81 81 83 82 82 85 84 84 81 83 82 85 86 84 84 84 87 84 84 85 83 87 86
75 67 68 64 63 55 64 64 63 62 66 68 69 71 76 81 83 84 85 84 85 86 84 83 80 79 81 81 81 82 82 82 82 83 84 85 86 87 85 85 84 83 84 84 86 84 84 85 85
71 66 54 50 54 57 62 61 69 70 72 72 71 72 74 80 81 82 79 77 83 82 83 83 81 79 80 81 81 82 81 82 81 81 85 84 80 82 83 83 81 84 84 85 84 83 84 85 87
69 68 62 48 52 59 61 59 69 72 74 77 76 77 76 78 79 81 81 77 80 80 82 83 81 79 80 81 80 81 81 86 85 84 86 86 85 87 85 85 84 84 84 84 83 86 87 86 87
66 64 73 63 62 61 61 64 69 70 71 75 76 76 75 75 79 75 80 80 82 77 81 82 82 81 81 82 82 81 80 82 84 83 83 86 84 86 85 85 84 85 83 84 83 86 84 84 85
72 76 63 64 52 52 59 59 67 64 66 72 74 75 75 76 77 77 73 74 74 77 76 81 84 82 82 82 83 83 83 82 83 83 83 82 83 83 83 83 84 84 83 84 82 84 83 82 86
68 67 66 69 65 59 57 61 67 67 65 70 72 75 74 75 76 77 76 73 72 77 75 77 78 78 82 81 81 81 83 84 83 82 82 83 83 82 82 82 82 82 83 83 82 82 83 82 82
70 69 70 63 57 63 64 64 67 68 68 68 70 71 74 75 75 75 77 76 72 70 71 76 78 75 80 81 77 82 82 82 82 82 83 83 82 83 82 82 82 83 82 83 83 83 84 82 82

GFSSGP_sfc_temp_102.txt.gz
Temp
86 92 96 86 75 80 71 70 79 76 78 86 86 83 80 80 78 71 92 93 94 94 93 88 82 82 82 83 83 83 83 83 83 83 83 83 83 83 84 84 84 84 84 84 84 83 83 83 84
94 86 86 81 74 70 70 77 75 79 85 87 86 84 82 75 84 85 87 93 95 97 95 93 81 82 83 83 83 83 83 83 83 83 83 83 83 84 84 85 85 84 84 83 84 84 84 84 84
91 88 81 70 74 70 69 77 79 83 86 85 82 88 82 76 85 89 93 94 96 95 92 89 82 83 83 83 83 83 83 83 83 83 83 83 83 84 84 84 84 84 83 84 84 83 84 83 84
91 85 83 62 68 73 76 80 83 82 86 86 85 77 83 90 86 92 94 96 95 95 96 85 83 83 83 83 83 83 83 83 83 83 83 84 83 84 85 84 84 84 84 85 85 85 84 84 84
95 80 67 64 69 75 81 84 85 82 83 82 84 77 78 86 92 93 94 96 96 97 96 92 83 83 83 83 83 83 83 83 83 83 84 84 84 84 84 83 84 85 85 85 85 85 84 84 83
68 77 59 65 69 75 81 85 85 84 83 81 81 80 79 87 90 92 95 96 98 97 97 92 84 83 83 83 83 83 83 83 83 83 84 84 84 84 85 85 85 85 85 85 84 84 84 84 83
68 63 61 68 70 71 76 87 83 83 81 81 87 78 79 86 91 94 95 96 97 98 96 95 92 86 83 83 83 83 83 83 83 83 83 83 84 85 85 85 85 85 85 85 84 84 84 84 83
74 68 63 72 70 70 79 83 85 85 81 90 91 76 72 81 91 93 94 95 95 96 96 94 92 93 92 92 83 83 83 83 84 84 84 84 85 84 85 84 84 85 85 85 84 84 84 84 83
73 65 66 73 73 74 83 79 84 88 83 86 86 88 86 85 91 91 90 91 92 93 92 92 95 90 90 91 87 85 84 84 83 84 83 85 94 94 92 85 84 85 85 84 84 84 84 84 83
73 66 69 77 75 80 83 82 83 83 81 81 84 87 86 88 88 88 88 88 90 90 93 94 93 92 93 94 90 90 92 94 93 91 91 94 94 92 92 87 84 84 84 84 84 83 84 86 98
76 69 77 70 76 86 83 81 85 83 78 81 79 81 85 86 88 88 88 90 92 92 92 94 91 91 93 90 93 93 94 93 91 90 92 92 93 93 95 93 94 94 86 97 94 94 97 93 96
70 76 76 75 80 84 81 85 81 83 84 87 87 87 86 86 88 89 89 90 90 89 91 93 91 90 91 92 94 93 93 93 94 92 90 90 92 92 92 94 93 94 96 93 94 96 93 93 94
75 76 74 75 78 84 85 81 80 80 86 88 88 87 87 88 89 91 91 91 91 90 90 91 89 88 86 89 92 93 91 95 94 93 92 94 93 90 92 91 94 94 97 96 94 94 94 94 95
80 78 76 70 73 76 81 82 83 81 86 85 86 87 88 89 90 90 89 89 89 90 90 90 89 87 89 88 88 90 93 93 94 94 92 90 94 91 92 92 94 94 97 96 95 93 95 96 97
81 71 71 73 76 66 78 75 77 83 86 83 85 87 88 90 91 88 90 89 90 91 90 88 89 90 88 87 89 92 93 95 94 94 90 91 92 89 91 92 94 94 93 92 94 95 96 97 99
72 75 65 71 73 67 67 66 73 84 84 83 85 86 87 89 90 91 92 92 91 91 88 89 93 91 90 89 90 93 94 95 94 94 93 91 90 90 91 94 94 94 95 97 96 98 96 97 98
72 66 65 64 67 62 62 62 67 81 84 83 85 86 86 87 90 90 92 92 92 90 88 88 90 90 89 88 91 92 90 94 94 94 95 90 90 90 94 95 93 93 96 96 99 97 96 96 98
73 67 66 67 63 60 58 58 63 73 81 83 85 86 86 87 88 90 92 93 92 90 89 89 90 88 88 89 89 93 92 93 94 94 94 90 92 90 92 93 92 94 96 96 95 91 95 96 96
79 71 62 61 62 60 59 61 64 68 71 78 84 85 86 88 91 92 92 93 92 91 89 88 88 86 88 89 90 90 91 91 92 94 90 90 91 90 90 95 92 94 94 90 93 95 91 95 96
79 73 61 61 64 65 59 60 64 69 67 74 82 85 87 89 90 91 92 93 93 90 89 87 86 85 87 90 89 93 92 93 93 93 91 91 91 90 91 91 93 92 92 90 90 89 95 95 94
78 75 71 64 67 67 63 56 60 70 68 69 72 86 89 89 88 88 90 92 92 90 88 87 87 86 87 89 88 88 89 90 90 90 91 92 91 91 90 90 92 90 93 93 92 91 89 92 93
71 79 77 70 66 62 72 53 58 65 67 68 70 76 87 88 89 91 91 90 92 92 91 89 87 86 87 87 88 85 87 86 92 91 92 92 90 91 91 90 90 90 94 90 92 94 92 91 91
70 80 75 76 75 72 69 66 70 67 67 71 75 80 81 90 89 92 92 92 94 93 92 90 88 86 88 86 88 85 88 91 92 93 88 88 88 90 92 90 89 88 92 90 90 90 89 94 93
76 73 74 74 73 65 73 72 64 65 70 74 74 75 78 84 91 92 94 94 94 94 93 91 87 85 86 86 86 86 86 88 90 90 89 89 91 91 90 91 89 88 91 89 91 90 89 88 90
77 65 59 55 61 63 74 71 75 77 80 82 79 75 81 82 90 91 91 92 92 92 91 91 87 84 86 86 86 86 87 86 86 87 90 90 90 91 87 89 88 90 88 89 90 87 89 90 91
76 68 58 55 54 66 72 67 76 84 86 88 88 84 82 82 87 91 91 91 90 91 91 90 88 85 86 87 86 85 86 89 90 90 93 91 91 92 91 90 90 89 89 90 89 91 92 90 92
76 70 79 66 74 68 72 76 80 81 81 83 86 86 81 80 83 88 91 90 90 90 90 90 88 87 87 88 87 86 87 86 89 89 88 92 89 92 89 90 89 90 90 89 88 91 89 89 89
79 83 71 72 60 58 69 70 77 74 77 81 83 83 80 78 80 83 89 90 84 92 92 89 91 88 88 88 89 89 88 88 89 88 87 88 88 88 89 89 90 90 89 89 88 90 89 87 90
74 74 76 78 74 65 63 69 79 78 80 81 84 86 83 78 81 79 79 88 90 91 87 80 90 89 89 89 89 88 89 89 88 89 89 89 88 87 88 87 88 88 87 88 87 87 89 87 87
80 77 78 68 65 72 72 74 79 77 78 80 84 86 85 83 82 79 75 74 76 78 76 78 76 84 87 89 88 85 89 89 90 88 89 89 88 88 88 88 86 88 89 87 87 88 90 87 86

GFSSGP_sfc_temp_105.txt.gz
Temp
86 90 97 90 72 80 72 75 85 81 84 92 93 89 84 85 80 72 96 99 97 96 92 89 83 83 83 83 83 83 83 83 83 83 83 83 83 84 84 83 83 84 84 83 83 83 84 84 84
99 95 92 83 67 73 72 81 79 84 89 92 91 89 80 80 90 90 92 97 99 97 97 92 82 83 83 83 83 84 84 84 83 83 83 84 84 84 85 85 83 83 84 84 84 84 84 84 83
94 92 79 76 72 73 72 81 83 87 91 91 87 88 86 82 91 93 97 99 91 94 96 88 83 83 83 83 83 83 83 84 84 83 84 84 84 84 84 84 84 83 84 84 84 83 83 84 84
95 92 85 67 70 77 81 84 87 86 89 91 89 81 90 94 94 96 99 97 93 94 91 85 83 83 83 83 83 84 83 83 83 83 84 84 84 84 84 84 84 84 85 84 85 84 84 84 84
93 81 62 65 73 80 86 88 89 85 86 87 86 81 82 92 97 99 92 94 88 95 96 92 83 83 83 83 83 83 84 83 84 84 83 84 84 84 84 84 85 85 85 85 85 84 84 84 83
72 75 61 65 74 79 87 90 89 83 83 85 86 83 83 95 94 92 99 98 102 99 97 92 84 83 83 84 83 83 84 84 83 84 84 84 85 85 84 85 85 85 84 84 85 84 84 84 83
72 64 68 70 75 76 83 92 88 86 86 82 91 80 86 90 95 100 101 101 102 92 96 94 93 86 84 83 83 84 84 84 84 84 84 84 84 85 85 85 85 85 85 85 85 84 84 83 83
75 66 71 75 73 72 85 89 91 85 81 95 93 80 81 87 98 100 99 100 96 93 90 92 92 92 91 91 84 84 84 84 84 84 84 85 85 85 85 84 85 85 85 85 85 84 84 83 83
76 63 70 74 74 75 85 81 87 88 88 90 93 90 92 96 99 97 95 94 94 89 94 90 92 86 87 90 87 85 84 83 84 85 85 85 93 93 90 84 85 85 85 85 85 84 84 84 83
76 66 72 81 84 82 87 86 86 86 86 86 89 93 93 95 94 92 92 93 90 84 89 92 95 93 89 92 88 91 90 88 90 89 91 88 93 93 93 88 85 85 85 85 85 85 85 85 90
80 70 72 82 82 88 87 86 92 88 83 87 83 85 90 92 93 93 94 94 93 91 94 90 87 85 91 91 96 96 90 93 91 92 94 93 94 93 95 91 92 93 87 87 90 90 90 96 96
73 79 79 81 81 85 86 90 84 89 88 92 90 91 91 91 92 93 94 92 93 92 93 96 95 88 93 95 96 96 88 87 95 94 93 92 89 86 89 95 95 89 96 95 94 96 94 94 96
78 77 79 80 82 84 88 86 85 85 91 94 93 92 91 93 93 95 97 97 96 94 94 94 93 85 89 92 95 94 94 85 95 92 87 87 87 91 85 88 87 94 93 97 96 96 96 94 97
80 80 77 78 83 85 84 84 87 87 91 90 90 91 93 93 94 94 94 94 94 94 94 93 86 87 89 91 92 93 85 92 94 93 95 93 87 86 94 90 93 88 94 97 96 94 97 97 97
80 75 77 71 74 77 75 78 78 88 91 88 89 91 92 94 95 92 94 94 94 95 93 91 90 91 91 90 92 86 96 90 88 91 93 93 92 92 91 94 84 88 94 93 95 96 98 99 99
75 71 64 69 69 75 77 66 79 88 88 87 89 91 91 93 94 94 95 95 95 94 91 92 95 94 92 91 92 92 94 94 88 96 94 93 92 92 90 85 96 96 95 96 97 97 99 98 98
64 60 63 61 66 67 69 67 81 89 88 87 89 90 91 92 93 94 96 96 95 92 91 92 87 93 91 90 87 90 93 87 95 96 86 92 93 92 87 85 93 90 95 97 93 98 95 96 99
58 59 64 60 61 63 60 62 74 87 86 83 86 89 87 89 91 94 96 96 96 92 92 92 93 90 89 88 88 88 86 85 95 85 86 92 93 92 92 92 93 90 94 96 96 91 96 96 96
65 60 62 61 63 61 60 61 65 74 81 76 80 85 85 86 91 95 95 96 95 93 91 90 90 88 91 91 90 82 82 84 85 85 92 92 93 92 91 85 93 93 91 91 93 94 92 96 97
81 71 61 59 64 65 59 59 62 67 77 76 79 81 86 86 89 92 89 94 95 92 90 89 89 88 89 93 85 86 84 89 85 86 92 92 92 91 92 91 90 83 93 91 91 90 93 96 96
82 64 62 59 61 63 62 55 58 64 70 74 74 78 90 88 88 91 87 92 93 92 90 89 89 87 88 87 84 90 92 89 93 92 92 92 93 93 92 91 88 92 87 87 90 92 91 92 94
74 77 68 61 65 56 66 49 57 62 63 66 74 77 81 91 89 90 90 92 93 93 93 90 89 87 88 89 86 80 87 88 82 89 86 93 93 93 92 92 92 90 91 90 89 93 90 90 92
77 84 65 65 69 70 63 61 61 63 61 62 68 77 81 79 93 90 92 95 95 95 94 92 89 88 89 88 82 88 86 78 75 83 88 89 89 91 92 92 91 90 92 91 90 91 89 94 91
85 79 78 78 73 66 69 73 64 63 67 69 72 74 76 84 91 90 91 91 96 96 93 94 88 87 88 87 88 87 84 81 78 86 86 90 92 92 92 92 91 90 88 90 91 90 90 89 90
82 77 65 63 67 66 73 72 71 76 77 77 78 78 81 87 81 92 80 93 91 86 91 93 89 86 87 88 88 88 88 88 87 88 89 78 87 92 89 90 89 90 89 90 90 88 89 90 89
78 79 67 55 60 69 77 68 70 85 86 88 88 85 86 87 87 87 92 93 87 83 89 93 89 86 87 88 87 88 88 91 91 91 83 81 86 86 88 90 91 91 91 91 90 91 91 92 91
79 74 84 73 59 60 68 77 74 88 85 87 89 87 85 87 85 80 94 92 80 94 85 92 90 88 88 90 88 87 88 87 87 73 84 90 92 88 92 92 91 92 91 91 90 90 90 90 90
83 87 74 76 59 57 68 69 71 75 81 85 89 89 87 88 85 88 86 89 96 94 95 90 91 90 90 90 90 90 89 89 90 88 88 74 86 87 85 91 91 91 91 90 89 91 90 89 90
78 77 79 81 77 67 65 68 79 78 84 85 88 91 89 83 82 74 82 77 95 95 92 91 88 88 90 91 91 91 91 92 91 90 90 90 89 88 90 88 88 88 90 90 87 87 86 88 88
86 80 80 72 68 76 75 62 86 87 88 89 89 90 90 84 83 77 75 81 85 88 92 92 89 86 90 85 90 89 91 92 92 90 91 91 88 88 88 89 89 89 89 88 87 87 92 89 88

GFSSGP_sfc_temp_108.txt.gz
Temp
85 89 92 81 66 66 72 74 85 82 84 91 90 86 81 83 79 66 92 89 91 88 86 85 83 83 83 83 83 83 83 83 83 83 83 83 84 83 83 83 83 83 83 83 84 84 84 83 83
92 94 90 75 64 67 70 81 79 84 88 90 85 88 84 77 87 87 84 95 94 90 89 86 82 83 83 83 83 83 83 83 83 83 83 83 84 84 84 84 84 84 84 84 84 84 84 83 83
84 93 75 70 64 63 70 81 82 87 91 87 75 84 85 81 90 90 92 94 91 89 89 84 83 83 83 83 83 83 84 83 83 83 83 83 84 83 84 83 84 84 84 83 84 84 84 83 83
91 88 79 60 64 79 80 83 86 86 90 90 87 80 90 94 91 94 95 96 90 90 88 84 83 83 83 83 83 83 83 84 84 83 83 84 84 84 85 84 84 85 84 84 84 84 84 83 83
90 80 67 60 72 82 86 88 88 85 83 86 86 79 83 92 95 94 94 92 91 91 88 86 83 83 83 83 83 83 84 84 84 84 84 84 84 85 84 85 85 85 85 84 85 84 84 83 83
72 75 61 59 74 81 86 90 89 83 80 78 83 81 82 94 92 95 97 95 96 92 90 87 83 83 84 84 84 84 84 84 84 84 84 84 84 84 85 85 85 85 85 85 84 84 84 83 83
70 63 63 66 66 74 82 91 79 83 83 83 88 78 85 89 95 92 94 93 85 94 91 88 87 85 84 83 84 84 84 84 84 84 84 84 84 85 85 85 85 85 85 85 84 84 83 83 83
71 66 65 69 66 74 87 88 83 85 81 94 92 79 77 89 96 98 92 82 83 93 90 88 88 87 86 86 84 84 84 84 84 84 84 84 85 85 85 84 85 85 85 85 85 84 84 83 83
76 65 62 71 76 80 90 82 88 89 85 89 91 89 90 96 96 95 89 90 91 89 88 90 89 85 85 85 85 84 84 84 84 84 84 83 85 86 86 85 85 85 85 85 85 84 84 84 83
71 61 68 79 84 84 87 84 85 82 87 84 88 90 94 95 94 90 81 85 85 85 89 80 90 87 87 91 85 85 85 87 88 87 81 82 86 87 89 86 85 85 85 85 85 85 85 84 86
76 62 66 76 83 88 85 81 91 86 80 84 83 87 92 93 92 92 88 88 88 87 87 84 89 86 85 87 89 86 85 87 85 87 76 86 86 85 86 84 84 84 85 81 85 85 85 79 83
74 68 69 70 86 82 87 91 88 88 85 91 90 90 92 91 91 92 89 86 88 85 85 91 85 85 83 90 85 86 86 86 90 89 88 86 81 85 76 75 77 85 83 72 77 86 87 85 88
72 78 76 77 85 86 91 87 83 86 89 92 91 91 90 92 92 94 89 92 93 90 89 90 87 84 89 85 84 85 84 90 89 76 80 86 82 81 83 71 77 83 82 86 84 85 86 86 90
79 80 80 82 82 76 84 84 87 87 92 90 89 89 91 92 93 93 90 92 91 91 89 87 86 88 87 88 84 81 83 90 85 78 74 75 86 81 83 79 80 76 85 88 83 82 85 85 88
82 74 78 74 77 73 83 77 80 89 92 88 89 90 91 92 94 92 93 92 92 92 88 84 85 85 85 88 86 80 84 91 88 88 75 77 87 87 78 80 83 85 86 87 88 87 88 87 90
76 73 66 72 74 70 77 65 82 89 88 86 88 90 90 92 93 94 94 92 93 90 86 84 90 90 88 87 85 86 83 87 83 89 89 86 90 88 83 83 82 89 87 86 84 86 86 84 86
69 56 63 62 66 68 72 67 80 89 88 85 87 89 90 90 91 93 95 92 92 89 88 83 86 88 86 87 87 83 88 86 87 87 87 87 90 90 80 84 88 88 83 81 80 84 85 83 85
58 56 58 59 62 63 69 69 80 86 86 85 86 88 89 89 89 93 94 94 91 90 89 83 85 82 86 83 85 89 84 86 84 85 84 90 88 91 85 83 87 80 82 82 83 84 85 85 85
70 64 58 58 62 61 61 61 69 78 83 79 86 86 86 87 91 94 94 94 90 90 88 84 82 82 82 82 79 84 79 82 81 82 87 88 89 90 86 86 83 74 73 86 86 85 84 85 87
72 62 56 58 62 61 59 60 62 68 70 81 78 84 86 86 85 91 91 92 91 88 87 86 82 83 83 85 79 82 83 83 82 85 88 85 87 89 87 86 79 80 83 86 86 85 83 85 86
62 60 58 57 61 61 59 55 58 65 68 72 74 79 80 84 79 89 90 89 91 87 86 86 83 84 84 84 83 83 79 84 81 83 86 86 86 88 79 88 80 83 83 84 86 85 82 80 84
61 71 68 61 59 54 65 50 55 59 63 69 72 77 79 79 83 87 90 85 90 88 88 86 85 84 85 81 81 77 82 79 82 84 82 86 86 86 89 90 89 85 75 77 84 87 83 81 80
67 76 72 66 60 62 58 57 57 59 58 64 70 77 81 74 80 85 90 86 90 88 89 88 85 83 82 79 83 83 81 73 74 74 78 85 87 89 87 88 88 87 83 84 86 84 82 82 80
81 74 70 63 57 50 61 61 57 58 63 68 74 78 79 82 76 83 89 85 91 91 91 87 84 82 82 82 81 81 77 74 74 72 73 79 84 86 87 87 86 87 85 80 86 85 83 83 83
81 68 60 52 49 55 70 61 63 67 72 73 73 77 76 78 80 76 87 90 87 85 90 87 83 81 84 83 83 82 82 77 73 75 74 71 76 79 85 86 87 86 85 84 86 85 83 83 82
77 76 67 53 56 50 58 63 71 75 80 79 78 80 77 76 80 79 88 83 82 83 80 88 84 81 83 84 83 84 84 86 81 77 74 70 72 73 83 86 86 86 86 86 86 85 84 84 84
77 72 83 64 61 63 59 67 77 77 80 79 79 78 81 82 83 84 85 81 78 85 80 78 84 84 84 85 84 84 85 86 81 78 76 74 74 74 79 85 87 86 87 87 85 84 82 79 76
83 85 72 74 56 54 57 59 54 72 77 81 78 79 82 84 85 86 84 76 78 83 88 80 78 85 85 86 85 85 85 86 84 80 73 73 71 74 72 76 88 88 84 85 86 82 81 84 84
78 76 77 79 74 61 50 53 65 72 80 82 82 81 82 85 86 86 81 79 75 84 84 85 86 86 86 87 85 85 85 86 86 85 83 76 76 77 76 78 87 87 84 83 85 82 82 83 84
84 79 79 70 66 72 68 62 75 68 68 77 87 83 83 86 88 86 81 78 75 73 81 84 86 87 88 87 86 86 86 86 86 86 84 87 84 84 84 83 83 85 86 86 83 82 82 80 82

GFSSGP_sfc_temp_111.txt.gz
Temp
79 82 82 74 62 62 64 69 79 75 74 83 82 80 76 79 72 58 80 81 81 80 81 82 82 83 83 83 83 83 83 83 82 83 83 83 83 83 83 83 83 83 84 84 84 84 84 84 84
83 86 78 71 59 56 64 75 73 75 80 82 83 80 75 71 81 77 76 81 83 81 80 80 81 82 83 83 83 83 83 83 83 83 83 83 83 84 84 84 84 84 84 84 84 84 84 84 83
82 84 69 63 61 60 61 75 76 79 84 81 79 83 79 73 81 79 83 83 84 82 80 80 82 82 83 83 83 83 83 83 83 83 84 83 84 84 84 84 84 83 84 84 84 84 83 83 83
82 78 70 58 59 72 72 76 80 80 83 84 82 76 82 86 82 79 82 85 82 80 79 82 83 83 83 83 83 83 83 83 83 83 83 84 84 84 84 84 84 84 84 84 84 84 83 83 83
81 71 58 57 63 77 80 82 80 78 80 80 81 74 74 85 83 79 79 82 76 77 79 81 82 83 83 83 83 83 83 83 83 83 83 84 84 84 85 85 84 84 84 84 84 84 83 83 83
68 70 58 56 69 75 80 84 80 78 79 80 77 74 74 86 85 82 84 79 83 80 80 81 83 83 83 83 83 83 84 84 83 83 84 84 84 84 84 85 85 85 84 84 84 84 83 83 83
67 59 58 63 67 70 77 84 77 77 79 78 82 71 77 78 80 86 87 86 84 82 80 79 80 82 83 83 84 84 83 84 84 84 84 84 84 84 85 84 85 85 85 84 84 83 83 83 83
67 64 64 65 68 71 80 81 82 80 77 88 86 71 69 77 77 83 85 82 80 82 81 80 79 79 78 79 84 84 84 84 84 84 84 84 85 85 84 83 84 85 85 85 84 83 83 83 84
74 60 59 64 66 73 79 74 83 88 83 85 87 82 84 88 85 80 77 76 82 83 81 78 81 77 77 78 82 83 84 84 84 83 84 82 76 80 82 83 84 85 85 85 84 84 84 83 83
69 60 60 68 70 77 79 77 81 79 78 80 80 86 89 85 83 79 79 80 77 73 79 76 81 80 79 85 78 77 80 77 75 74 75 75 76 74 82 82 84 85 85 85 84 81 80 84 80
69 61 64 66 71 84 81 80 85 80 73 79 77 81 86 85 81 81 81 81 78 79 82 79 80 81 79 80 77 77 77 77 75 74 72 74 75 76 73 76 75 78 81 77 80 76 74 76 79
69 67 66 66 70 69 80 85 80 83 79 85 85 86 86 83 82 81 80 82 79 82 80 80 80 79 78 80 77 76 77 77 76 75 75 73 71 69 70 70 72 72 71 68 73 75 79 79 79
71 64 66 66 68 69 82 80 81 81 84 88 88 88 84 82 83 84 85 85 80 83 82 79 82 80 79 81 77 78 77 79 76 73 73 73 72 71 70 68 72 71 73 75 75 77 80 79 82
74 68 69 68 68 77 78 78 83 82 86 85 85 83 85 83 83 83 85 82 80 81 82 79 79 80 81 78 82 79 77 77 75 75 75 74 74 72 71 69 72 71 72 75 75 79 79 80 82
77 70 73 71 74 70 72 74 75 83 85 82 83 84 86 84 84 83 83 83 82 80 79 78 79 81 80 77 78 77 79 81 72 72 74 74 75 79 73 75 74 76 77 81 81 80 80 75 78
66 68 61 67 71 70 68 63 76 83 83 80 82 84 85 86 85 88 88 84 81 79 77 82 86 81 80 78 80 78 79 78 78 74 73 76 80 79 78 76 76 77 77 74 78 79 79 76 76
61 54 56 61 68 66 64 64 76 83 83 79 81 83 84 85 83 87 86 84 81 79 77 82 79 79 79 79 79 80 79 77 79 79 79 80 82 83 76 75 75 76 76 74 75 77 78 78 78
55 55 57 56 63 64 62 67 75 80 79 80 77 79 79 82 80 84 87 85 83 80 80 78 78 79 78 78 80 78 78 79 80 80 81 81 79 84 79 78 74 71 71 78 79 77 79 81 79
65 61 57 59 62 61 59 62 65 69 76 75 75 77 80 80 83 84 86 85 83 80 81 80 78 78 77 79 74 75 75 77 77 80 82 82 81 82 80 77 75 73 71 73 79 79 78 78 78
65 58 55 59 62 60 58 58 63 66 66 69 70 80 79 83 82 82 83 83 83 79 79 77 77 76 77 79 75 77 76 76 77 78 80 82 82 82 79 76 74 76 73 77 78 78 76 76 77
63 58 57 57 59 61 59 55 58 66 67 70 71 75 78 81 79 80 81 82 82 79 78 77 79 77 76 78 76 76 75 77 75 78 77 82 82 82 80 78 74 74 74 73 76 77 76 73 76
57 65 64 59 56 51 59 48 54 59 62 64 70 71 73 74 78 82 81 81 82 80 81 79 77 77 77 77 76 75 72 71 73 72 76 79 81 82 81 81 79 77 74 75 75 80 77 75 73
60 64 63 62 55 55 54 50 55 59 59 62 67 71 76 77 79 82 81 83 83 83 80 80 78 75 76 75 76 73 71 71 72 72 73 72 78 83 83 81 80 77 76 75 77 77 76 76 74
70 62 62 61 54 47 56 54 54 54 59 66 69 71 74 75 75 79 80 80 82 84 82 80 77 75 75 74 76 74 72 71 71 71 71 70 72 76 81 81 79 77 77 77 77 76 77 76 76
65 56 45 45 46 47 56 54 59 66 67 70 72 72 74 75 72 74 74 80 82 81 82 79 77 73 75 75 75 75 75 73 73 71 70 69 69 71 71 74 78 78 77 78 77 77 76 76 76
64 62 53 43 46 49 57 51 59 68 75 74 76 78 76 73 74 74 77 79 82 82 81 81 77 74 75 75 75 75 75 71 71 72 71 68 69 71 73 73 79 79 78 79 78 77 76 76 75
66 59 71 54 56 51 53 56 65 70 71 73 74 77 76 75 76 75 77 75 77 81 80 79 77 77 75 78 76 75 75 73 72 72 71 72 70 72 73 74 75 79 79 79 78 76 76 75 75
71 72 57 55 46 45 53 57 55 62 66 70 73 74 75 76 74 76 76 75 76 79 76 78 77 77 78 77 78 77 76 75 73 72 71 69 70 73 72 73 75 78 79 79 78 75 76 75 75
64 60 61 61 58 50 47 51 61 66 66 64 67 76 76 75 77 76 76 76 74 77 76 75 76 76 77 77 79 77 76 77 73 73 71 71 71 71 71 72 73 78 78 78 77 76 77 78 76
70 64 63 52 53 58 56 55 71 69 68 67 66 67 74 78 79 79 76 72 72 71 73 75 76 76 77 77 79 75 77 77 77 76 74 73 71 72 72 73 75 77 77 77 74 76 77 76 75

GFSSGP_sfc_temp_114.txt.gz
Temp
79 81 80 72 60 59 60 63 72 72 74 78 82 78 74 74 69 57 75 76 78 78 78 81 82 83 83 83 83 82 82 82 83 83 83 83 83 83 82 83 83 83 84 84 84 84 84 84 84
81 84 75 67 58 56 60 71 68 72 76 80 79 77 73 67 75 72 71 78 80 79 77 79 81 82 83 83 83 83 83 82 83 82 82 83 83 83 84 83 84 84 84 84 84 84 84 84 84
82 81 68 61 56 58 59 72 72 76 80 79 76 79 75 68 75 75 77 80 79 77 76 79 82 82 83 83 83 83 83 83 83 83 83 83 84 84 84 84 84 84 84 84 84 83 84 84 84
78 71 69 59 58 68 68 72 76 76 79 81 78 70 77 82 79 79 81 80 77 76 75 81 83 83 83 83 83 83 83 83 83 83 83 84 84 84 84 84 84 84 84 84 84 83 83 83 83
79 70 59 58 62 72 76 78 79 75 74 74 76 70 70 76 82 81 79 79 75 75 76 79 83 83 83 83 83 83 83 83 83 83 84 84 84 84 84 84 84 84 84 84 84 84 84 83 83
68 67 58 54 68 73 76 79 79 74 73 74 73 71 68 78 79 79 78 76 78 76 77 79 83 83 83 83 83 83 83 83 83 83 84 84 84 84 84 84 84 84 84 84 84 83 83 83 83
65 59 57 61 68 67 72 81 76 74 74 74 78 66 68 74 77 77 78 78 78 78 77 76 78 82 83 83 83 83 83 83 83 83 84 84 84 84 84 84 84 84 84 84 83 83 83 83 83
67 62 59 64 64 65 77 78 80 76 73 83 82 67 62 71 78 79 80 78 76 77 77 74 75 76 76 79 83 83 84 84 84 84 84 84 84 84 84 83 84 84 84 84 83 83 83 83 83
73 60 59 64 67 69 79 76 81 84 78 81 83 78 77 80 82 79 75 72 74 77 76 74 74 74 74 77 81 83 84 84 84 83 84 81 75 78 79 82 84 84 84 84 84 84 83 83 84
68 59 60 66 66 69 77 79 81 77 77 78 77 78 81 80 79 75 74 71 71 73 74 73 75 73 75 82 76 76 78 75 75 75 75 73 73 74 79 81 84 84 84 84 84 83 83 82 78
70 60 63 68 70 70 74 77 83 77 73 78 72 75 78 78 77 77 76 75 74 76 76 75 75 74 74 76 74 74 74 73 72 72 72 74 73 71 70 73 73 73 79 72 77 77 75 76 76
63 65 64 67 70 68 70 81 76 79 76 83 80 79 79 78 77 77 77 76 75 74 77 78 76 75 75 75 74 74 74 73 73 74 74 72 68 68 69 70 71 71 71 70 71 72 75 77 77
65 66 68 69 69 71 71 76 77 76 81 84 81 81 79 77 78 79 79 78 78 78 77 78 77 75 76 76 72 73 74 73 74 72 73 72 70 67 70 69 70 71 70 71 72 73 76 76 77
69 67 66 67 68 70 72 76 77 76 83 82 82 81 79 78 79 79 79 77 78 78 77 77 77 78 79 76 75 74 72 73 72 71 72 73 71 70 70 68 68 68 70 73 74 74 76 77 78
69 63 65 66 66 68 73 72 71 80 84 80 81 81 80 80 82 81 81 77 78 79 77 76 77 78 75 77 76 75 75 74 71 73 73 72 73 73 71 69 69 71 72 74 77 77 78 75 75
63 66 57 62 66 70 70 59 74 81 80 77 79 80 78 80 81 82 81 79 79 78 77 77 83 78 76 76 75 75 75 74 72 74 71 76 77 74 72 71 70 73 73 73 74 75 75 73 73
59 54 56 60 66 65 67 62 72 80 79 75 76 78 77 79 80 81 81 79 78 78 75 76 77 77 76 76 75 75 75 74 74 74 72 76 77 77 75 73 72 72 72 73 74 76 74 74 73
54 54 57 56 61 64 61 61 68 77 77 76 75 76 77 80 78 80 80 80 79 77 76 76 75 75 75 75 76 74 74 78 75 76 75 78 78 81 76 75 73 72 72 71 75 75 77 76 75
63 61 57 59 62 61 59 60 63 67 70 71 71 76 77 79 79 79 80 81 79 77 75 75 74 74 74 74 72 72 72 74 74 76 79 78 79 79 77 75 74 72 72 72 74 76 77 76 73
65 57 55 59 62 61 58 59 61 65 66 65 70 71 76 74 76 78 79 79 78 76 75 74 74 73 75 75 73 74 73 74 75 76 78 78 79 79 77 75 73 74 73 73 75 75 75 74 74
63 59 56 57 59 59 58 56 57 64 66 68 69 71 77 77 74 76 78 78 78 76 75 75 74 74 74 75 74 73 73 73 72 72 74 80 79 80 77 75 75 74 73 72 74 75 74 72 74
56 66 64 58 56 49 59 47 55 58 63 65 67 68 75 78 76 77 77 77 77 77 77 76 74 74 74 75 73 72 70 70 70 71 72 75 79 79 80 77 76 74 73 73 74 77 74 74 71
59 68 64 61 55 54 54 50 54 59 60 64 65 69 72 73 77 77 77 79 79 79 78 77 73 73 74 74 73 71 70 70 71 71 73 73 73 79 79 78 77 75 74 74 75 74 74 74 72
68 63 61 58 54 46 54 53 54 54 62 70 70 69 71 73 76 78 79 80 79 80 79 77 73 72 73 74 73 72 71 70 70 70 70 70 70 72 74 76 76 75 75 75 75 74 75 74 73
63 53 46 45 46 45 55 52 57 62 65 68 71 70 71 74 73 74 76 77 78 77 77 77 72 71 72 73 73 72 71 70 70 70 69 70 69 71 71 72 74 75 76 76 75 75 74 74 73
59 53 48 44 45 49 57 50 57 71 71 72 73 75 74 74 73 72 75 77 78 78 77 78 74 71 71 72 73 72 73 71 70 70 70 70 69 70 72 73 75 76 76 76 75 74 74 74 73
59 54 64 50 54 50 51 57 63 68 67 67 71 75 74 74 73 74 74 74 77 78 77 77 75 74 72 72 73 72 72 72 71 72 72 71 69 71 72 74 75 75 76 77 75 74 74 74 72
65 66 52 51 44 44 49 54 54 61 63 67 68 71 76 74 72 75 75 73 76 79 78 76 75 75 75 74 74 75 72 72 72 71 70 69 69 70 72 73 73 74 75 76 75 74 74 74 73
61 56 55 56 54 47 44 50 63 65 65 67 69 72 73 73 74 74 75 73 74 77 77 75 74 73 73 75 73 74 72 72 71 71 70 69 69 69 71 72 72 73 75 75 74 73 74 76 74
64 58 55 50 51 53 50 54 68 67 67 67 68 71 71 73 74 75 74 71 71 73 76 75 75 75 76 76 77 73 74 73 72 72 71 70 69 70 71 71 71 72 74 74 73 74 76 74 73

GFSSGP_sfc_temp_117.txt.gz
Temp
79 80 78 70 59 57 56 61 70 68 68 75 77 74 69 69 67 56 72 75 76 76 76 80 81 82 82 82 82 82 82 83 83 83 83 82 83 83 83 83 83 83 84 84 83 83 83 83 83
78 80 74 66 55 52 55 67 67 71 74 75 77 75 70 65 71 68 69 76 78 76 75 77 81 82 82 82 82 82 83 83 83 83 82 83 83 83 83 83 83 83 83 83 83 83 84 83 83
80 82 67 59 55 52 56 67 68 73 77 76 73 76 72 65 71 72 74 78 77 75 74 76 82 82 82 82 82 83 83 83 82 83 82 82 83 83 83 83 83 83 83 83 83 83 83 83 83
77 72 69 58 55 65 65 69 73 74 76 78 74 67 74 78 76 75 78 78 74 74 75 80 82 82 82 82 82 83 82 83 83 83 83 83 83 83 84 83 83 83 83 83 83 83 83 83 82
75 70 59 59 59 68 72 75 75 71 72 73 74 66 67 75 78 77 76 77 74 73 75 78 82 83 83 83 83 83 83 83 83 83 83 83 83 84 84 83 83 83 83 83 83 83 83 83 83
65 67 57 55 62 69 74 76 75 71 71 72 70 67 65 74 75 76 77 75 76 74 75 78 82 83 83 83 83 83 83 83 83 83 83 84 84 84 84 84 84 84 84 84 83 83 83 83 83
63 60 56 58 62 67 70 78 72 70 71 71 76 62 66 71 75 76 75 76 75 75 74 75 77 81 83 83 83 83 83 82 83 83 83 83 84 84 84 84 84 84 84 83 83 83 83 83 83
66 62 60 63 63 63 73 75 75 73 69 80 78 62 62 69 74 75 75 72 72 73 74 73 74 76 76 77 83 83 83 83 83 83 83 84 84 84 83 82 84 84 84 84 83 83 83 83 83
72 60 57 62 65 67 75 73 77 80 74 78 79 73 76 75 75 74 71 71 72 74 72 72 73 72 73 75 80 83 83 83 83 83 83 81 74 76 78 82 84 84 84 84 84 83 82 84 83
66 57 63 67 67 68 76 75 76 74 74 71 73 76 77 76 74 71 69 69 69 70 71 72 72 72 74 80 75 74 77 75 75 75 74 72 72 74 78 80 83 83 83 82 82 82 82 82 76
69 59 66 69 70 70 69 74 79 73 70 71 67 71 74 75 73 72 72 71 71 72 73 72 71 72 73 73 73 73 73 72 72 73 72 72 72 70 71 72 72 73 78 73 76 76 74 75 75
64 67 65 68 71 69 68 74 74 76 75 77 75 75 75 73 72 71 71 71 71 72 73 73 73 72 72 73 72 72 72 71 69 70 72 70 68 69 69 69 70 69 70 71 70 72 74 75 76
67 66 67 69 69 68 72 72 74 75 77 78 78 76 74 74 74 76 73 74 73 72 73 74 74 73 73 73 71 71 72 71 72 71 72 70 67 67 69 68 68 69 68 71 72 73 73 74 75
70 67 67 68 68 69 70 73 75 75 79 76 76 75 75 75 76 75 75 74 74 74 74 74 74 74 74 72 72 71 71 71 71 71 71 72 70 68 69 68 69 68 69 72 72 72 73 75 75
69 63 65 65 66 65 70 66 69 77 77 74 75 75 76 76 77 76 78 75 76 75 75 75 75 76 74 72 73 72 71 73 70 72 72 73 72 71 71 69 69 70 71 73 73 73 75 73 74
65 62 58 62 64 67 66 58 69 77 76 72 75 75 75 76 78 79 78 77 76 74 73 74 81 75 73 75 73 72 73 71 69 71 70 74 74 73 71 70 71 71 72 72 72 73 74 72 72
60 53 54 58 62 64 64 61 69 77 77 75 75 75 75 76 77 78 79 78 76 75 73 74 74 74 74 74 73 73 73 72 72 72 71 74 75 75 71 71 71 71 71 72 73 74 72 73 73
53 53 56 55 60 61 62 62 69 72 75 74 72 73 74 74 75 77 78 78 77 74 73 74 73 73 74 73 72 72 72 72 73 73 73 75 75 76 73 72 70 70 71 73 74 73 74 74 73
62 59 56 58 62 60 59 59 63 67 70 69 68 70 72 74 77 78 78 78 77 74 73 73 72 72 72 72 70 70 71 72 72 76 75 76 76 77 75 71 72 72 72 73 74 74 74 73 71
60 58 55 59 62 59 58 58 61 63 66 66 65 68 73 70 73 75 76 77 76 74 74 72 72 71 72 73 71 72 72 72 73 75 75 75 77 77 76 73 72 72 72 73 74 73 73 72 71
60 59 56 56 59 60 58 56 58 62 66 67 67 68 76 73 71 73 74 75 75 74 73 72 72 72 73 73 72 71 72 71 71 71 71 74 76 77 76 75 73 72 71 72 72 73 73 70 71
55 64 62 57 55 49 58 47 55 59 60 64 66 67 69 73 74 74 74 74 75 76 75 72 71 71 73 72 72 71 69 69 70 70 72 73 75 76 76 76 74 73 72 72 73 75 73 72 70
58 66 61 59 54 52 53 48 52 59 58 61 65 67 68 72 74 74 75 76 76 77 76 74 71 71 72 72 71 71 69 69 69 70 71 72 73 75 78 76 74 73 72 73 74 73 73 72 70
68 61 59 58 52 45 53 50 51 53 59 65 67 69 69 72 74 76 77 77 77 78 76 74 71 70 71 72 71 71 70 69 69 69 70 70 70 71 74 76 74 74 73 73 73 73 74 72 72
61 54 44 44 45 45 55 51 53 63 66 70 71 70 70 71 73 74 74 75 75 75 75 74 72 70 70 72 72 71 71 70 71 70 69 69 69 70 71 73 73 74 74 74 73 73 73 73 72
57 54 46 41 44 48 55 49 56 70 71 73 75 75 74 71 74 74 75 75 75 76 75 75 71 71 69 71 71 71 71 69 69 70 69 69 69 70 71 72 73 74 75 74 73 72 73 72 72
57 50 58 53 47 47 51 57 64 68 67 67 68 76 73 73 73 74 75 75 75 76 75 76 73 73 71 71 71 71 71 70 70 70 69 70 69 71 71 73 73 74 74 74 73 72 73 72 71
60 63 50 49 42 41 49 52 54 58 61 63 65 71 72 75 71 72 74 74 76 77 76 75 74 73 73 71 70 71 71 71 71 70 70 70 69 69 71 72 73 73 74 74 73 72 73 72 71
56 53 51 51 48 44 43 50 62 60 62 62 64 71 74 73 71 72 73 74 75 75 76 74 72 72 72 72 71 71 71 71 71 70 71 70 69 68 69 70 72 72 73 73 72 72 73 73 72
63 53 52 49 48 46 48 51 62 62 61 65 65 67 71 74 74 73 74 72 73 71 75 73 73 73 74 74 73 71 71 71 70 70 70 69 68 67 68 70 71 71 72 71 71 72 74 73 72

GFSSGP_sfc_temp_120.txt.gz
Temp
80 78 77 70 58 56 54 60 68 65 65 72 74 70 66 66 64 55 70 74 75 75 76 79 81 82 82 82 82 83 82 82 83 82 83 83 82 82 83 82 82 84 84 83 83 83 83 83 83
78 78 73 64 54 50 53 65 63 67 69 73 73 72 67 62 69 66 69 75 76 75 75 77 80 81 82 82 82 83 83 83 83 82 83 83 83 83 83 84 83 83 84 83 82 83 82 82 82
78 80 66 58 54 51 54 65 66 71 75 74 70 73 69 63 69 70 72 75 75 73 74 77 81 82 82 82 82 83 83 83 82 82 83 83 83 83 83 83 83 83 83 83 83 83 82 83 84
75 70 66 56 55 62 63 66 71 71 74 74 72 65 70 74 73 73 76 76 73 73 75 79 82 82 82 82 82 83 83 83 82 83 83 83 83 84 83 84 83 84 83 83 82 83 83 84 84
73 68 60 58 58 65 69 72 72 69 70 71 71 63 64 72 75 75 74 75 72 72 74 78 82 82 82 82 83 82 82 83 83 83 83 83 84 84 83 83 83 83 84 83 83 84 83 83 84
64 65 58 54 60 66 71 73 72 68 69 70 68 65 64 72 72 73 74 73 74 73 75 77 82 82 83 83 83 82 83 83 83 83 82 83 82 83 83 84 84 84 84 84 83 83 83 83 83
62 60 57 58 60 63 68 75 72 68 69 68 73 62 66 69 73 74 73 73 74 74 74 75 77 80 83 83 83 83 83 83 83 83 82 82 83 84 84 84 84 84 84 84 84 83 83 84 84
65 63 60 61 60 61 71 73 75 71 67 77 74 61 63 68 72 73 73 71 72 73 74 74 75 76 76 77 83 83 83 83 83 83 82 83 84 84 83 81 84 84 84 84 84 84 84 83 84
72 60 58 62 64 65 72 71 75 77 72 75 75 70 71 72 73 71 69 70 71 73 72 72 73 73 73 75 80 82 83 83 83 82 82 77 75 77 79 83 84 84 84 84 84 84 84 83 82
65 59 63 66 66 66 73 73 73 71 70 68 69 72 72 73 71 68 67 67 69 70 71 72 72 73 74 79 75 74 77 75 75 74 74 73 74 76 79 79 81 81 81 82 82 82 81 80 79
67 61 66 66 68 70 69 72 76 71 66 69 66 68 70 71 70 69 69 69 70 70 71 72 72 73 73 72 73 73 73 73 73 74 73 73 73 72 73 73 72 73 77 75 77 77 76 77 77
64 67 68 68 69 68 69 72 72 73 70 75 73 72 71 70 70 69 69 69 70 70 71 72 72 72 73 73 72 73 73 71 70 72 73 72 70 70 70 71 72 72 71 73 73 75 76 77 77
66 66 68 68 69 68 71 69 72 72 75 75 75 73 71 71 71 71 72 72 71 70 72 72 72 72 73 73 72 72 72 71 73 72 73 72 70 69 71 70 71 72 72 74 74 75 76 76 78
69 66 66 66 67 68 66 71 73 72 75 73 73 71 72 72 72 73 71 71 70 72 72 73 73 73 73 72 72 72 72 73 73 73 73 73 71 69 71 71 72 71 72 73 75 75 76 76 77
68 63 64 63 66 65 67 67 67 72 74 71 71 71 72 73 74 74 73 73 72 73 73 72 73 74 72 72 72 72 71 72 72 73 73 74 73 72 73 72 73 73 74 76 76 76 77 76 77
64 62 56 61 64 66 67 56 65 74 72 69 71 72 72 73 74 78 76 74 74 73 73 73 79 75 73 72 71 72 71 72 72 73 72 75 74 74 74 73 74 75 75 75 76 76 76 75 75
58 52 55 57 62 62 63 57 67 73 74 69 70 71 72 72 73 75 78 75 74 73 72 72 74 74 73 73 72 71 72 72 72 72 71 73 76 76 74 74 74 74 75 75 76 76 75 76 76
52 52 55 54 59 61 61 59 67 72 72 70 70 71 71 72 73 76 77 76 74 73 73 73 73 72 72 72 72 72 72 73 73 72 73 75 76 77 75 74 73 74 75 75 77 75 76 76 76
59 59 55 58 60 59 59 59 64 67 70 70 67 69 70 72 75 76 76 76 74 73 72 72 71 71 72 71 70 71 71 72 73 73 76 77 76 77 74 72 75 75 75 75 77 77 76 75 74
59 57 55 59 61 59 57 58 62 63 65 68 66 66 70 71 70 73 74 74 74 72 72 71 71 70 72 72 71 72 72 73 74 75 76 77 77 77 76 74 75 76 76 76 76 76 75 75 73
60 59 55 56 59 60 58 54 58 64 64 67 66 68 71 70 70 72 72 73 73 72 71 71 70 71 72 73 72 72 73 73 73 73 73 76 78 78 77 75 74 75 75 75 76 77 75 74 73
57 62 61 56 54 49 58 48 55 60 61 63 64 65 69 72 73 72 73 72 73 73 73 71 71 71 72 72 72 72 71 70 71 72 73 75 77 78 78 77 76 76 75 76 76 78 76 75 74
55 63 59 58 52 51 52 50 54 59 58 61 64 65 67 71 73 72 73 75 75 75 73 72 71 70 72 72 72 72 71 71 72 72 73 74 75 77 79 77 77 76 75 76 77 77 77 76 73
65 59 57 54 51 45 52 52 51 53 59 64 66 66 67 69 71 73 75 76 75 75 74 73 70 70 71 72 72 71 71 71 71 71 71 71 72 75 77 78 76 75 76 77 77 76 77 76 76
57 50 42 41 44 46 55 51 53 61 64 68 68 67 68 70 71 71 72 74 73 72 73 73 70 70 71 71 72 72 72 71 72 72 71 71 71 72 74 76 75 75 76 77 77 76 76 76 76
53 50 44 40 43 47 54 47 55 66 70 73 75 74 71 70 72 72 73 73 73 73 74 74 71 71 70 71 71 72 72 71 71 72 71 71 71 73 75 75 76 76 77 77 76 76 77 76 76
54 49 55 47 52 48 50 55 63 66 67 69 72 73 70 72 72 73 74 74 74 74 73 74 72 72 71 72 71 71 71 71 71 72 72 73 72 73 74 75 75 76 77 77 75 75 75 75 75
57 60 49 48 43 41 49 52 51 57 61 63 65 69 72 73 72 73 74 74 74 77 77 74 73 73 73 71 72 73 72 72 72 73 71 71 72 72 73 73 75 75 75 77 76 75 76 75 75
54 54 50 52 50 47 42 47 57 55 58 62 64 67 68 70 71 72 73 74 75 76 76 74 72 72 72 72 72 72 72 72 73 72 72 72 72 71 71 72 73 73 74 76 75 75 75 75 75
57 54 52 49 47 45 46 48 61 60 60 63 64 66 68 70 70 72 72 72 71 72 76 74 72 72 73 73 72 72 72 72 72 72 72 72 71 70 71 71 72 73 74 75 74 75 77 75 75

GFSSGP_sfc_temp_123.txt.gz
Temp
83 84 84 78 70 71 65 66 74 69 70 77 78 75 72 72 68 63 83 84 85 84 82 83 81 82 81 81 83 83 83 83 83 83 83 83 83 82 83 83 83 84 83 83 83 83 83 83 83
84 81 79 73 68 64 65 72 70 72 77 80 79 76 73 68 74 75 79 83 86 86 87 85 80 81 81 81 83 83 83 83 83 83 83 83 83 83 83 83 83 83 83 83 83 84 84 83 83
83 81 72 70 66 64 65 72 73 76 79 78 74 78 74 70 76 80 84 85 86 85 87 86 81 81 82 82 83 83 83 83 83 83 83 83 84 83 83 84 84 83 83 83 83 84 84 84 84
83 78 74 69 65 69 70 74 76 76 78 78 78 71 76 81 80 83 85 86 86 85 86 84 82 82 82 82 83 83 83 82 83 83 84 84 83 83 84 84 84 83 83 83 83 83 84 85 84
84 78 68 66 66 71 75 78 79 75 74 75 77 69 71 77 83 84 84 85 84 85 87 88 82 82 82 82 83 82 83 83 83 83 83 83 83 84 84 84 84 84 84 84 84 84 84 84 84
76 75 66 58 66 71 76 79 77 74 74 74 74 73 71 78 81 83 85 85 86 86 87 87 83 83 83 83 83 83 83 83 83 83 83 83 83 84 84 84 84 84 84 84 84 84 84 84 83
73 70 64 63 66 68 72 78 76 75 74 73 79 71 71 75 81 83 84 85 86 87 86 86 88 85 83 83 83 83 83 83 83 83 83 83 84 84 84 84 84 84 84 84 84 84 84 84 84
74 72 66 68 67 66 76 77 79 77 72 81 82 70 68 76 80 83 84 84 84 85 86 85 85 86 87 85 83 83 83 83 83 83 83 83 84 84 83 83 84 85 85 85 84 84 84 84 84
77 67 64 66 68 70 77 74 78 81 77 79 78 79 81 80 81 81 80 79 80 82 83 82 84 83 83 84 85 84 83 83 83 83 81 83 86 87 88 84 84 84 84 85 85 85 84 83 83
68 64 66 66 70 73 77 75 73 74 76 72 74 78 79 79 79 79 78 78 78 80 81 83 84 85 84 83 83 84 85 85 85 84 83 85 85 84 86 83 81 82 81 82 82 82 82 84 92
71 64 67 67 72 77 77 76 78 73 72 74 74 75 77 78 79 78 79 80 79 82 83 83 83 81 83 82 84 86 86 86 85 83 84 84 85 85 88 88 88 88 83 90 88 89 91 87 90
69 70 70 68 72 74 73 76 76 75 78 81 80 79 78 77 78 79 79 80 80 80 81 83 83 82 82 85 85 85 85 86 86 84 83 83 86 84 83 86 86 85 87 86 87 90 88 88 88
70 69 69 69 71 74 75 74 75 76 78 81 80 79 78 79 79 81 81 82 81 81 81 83 82 81 82 81 83 85 84 87 86 85 85 86 85 84 85 83 86 85 86 89 88 88 90 88 90
70 69 67 68 69 74 71 74 79 77 78 78 78 78 79 79 81 80 80 81 80 81 82 83 82 82 82 82 82 83 85 85 86 86 85 83 85 83 85 85 86 86 87 89 89 88 89 89 92
72 65 67 65 65 68 72 70 72 78 80 77 78 78 79 80 81 80 82 82 82 83 83 82 83 84 82 82 83 84 84 86 87 87 84 84 84 84 83 85 87 88 87 86 89 89 89 91 92
68 67 61 62 63 66 70 65 74 79 78 76 77 78 78 80 82 83 84 85 84 84 82 83 86 85 84 83 83 85 85 86 86 87 85 84 84 84 84 86 88 87 88 90 90 90 89 89 91
66 58 59 58 63 62 67 65 70 77 78 76 77 78 79 79 81 83 85 85 85 84 83 82 84 84 83 82 83 83 83 85 86 86 85 83 85 85 86 87 87 85 90 89 91 89 90 89 90
62 58 59 57 59 61 63 63 69 75 72 74 77 78 79 79 81 84 85 86 86 84 83 83 84 83 82 83 82 84 85 86 86 86 86 84 86 86 86 88 86 87 90 89 89 86 87 89 90
70 62 60 59 61 59 59 63 68 73 74 75 77 77 78 80 85 85 85 86 85 84 83 82 81 81 81 81 82 83 83 84 85 86 84 84 85 85 85 87 87 87 88 86 87 89 86 88 87
68 62 59 61 62 60 58 61 66 70 71 74 76 77 79 81 82 82 84 85 84 83 83 81 81 80 81 83 83 85 84 85 86 85 85 85 85 85 86 84 86 86 89 86 86 86 88 87 87
67 65 59 60 61 62 59 57 60 63 67 72 77 80 82 81 81 81 82 83 84 82 82 81 80 80 81 82 82 82 83 83 83 81 81 86 86 86 85 84 85 85 87 89 86 86 85 87 86
63 69 65 60 60 54 60 50 56 60 64 68 74 77 81 82 83 83 83 83 84 83 84 82 81 80 81 81 81 81 83 82 83 81 84 84 85 86 86 85 85 85 87 86 87 88 86 86 86
64 70 66 64 61 59 56 53 59 61 62 68 72 75 80 83 83 83 83 84 86 85 83 83 81 80 81 81 80 80 81 84 84 84 81 81 83 85 87 85 85 84 88 86 85 86 85 88 87
71 67 65 63 60 52 61 58 59 60 66 69 72 76 77 82 83 84 85 85 85 85 84 83 80 79 80 81 81 80 81 80 82 82 83 84 85 87 85 86 85 83 86 84 87 85 85 85 86
68 64 54 52 52 54 59 56 63 68 72 75 73 73 77 80 82 82 81 82 83 83 83 83 80 79 80 81 81 81 82 82 81 82 83 83 84 85 84 84 83 83 85 85 85 84 84 85 86
67 68 59 48 50 56 60 56 67 73 74 78 80 75 80 80 82 82 82 82 82 82 83 83 81 79 80 81 80 81 82 85 85 84 85 85 84 85 84 85 84 85 85 85 85 87 87 85 86
64 62 68 61 62 59 61 65 70 72 71 74 77 74 76 78 82 83 83 83 83 83 82 82 81 80 81 82 81 81 81 82 84 83 83 84 82 84 83 84 84 85 85 83 84 86 84 84 85
68 70 59 62 51 48 59 59 63 62 63 69 71 73 76 79 76 76 77 83 83 85 85 84 83 81 82 83 83 83 83 82 83 83 81 82 82 81 81 82 83 84 84 84 83 83 85 83 86
64 64 62 64 61 56 56 58 63 61 62 68 71 77 81 78 79 77 76 82 84 85 86 84 83 82 82 83 83 83 83 82 82 82 83 82 82 81 81 81 81 82 83 83 82 81 83 82 82
70 69 68 62 57 63 61 61 66 64 66 68 70 74 79 81 77 76 76 77 81 81 83 84 83 83 83 83 82 81 82 82 82 81 82 82 81 81 81 81 80 81 82 83 82 83 85 83 83

GFSSGP_sfc_temp_126.txt.gz
Temp
87 94 95 88 79 82 72 72 80 76 77 85 85 83 79 80 76 65 84 82 84 85 85 85 81 82 81 82 81 83 83 83 83 83 83 83 83 83 83 84 83 83 83 84 83 83 84 84 84
94 90 89 86 78 72 72 79 76 79 83 86 86 83 81 74 84 85 87 92 91 94 93 88 81 82 82 82 81 83 83 83 82 81 83 83 83 83 83 84 83 83 83 84 84 84 84 84 84
92 88 84 83 80 72 71 78 80 82 85 84 80 86 83 78 85 88 93 94 95 95 95 89 82 82 82 83 83 83 83 82 83 83 83 84 83 84 84 84 83 83 84 84 84 84 84 84 84
93 89 85 81 74 76 78 81 82 81 84 85 85 77 84 90 88 92 94 95 96 95 95 85 82 82 83 83 83 83 82 82 83 83 84 83 84 84 84 84 84 84 84 84 84 85 84 84 84
95 90 80 75 74 79 83 84 84 81 82 82 85 79 79 86 93 94 93 95 95 96 96 93 82 82 82 84 83 83 83 83 83 83 83 84 84 84 84 84 84 84 84 84 84 84 84 84 84
86 85 75 72 74 78 83 85 84 81 81 81 83 80 80 89 90 92 95 95 96 96 96 93 84 83 82 83 82 83 83 83 83 83 83 84 84 84 84 84 84 84 84 84 84 84 84 84 83
83 82 71 73 74 74 76 86 82 82 81 81 88 79 81 86 91 93 95 95 95 96 96 95 94 87 83 83 83 82 83 83 83 83 83 84 84 84 84 84 84 84 85 85 84 84 84 84 84
88 83 74 77 74 73 81 83 85 84 80 89 91 78 77 85 90 94 94 94 93 95 95 94 95 94 91 91 83 83 83 83 83 83 84 84 84 85 85 83 85 85 85 85 85 84 84 84 84
87 77 73 75 76 76 84 80 83 87 84 86 86 88 90 89 92 92 90 90 91 92 93 94 93 89 87 87 86 84 83 84 83 84 83 86 94 94 92 85 85 85 85 85 85 85 84 84 84
83 77 72 74 81 81 83 80 82 83 83 81 84 89 89 89 89 89 88 88 90 89 93 93 93 92 91 88 87 87 91 93 92 92 90 93 93 92 92 87 83 83 83 83 83 83 84 85 100
80 74 70 67 81 86 83 80 83 83 79 82 80 83 87 88 88 89 90 90 91 91 92 93 91 90 92 90 94 93 94 93 91 89 92 91 92 93 95 94 94 94 86 97 92 93 98 94 97
75 77 76 69 80 83 81 85 74 82 84 89 88 88 88 87 88 89 90 90 90 89 90 93 92 89 91 93 95 94 94 94 94 92 89 89 93 92 92 95 93 94 96 92 97 98 94 96 96
77 76 75 72 76 80 82 81 80 81 87 90 89 88 88 89 89 90 91 92 91 89 90 92 90 88 88 89 92 93 92 94 94 93 91 94 95 91 94 91 96 95 97 97 96 96 96 95 97
79 78 70 69 71 79 79 81 83 84 88 87 87 87 89 89 90 89 89 89 89 90 90 91 90 88 89 89 88 90 93 93 94 94 92 90 95 91 94 93 95 96 98 98 98 96 98 98 99
79 72 73 67 66 74 79 74 79 86 88 85 86 87 88 89 90 88 90 89 90 91 90 89 90 91 88 88 89 92 93 95 94 94 90 91 92 90 90 94 96 97 95 94 95 95 97 98 100
75 76 66 70 68 71 75 71 81 86 85 84 86 87 87 88 90 90 91 92 91 91 88 89 94 92 90 90 90 93 93 94 94 94 94 92 91 91 90 95 96 95 97 99 98 98 97 98 99
75 70 67 67 70 67 72 70 80 86 85 83 86 87 87 87 89 90 92 92 92 91 88 89 90 90 90 88 91 92 90 93 94 94 94 90 92 92 94 96 95 94 99 97 99 97 97 95 98
70 69 68 66 67 67 66 69 77 84 83 84 86 87 87 87 89 91 92 93 93 91 90 89 90 89 88 89 89 92 93 93 94 94 94 91 94 92 93 96 94 95 99 97 97 94 97 98 99
78 71 67 68 67 59 58 69 74 80 82 72 84 87 87 88 92 92 92 93 92 91 89 88 87 86 86 89 89 89 90 91 92 94 91 91 93 92 91 96 94 94 95 92 94 95 92 95 96
76 71 67 68 68 60 57 66 69 74 78 73 83 87 88 90 91 90 91 93 92 90 89 88 86 86 85 90 90 92 92 93 93 94 92 92 91 91 92 90 94 91 96 91 91 91 96 97 97
74 72 70 67 66 65 59 60 62 72 78 81 84 89 90 90 90 89 90 91 92 90 88 88 87 86 85 88 90 88 88 87 89 90 92 92 91 92 91 91 91 92 92 95 92 92 90 94 95
71 77 73 69 65 58 61 51 58 72 72 74 81 85 90 91 92 92 91 91 92 91 91 89 87 86 87 87 88 87 89 88 90 90 92 92 91 91 92 91 91 90 94 90 94 95 91 89 93
72 78 75 72 72 69 60 58 62 68 64 69 79 84 89 92 93 92 92 92 94 93 92 91 87 86 87 86 85 86 86 91 91 92 88 88 89 91 92 90 90 89 93 91 90 90 88 94 92
80 75 73 71 72 61 69 66 64 65 67 69 81 84 86 90 93 93 94 94 93 94 92 91 86 85 86 85 86 85 86 87 89 88 88 90 91 93 90 91 89 90 91 90 91 90 89 89 90
78 73 66 58 60 62 72 69 71 74 78 72 80 84 85 88 92 92 92 92 92 92 91 90 87 83 85 86 86 86 86 86 86 87 89 90 92 93 91 89 88 91 89 89 90 88 89 89 90
75 77 69 51 56 65 69 62 67 76 77 84 87 87 88 89 90 93 92 92 91 91 90 90 88 85 86 86 85 86 86 88 90 89 92 90 92 93 92 91 90 90 90 90 89 91 92 91 91
75 68 81 71 71 67 70 73 77 78 75 80 81 87 86 86 91 92 93 92 92 92 90 90 88 86 87 88 87 86 87 86 90 90 89 91 90 92 89 90 89 90 90 89 89 91 90 89 89
77 82 69 72 54 54 63 67 67 71 69 73 78 83 82 87 88 92 93 93 93 94 94 92 91 88 89 89 89 89 88 88 89 87 87 89 89 88 86 88 89 89 89 88 87 89 90 88 90
73 72 74 73 66 51 59 65 73 71 72 71 75 78 81 83 85 88 92 93 93 94 95 93 91 90 89 90 89 89 90 90 89 89 87 88 89 88 87 87 87 87 88 88 86 86 87 87 87
78 76 73 66 59 70 61 63 75 71 74 74 76 78 80 82 85 83 76 88 90 91 92 93 92 90 91 91 89 89 89 88 89 88 89 89 88 88 87 87 86 86 87 87 86 86 89 87 87